<?xml version="1.0" encoding="UTF-8" standalone="no" ?>
<gpx xmlns="http://www.topografix.com/GPX/1/1" xmlns:xsi="http://www.w3.org/2001/XMLSchema-instance" xsi:schemaLocation="http://www.topografix.com/GPX/1/1 http://www.topografix.com/GPX/1/1/gpx.xsd" version="1.1" creator="VisuGPX - https://www.visugpx.com">
  <metadata>
    <name>Sayat</name>
  </metadata>
  <trk>
    <name><![CDATA[Sayat_1]]></name>
    <extensions>
      <line xmlns="http://www.topografix.com/GPX/gpx_style/0/2">
        <color>0000FF</color>
        <width>4</width>
      </line>
    </extensions>
    <trkseg>
      <trkpt lat="45.83268" lon="3.05377">
        <ele>551</ele>
        <time>2021-05-22T11:00:57Z</time>
      </trkpt>
      <trkpt lat="45.83268" lon="3.05376">
        <ele>551</ele>
        <time>2021-05-22T11:00:58Z</time>
      </trkpt>
      <trkpt lat="45.83267" lon="3.05376">
        <ele>551</ele>
        <time>2021-05-22T11:01:00Z</time>
      </trkpt>
      <trkpt lat="45.83267" lon="3.05375">
        <ele>551</ele>
        <time>2021-05-22T11:01:01Z</time>
      </trkpt>
      <trkpt lat="45.83265" lon="3.05372">
        <ele>551</ele>
        <time>2021-05-22T11:01:06Z</time>
      </trkpt>
      <trkpt lat="45.83264" lon="3.05369">
        <ele>551</ele>
        <time>2021-05-22T11:01:07Z</time>
      </trkpt>
      <trkpt lat="45.83262" lon="3.05366">
        <ele>551</ele>
        <time>2021-05-22T11:01:08Z</time>
      </trkpt>
      <trkpt lat="45.83261" lon="3.05366">
        <ele>551</ele>
        <time>2021-05-22T11:01:09Z</time>
      </trkpt>
      <trkpt lat="45.83261" lon="3.05366">
        <ele>551</ele>
        <time>2021-05-22T11:01:10Z</time>
      </trkpt>
      <trkpt lat="45.83261" lon="3.05365">
        <ele>551</ele>
        <time>2021-05-22T11:01:11Z</time>
      </trkpt>
      <trkpt lat="45.8326" lon="3.05364">
        <ele>551</ele>
        <time>2021-05-22T11:01:12Z</time>
      </trkpt>
      <trkpt lat="45.83259" lon="3.05363">
        <ele>551</ele>
        <time>2021-05-22T11:01:13Z</time>
      </trkpt>
      <trkpt lat="45.83258" lon="3.05363">
        <ele>551</ele>
        <time>2021-05-22T11:01:14Z</time>
      </trkpt>
      <trkpt lat="45.83257" lon="3.05362">
        <ele>551</ele>
        <time>2021-05-22T11:01:15Z</time>
      </trkpt>
      <trkpt lat="45.83255" lon="3.05362">
        <ele>551</ele>
        <time>2021-05-22T11:01:16Z</time>
      </trkpt>
      <trkpt lat="45.83254" lon="3.05362">
        <ele>551</ele>
        <time>2021-05-22T11:01:17Z</time>
      </trkpt>
      <trkpt lat="45.83252" lon="3.05362">
        <ele>551</ele>
        <time>2021-05-22T11:01:18Z</time>
      </trkpt>
      <trkpt lat="45.83251" lon="3.05363">
        <ele>551</ele>
        <time>2021-05-22T11:01:19Z</time>
      </trkpt>
      <trkpt lat="45.8325" lon="3.05364">
        <ele>551</ele>
        <time>2021-05-22T11:01:20Z</time>
      </trkpt>
      <trkpt lat="45.83249" lon="3.05365">
        <ele>551</ele>
        <time>2021-05-22T11:01:21Z</time>
      </trkpt>
      <trkpt lat="45.83248" lon="3.05367">
        <ele>551</ele>
        <time>2021-05-22T11:01:22Z</time>
      </trkpt>
      <trkpt lat="45.83247" lon="3.05368">
        <ele>551</ele>
        <time>2021-05-22T11:01:23Z</time>
      </trkpt>
      <trkpt lat="45.83246" lon="3.0537">
        <ele>551</ele>
        <time>2021-05-22T11:01:24Z</time>
      </trkpt>
      <trkpt lat="45.83245" lon="3.05372">
        <ele>551</ele>
        <time>2021-05-22T11:01:25Z</time>
      </trkpt>
      <trkpt lat="45.83242" lon="3.05383">
        <ele>551</ele>
        <time>2021-05-22T11:01:28Z</time>
      </trkpt>
      <trkpt lat="45.83238" lon="3.05389">
        <ele>551</ele>
        <time>2021-05-22T11:01:42Z</time>
      </trkpt>
      <trkpt lat="45.83236" lon="3.05392">
        <ele>551</ele>
        <time>2021-05-22T11:01:46Z</time>
      </trkpt>
      <trkpt lat="45.83236" lon="3.05392">
        <ele>551</ele>
        <time>2021-05-22T11:01:47Z</time>
      </trkpt>
      <trkpt lat="45.83234" lon="3.05393">
        <ele>551</ele>
        <time>2021-05-22T11:01:48Z</time>
      </trkpt>
      <trkpt lat="45.83233" lon="3.05395">
        <ele>551</ele>
        <time>2021-05-22T11:01:49Z</time>
      </trkpt>
      <trkpt lat="45.83231" lon="3.05398">
        <ele>551</ele>
        <time>2021-05-22T11:01:50Z</time>
      </trkpt>
      <trkpt lat="45.83228" lon="3.05402">
        <ele>551</ele>
        <time>2021-05-22T11:01:51Z</time>
      </trkpt>
      <trkpt lat="45.83226" lon="3.05405">
        <ele>551</ele>
        <time>2021-05-22T11:01:52Z</time>
      </trkpt>
      <trkpt lat="45.83224" lon="3.05407">
        <ele>551</ele>
        <time>2021-05-22T11:01:53Z</time>
      </trkpt>
      <trkpt lat="45.83223" lon="3.05408">
        <ele>551</ele>
        <time>2021-05-22T11:01:54Z</time>
      </trkpt>
      <trkpt lat="45.83219" lon="3.05413">
        <ele>551</ele>
        <time>2021-05-22T11:02:10Z</time>
      </trkpt>
      <trkpt lat="45.83219" lon="3.05414">
        <ele>551</ele>
        <time>2021-05-22T11:02:11Z</time>
      </trkpt>
      <trkpt lat="45.83219" lon="3.05414">
        <ele>551</ele>
        <time>2021-05-22T11:02:12Z</time>
      </trkpt>
      <trkpt lat="45.83219" lon="3.05414">
        <ele>551</ele>
        <time>2021-05-22T11:02:13Z</time>
      </trkpt>
      <trkpt lat="45.83218" lon="3.05415">
        <ele>551</ele>
        <time>2021-05-22T11:02:14Z</time>
      </trkpt>
      <trkpt lat="45.83218" lon="3.05415">
        <ele>551</ele>
        <time>2021-05-22T11:02:15Z</time>
      </trkpt>
      <trkpt lat="45.83218" lon="3.05416">
        <ele>551</ele>
        <time>2021-05-22T11:02:16Z</time>
      </trkpt>
      <trkpt lat="45.83218" lon="3.05417">
        <ele>551</ele>
        <time>2021-05-22T11:02:17Z</time>
      </trkpt>
      <trkpt lat="45.83217" lon="3.05418">
        <ele>551</ele>
        <time>2021-05-22T11:02:18Z</time>
      </trkpt>
      <trkpt lat="45.83217" lon="3.05418">
        <ele>551</ele>
        <time>2021-05-22T11:02:19Z</time>
      </trkpt>
      <trkpt lat="45.83217" lon="3.05419">
        <ele>551</ele>
        <time>2021-05-22T11:02:20Z</time>
      </trkpt>
      <trkpt lat="45.83216" lon="3.0542">
        <ele>551</ele>
        <time>2021-05-22T11:02:21Z</time>
      </trkpt>
      <trkpt lat="45.83216" lon="3.0542">
        <ele>551</ele>
        <time>2021-05-22T11:02:22Z</time>
      </trkpt>
      <trkpt lat="45.83215" lon="3.05421">
        <ele>551</ele>
        <time>2021-05-22T11:02:23Z</time>
      </trkpt>
      <trkpt lat="45.83215" lon="3.05423">
        <ele>551</ele>
        <time>2021-05-22T11:02:24Z</time>
      </trkpt>
      <trkpt lat="45.83215" lon="3.05424">
        <ele>551</ele>
        <time>2021-05-22T11:02:25Z</time>
      </trkpt>
      <trkpt lat="45.83215" lon="3.05426">
        <ele>551</ele>
        <time>2021-05-22T11:02:26Z</time>
      </trkpt>
      <trkpt lat="45.83215" lon="3.05427">
        <ele>551</ele>
        <time>2021-05-22T11:02:27Z</time>
      </trkpt>
      <trkpt lat="45.83215" lon="3.05428">
        <ele>551</ele>
        <time>2021-05-22T11:02:28Z</time>
      </trkpt>
      <trkpt lat="45.83214" lon="3.05428">
        <ele>551</ele>
        <time>2021-05-22T11:02:29Z</time>
      </trkpt>
      <trkpt lat="45.83213" lon="3.05428">
        <ele>551</ele>
        <time>2021-05-22T11:02:30Z</time>
      </trkpt>
      <trkpt lat="45.83212" lon="3.05428">
        <ele>551</ele>
        <time>2021-05-22T11:02:31Z</time>
      </trkpt>
      <trkpt lat="45.8321" lon="3.05428">
        <ele>551</ele>
        <time>2021-05-22T11:02:32Z</time>
      </trkpt>
      <trkpt lat="45.83209" lon="3.05429">
        <ele>551</ele>
        <time>2021-05-22T11:02:33Z</time>
      </trkpt>
      <trkpt lat="45.83207" lon="3.05429">
        <ele>551</ele>
        <time>2021-05-22T11:02:34Z</time>
      </trkpt>
      <trkpt lat="45.83206" lon="3.0543">
        <ele>551</ele>
        <time>2021-05-22T11:02:35Z</time>
      </trkpt>
      <trkpt lat="45.83204" lon="3.05431">
        <ele>551</ele>
        <time>2021-05-22T11:02:36Z</time>
      </trkpt>
      <trkpt lat="45.83204" lon="3.05432">
        <ele>551</ele>
        <time>2021-05-22T11:02:37Z</time>
      </trkpt>
      <trkpt lat="45.83202" lon="3.05432">
        <ele>551</ele>
        <time>2021-05-22T11:02:38Z</time>
      </trkpt>
      <trkpt lat="45.83201" lon="3.05433">
        <ele>551</ele>
        <time>2021-05-22T11:02:39Z</time>
      </trkpt>
      <trkpt lat="45.832" lon="3.05434">
        <ele>551</ele>
        <time>2021-05-22T11:02:40Z</time>
      </trkpt>
      <trkpt lat="45.83196" lon="3.05436">
        <ele>551</ele>
        <time>2021-05-22T11:02:44Z</time>
      </trkpt>
      <trkpt lat="45.83195" lon="3.05437">
        <ele>551</ele>
        <time>2021-05-22T11:02:45Z</time>
      </trkpt>
      <trkpt lat="45.83196" lon="3.05437">
        <ele>551</ele>
        <time>2021-05-22T11:03:11Z</time>
      </trkpt>
      <trkpt lat="45.83196" lon="3.05437">
        <ele>551</ele>
        <time>2021-05-22T11:03:12Z</time>
      </trkpt>
      <trkpt lat="45.83195" lon="3.05437">
        <ele>551</ele>
        <time>2021-05-22T11:03:13Z</time>
      </trkpt>
      <trkpt lat="45.83192" lon="3.05434">
        <ele>551</ele>
        <time>2021-05-22T11:03:17Z</time>
      </trkpt>
      <trkpt lat="45.83191" lon="3.05434">
        <ele>551</ele>
        <time>2021-05-22T11:03:18Z</time>
      </trkpt>
      <trkpt lat="45.83191" lon="3.05433">
        <ele>551</ele>
        <time>2021-05-22T11:03:19Z</time>
      </trkpt>
      <trkpt lat="45.83189" lon="3.05433">
        <ele>551</ele>
        <time>2021-05-22T11:03:20Z</time>
      </trkpt>
      <trkpt lat="45.83188" lon="3.05433">
        <ele>551</ele>
        <time>2021-05-22T11:03:21Z</time>
      </trkpt>
      <trkpt lat="45.83186" lon="3.05433">
        <ele>551</ele>
        <time>2021-05-22T11:03:22Z</time>
      </trkpt>
      <trkpt lat="45.83185" lon="3.05433">
        <ele>551</ele>
        <time>2021-05-22T11:03:23Z</time>
      </trkpt>
      <trkpt lat="45.83183" lon="3.05432">
        <ele>551</ele>
        <time>2021-05-22T11:03:24Z</time>
      </trkpt>
      <trkpt lat="45.83183" lon="3.05431">
        <ele>551</ele>
        <time>2021-05-22T11:03:25Z</time>
      </trkpt>
      <trkpt lat="45.83181" lon="3.0543">
        <ele>551</ele>
        <time>2021-05-22T11:03:26Z</time>
      </trkpt>
      <trkpt lat="45.8318" lon="3.05429">
        <ele>551</ele>
        <time>2021-05-22T11:03:27Z</time>
      </trkpt>
      <trkpt lat="45.83176" lon="3.05428">
        <ele>551</ele>
        <time>2021-05-22T11:03:30Z</time>
      </trkpt>
      <trkpt lat="45.83175" lon="3.05428">
        <ele>551</ele>
        <time>2021-05-22T11:03:31Z</time>
      </trkpt>
      <trkpt lat="45.83175" lon="3.05429">
        <ele>551</ele>
        <time>2021-05-22T11:03:32Z</time>
      </trkpt>
      <trkpt lat="45.83173" lon="3.0543">
        <ele>551</ele>
        <time>2021-05-22T11:03:33Z</time>
      </trkpt>
      <trkpt lat="45.83172" lon="3.0543">
        <ele>551</ele>
        <time>2021-05-22T11:03:34Z</time>
      </trkpt>
      <trkpt lat="45.83171" lon="3.05431">
        <ele>551</ele>
        <time>2021-05-22T11:03:35Z</time>
      </trkpt>
      <trkpt lat="45.83169" lon="3.05431">
        <ele>551</ele>
        <time>2021-05-22T11:03:36Z</time>
      </trkpt>
      <trkpt lat="45.83168" lon="3.05431">
        <ele>551</ele>
        <time>2021-05-22T11:03:37Z</time>
      </trkpt>
      <trkpt lat="45.83164" lon="3.05433">
        <ele>551</ele>
        <time>2021-05-22T11:03:41Z</time>
      </trkpt>
      <trkpt lat="45.83163" lon="3.05433">
        <ele>551</ele>
        <time>2021-05-22T11:03:42Z</time>
      </trkpt>
      <trkpt lat="45.83161" lon="3.05434">
        <ele>551</ele>
        <time>2021-05-22T11:03:43Z</time>
      </trkpt>
      <trkpt lat="45.83159" lon="3.05435">
        <ele>551</ele>
        <time>2021-05-22T11:03:44Z</time>
      </trkpt>
      <trkpt lat="45.83156" lon="3.05436">
        <ele>551</ele>
        <time>2021-05-22T11:03:45Z</time>
      </trkpt>
      <trkpt lat="45.83153" lon="3.05436">
        <ele>551</ele>
        <time>2021-05-22T11:03:46Z</time>
      </trkpt>
      <trkpt lat="45.8315" lon="3.05437">
        <ele>551</ele>
        <time>2021-05-22T11:03:47Z</time>
      </trkpt>
      <trkpt lat="45.83147" lon="3.05438">
        <ele>551</ele>
        <time>2021-05-22T11:03:48Z</time>
      </trkpt>
      <trkpt lat="45.83145" lon="3.05439">
        <ele>551</ele>
        <time>2021-05-22T11:03:49Z</time>
      </trkpt>
      <trkpt lat="45.83143" lon="3.0544">
        <ele>551</ele>
        <time>2021-05-22T11:03:50Z</time>
      </trkpt>
      <trkpt lat="45.83141" lon="3.05441">
        <ele>551</ele>
        <time>2021-05-22T11:03:51Z</time>
      </trkpt>
      <trkpt lat="45.83139" lon="3.05441">
        <ele>551</ele>
        <time>2021-05-22T11:03:52Z</time>
      </trkpt>
      <trkpt lat="45.83138" lon="3.05442">
        <ele>551</ele>
        <time>2021-05-22T11:03:53Z</time>
      </trkpt>
      <trkpt lat="45.83136" lon="3.05442">
        <ele>551</ele>
        <time>2021-05-22T11:03:54Z</time>
      </trkpt>
      <trkpt lat="45.83135" lon="3.05443">
        <ele>551</ele>
        <time>2021-05-22T11:03:55Z</time>
      </trkpt>
      <trkpt lat="45.83132" lon="3.05445">
        <ele>551</ele>
        <time>2021-05-22T11:04:00Z</time>
      </trkpt>
      <trkpt lat="45.83131" lon="3.05444">
        <ele>551</ele>
        <time>2021-05-22T11:04:01Z</time>
      </trkpt>
      <trkpt lat="45.83131" lon="3.05444">
        <ele>551</ele>
        <time>2021-05-22T11:04:02Z</time>
      </trkpt>
      <trkpt lat="45.8313" lon="3.05445">
        <ele>551</ele>
        <time>2021-05-22T11:04:03Z</time>
      </trkpt>
      <trkpt lat="45.83128" lon="3.05446">
        <ele>551</ele>
        <time>2021-05-22T11:04:04Z</time>
      </trkpt>
      <trkpt lat="45.83126" lon="3.05446">
        <ele>551</ele>
        <time>2021-05-22T11:04:05Z</time>
      </trkpt>
      <trkpt lat="45.83125" lon="3.05447">
        <ele>551</ele>
        <time>2021-05-22T11:04:06Z</time>
      </trkpt>
      <trkpt lat="45.83122" lon="3.05447">
        <ele>551</ele>
        <time>2021-05-22T11:04:07Z</time>
      </trkpt>
      <trkpt lat="45.8312" lon="3.05447">
        <ele>551</ele>
        <time>2021-05-22T11:04:08Z</time>
      </trkpt>
      <trkpt lat="45.83118" lon="3.05447">
        <ele>551</ele>
        <time>2021-05-22T11:04:09Z</time>
      </trkpt>
      <trkpt lat="45.83115" lon="3.05447">
        <ele>551</ele>
        <time>2021-05-22T11:04:10Z</time>
      </trkpt>
      <trkpt lat="45.83113" lon="3.05448">
        <ele>551</ele>
        <time>2021-05-22T11:04:11Z</time>
      </trkpt>
      <trkpt lat="45.83111" lon="3.05448">
        <ele>551</ele>
        <time>2021-05-22T11:04:12Z</time>
      </trkpt>
      <trkpt lat="45.83109" lon="3.05448">
        <ele>551</ele>
        <time>2021-05-22T11:04:13Z</time>
      </trkpt>
      <trkpt lat="45.83108" lon="3.05448">
        <ele>551</ele>
        <time>2021-05-22T11:04:14Z</time>
      </trkpt>
      <trkpt lat="45.83106" lon="3.05448">
        <ele>551</ele>
        <time>2021-05-22T11:04:15Z</time>
      </trkpt>
      <trkpt lat="45.83104" lon="3.05448">
        <ele>551</ele>
        <time>2021-05-22T11:04:16Z</time>
      </trkpt>
      <trkpt lat="45.83102" lon="3.05448">
        <ele>551</ele>
        <time>2021-05-22T11:04:17Z</time>
      </trkpt>
      <trkpt lat="45.83101" lon="3.05448">
        <ele>551</ele>
        <time>2021-05-22T11:04:18Z</time>
      </trkpt>
      <trkpt lat="45.83099" lon="3.05448">
        <ele>551</ele>
        <time>2021-05-22T11:04:19Z</time>
      </trkpt>
      <trkpt lat="45.83098" lon="3.05448">
        <ele>551</ele>
        <time>2021-05-22T11:04:20Z</time>
      </trkpt>
      <trkpt lat="45.83096" lon="3.05448">
        <ele>551</ele>
        <time>2021-05-22T11:04:21Z</time>
      </trkpt>
      <trkpt lat="45.83095" lon="3.05448">
        <ele>551</ele>
        <time>2021-05-22T11:04:22Z</time>
      </trkpt>
      <trkpt lat="45.83093" lon="3.05448">
        <ele>551</ele>
        <time>2021-05-22T11:04:23Z</time>
      </trkpt>
      <trkpt lat="45.83092" lon="3.05448">
        <ele>551</ele>
        <time>2021-05-22T11:04:24Z</time>
      </trkpt>
      <trkpt lat="45.8309" lon="3.05448">
        <ele>551</ele>
        <time>2021-05-22T11:04:25Z</time>
      </trkpt>
      <trkpt lat="45.83089" lon="3.05448">
        <ele>551</ele>
        <time>2021-05-22T11:04:26Z</time>
      </trkpt>
      <trkpt lat="45.83088" lon="3.05449">
        <ele>551</ele>
        <time>2021-05-22T11:04:27Z</time>
      </trkpt>
      <trkpt lat="45.83086" lon="3.0545">
        <ele>551</ele>
        <time>2021-05-22T11:04:28Z</time>
      </trkpt>
      <trkpt lat="45.83084" lon="3.05451">
        <ele>551</ele>
        <time>2021-05-22T11:04:29Z</time>
      </trkpt>
      <trkpt lat="45.83082" lon="3.05452">
        <ele>551</ele>
        <time>2021-05-22T11:04:30Z</time>
      </trkpt>
      <trkpt lat="45.8308" lon="3.05452">
        <ele>551</ele>
        <time>2021-05-22T11:04:31Z</time>
      </trkpt>
      <trkpt lat="45.83078" lon="3.05452">
        <ele>551</ele>
        <time>2021-05-22T11:04:32Z</time>
      </trkpt>
      <trkpt lat="45.83077" lon="3.05452">
        <ele>551</ele>
        <time>2021-05-22T11:04:33Z</time>
      </trkpt>
      <trkpt lat="45.83075" lon="3.05452">
        <ele>551</ele>
        <time>2021-05-22T11:04:34Z</time>
      </trkpt>
      <trkpt lat="45.83074" lon="3.05453">
        <ele>551</ele>
        <time>2021-05-22T11:04:35Z</time>
      </trkpt>
      <trkpt lat="45.83072" lon="3.05454">
        <ele>551</ele>
        <time>2021-05-22T11:04:36Z</time>
      </trkpt>
      <trkpt lat="45.83071" lon="3.05454">
        <ele>551</ele>
        <time>2021-05-22T11:04:37Z</time>
      </trkpt>
      <trkpt lat="45.8307" lon="3.05455">
        <ele>551</ele>
        <time>2021-05-22T11:04:38Z</time>
      </trkpt>
      <trkpt lat="45.83068" lon="3.05456">
        <ele>551</ele>
        <time>2021-05-22T11:04:39Z</time>
      </trkpt>
      <trkpt lat="45.83067" lon="3.05456">
        <ele>551</ele>
        <time>2021-05-22T11:04:40Z</time>
      </trkpt>
      <trkpt lat="45.83066" lon="3.05457">
        <ele>551</ele>
        <time>2021-05-22T11:04:41Z</time>
      </trkpt>
      <trkpt lat="45.83062" lon="3.05459">
        <ele>551</ele>
        <time>2021-05-22T11:04:47Z</time>
      </trkpt>
      <trkpt lat="45.83061" lon="3.05459">
        <ele>551</ele>
        <time>2021-05-22T11:04:48Z</time>
      </trkpt>
      <trkpt lat="45.8306" lon="3.05459">
        <ele>551</ele>
        <time>2021-05-22T11:04:49Z</time>
      </trkpt>
      <trkpt lat="45.83059" lon="3.05459">
        <ele>551</ele>
        <time>2021-05-22T11:04:50Z</time>
      </trkpt>
      <trkpt lat="45.83056" lon="3.05459">
        <ele>551</ele>
        <time>2021-05-22T11:04:51Z</time>
      </trkpt>
      <trkpt lat="45.83055" lon="3.05459">
        <ele>551</ele>
        <time>2021-05-22T11:04:52Z</time>
      </trkpt>
      <trkpt lat="45.83052" lon="3.05459">
        <ele>551</ele>
        <time>2021-05-22T11:04:53Z</time>
      </trkpt>
      <trkpt lat="45.8305" lon="3.0546">
        <ele>551</ele>
        <time>2021-05-22T11:04:54Z</time>
      </trkpt>
      <trkpt lat="45.83048" lon="3.0546">
        <ele>551</ele>
        <time>2021-05-22T11:04:55Z</time>
      </trkpt>
      <trkpt lat="45.83047" lon="3.05459">
        <ele>551</ele>
        <time>2021-05-22T11:04:56Z</time>
      </trkpt>
      <trkpt lat="45.83041" lon="3.05459">
        <ele>551</ele>
        <time>2021-05-22T11:04:59Z</time>
      </trkpt>
      <trkpt lat="45.83041" lon="3.05459">
        <ele>551</ele>
        <time>2021-05-22T11:05:00Z</time>
      </trkpt>
      <trkpt lat="45.8304" lon="3.05459">
        <ele>551</ele>
        <time>2021-05-22T11:05:01Z</time>
      </trkpt>
      <trkpt lat="45.83038" lon="3.05459">
        <ele>551</ele>
        <time>2021-05-22T11:05:02Z</time>
      </trkpt>
      <trkpt lat="45.83036" lon="3.05458">
        <ele>551</ele>
        <time>2021-05-22T11:05:03Z</time>
      </trkpt>
      <trkpt lat="45.83035" lon="3.05457">
        <ele>551</ele>
        <time>2021-05-22T11:05:04Z</time>
      </trkpt>
      <trkpt lat="45.83032" lon="3.05456">
        <ele>551</ele>
        <time>2021-05-22T11:05:05Z</time>
      </trkpt>
      <trkpt lat="45.83029" lon="3.05455">
        <ele>551</ele>
        <time>2021-05-22T11:05:06Z</time>
      </trkpt>
      <trkpt lat="45.83027" lon="3.05454">
        <ele>551</ele>
        <time>2021-05-22T11:05:07Z</time>
      </trkpt>
      <trkpt lat="45.83025" lon="3.05454">
        <ele>551</ele>
        <time>2021-05-22T11:05:08Z</time>
      </trkpt>
      <trkpt lat="45.83023" lon="3.05454">
        <ele>551</ele>
        <time>2021-05-22T11:05:09Z</time>
      </trkpt>
      <trkpt lat="45.83022" lon="3.05455">
        <ele>551</ele>
        <time>2021-05-22T11:05:10Z</time>
      </trkpt>
      <trkpt lat="45.8302" lon="3.05455">
        <ele>551</ele>
        <time>2021-05-22T11:05:10Z</time>
      </trkpt>
      <trkpt lat="45.83019" lon="3.05456">
        <ele>551</ele>
        <time>2021-05-22T11:05:11Z</time>
      </trkpt>
      <trkpt lat="45.83017" lon="3.05457">
        <ele>551</ele>
        <time>2021-05-22T11:05:12Z</time>
      </trkpt>
      <trkpt lat="45.83015" lon="3.05457">
        <ele>551</ele>
        <time>2021-05-22T11:05:13Z</time>
      </trkpt>
      <trkpt lat="45.83014" lon="3.05457">
        <ele>551</ele>
        <time>2021-05-22T11:05:14Z</time>
      </trkpt>
      <trkpt lat="45.83012" lon="3.05456">
        <ele>551</ele>
        <time>2021-05-22T11:05:15Z</time>
      </trkpt>
      <trkpt lat="45.83011" lon="3.05455">
        <ele>551</ele>
        <time>2021-05-22T11:05:16Z</time>
      </trkpt>
      <trkpt lat="45.83009" lon="3.05454">
        <ele>551</ele>
        <time>2021-05-22T11:05:18Z</time>
      </trkpt>
      <trkpt lat="45.83007" lon="3.05454">
        <ele>551</ele>
        <time>2021-05-22T11:05:20Z</time>
      </trkpt>
      <trkpt lat="45.83005" lon="3.05453">
        <ele>551</ele>
        <time>2021-05-22T11:05:22Z</time>
      </trkpt>
      <trkpt lat="45.83003" lon="3.05453">
        <ele>551</ele>
        <time>2021-05-22T11:05:24Z</time>
      </trkpt>
      <trkpt lat="45.83" lon="3.05453">
        <ele>551</ele>
        <time>2021-05-22T11:05:26Z</time>
      </trkpt>
      <trkpt lat="45.82998" lon="3.05452">
        <ele>551</ele>
        <time>2021-05-22T11:05:28Z</time>
      </trkpt>
      <trkpt lat="45.82995" lon="3.0545">
        <ele>551</ele>
        <time>2021-05-22T11:05:30Z</time>
      </trkpt>
      <trkpt lat="45.82991" lon="3.05449">
        <ele>551</ele>
        <time>2021-05-22T11:05:32Z</time>
      </trkpt>
      <trkpt lat="45.82988" lon="3.0545">
        <ele>551</ele>
        <time>2021-05-22T11:05:34Z</time>
      </trkpt>
      <trkpt lat="45.82982" lon="3.05455">
        <ele>551</ele>
        <time>2021-05-22T11:05:36Z</time>
      </trkpt>
      <trkpt lat="45.82977" lon="3.05458">
        <ele>551</ele>
        <time>2021-05-22T11:05:38Z</time>
      </trkpt>
      <trkpt lat="45.82972" lon="3.05459">
        <ele>551</ele>
        <time>2021-05-22T11:05:40Z</time>
      </trkpt>
      <trkpt lat="45.82967" lon="3.05461">
        <ele>551</ele>
        <time>2021-05-22T11:05:42Z</time>
      </trkpt>
      <trkpt lat="45.82954" lon="3.05462">
        <ele>551</ele>
        <time>2021-05-22T11:05:46Z</time>
      </trkpt>
      <trkpt lat="45.82954" lon="3.05461">
        <ele>551</ele>
        <time>2021-05-22T11:05:48Z</time>
      </trkpt>
      <trkpt lat="45.82952" lon="3.05458">
        <ele>551</ele>
        <time>2021-05-22T11:05:50Z</time>
      </trkpt>
      <trkpt lat="45.8295" lon="3.05456">
        <ele>551</ele>
        <time>2021-05-22T11:05:52Z</time>
      </trkpt>
      <trkpt lat="45.82948" lon="3.05453">
        <ele>551</ele>
        <time>2021-05-22T11:05:54Z</time>
      </trkpt>
      <trkpt lat="45.82946" lon="3.05449">
        <ele>551</ele>
        <time>2021-05-22T11:05:56Z</time>
      </trkpt>
      <trkpt lat="45.82945" lon="3.05446">
        <ele>551</ele>
        <time>2021-05-22T11:05:58Z</time>
      </trkpt>
      <trkpt lat="45.82943" lon="3.05443">
        <ele>551</ele>
        <time>2021-05-22T11:06:00Z</time>
      </trkpt>
      <trkpt lat="45.82942" lon="3.05439">
        <ele>551</ele>
        <time>2021-05-22T11:06:02Z</time>
      </trkpt>
      <trkpt lat="45.82939" lon="3.05435">
        <ele>551</ele>
        <time>2021-05-22T11:06:04Z</time>
      </trkpt>
      <trkpt lat="45.82937" lon="3.05431">
        <ele>551</ele>
        <time>2021-05-22T11:06:06Z</time>
      </trkpt>
      <trkpt lat="45.82935" lon="3.05428">
        <ele>551</ele>
        <time>2021-05-22T11:06:08Z</time>
      </trkpt>
      <trkpt lat="45.82933" lon="3.05425">
        <ele>551</ele>
        <time>2021-05-22T11:06:10Z</time>
      </trkpt>
      <trkpt lat="45.8293" lon="3.05422">
        <ele>551</ele>
        <time>2021-05-22T11:06:12Z</time>
      </trkpt>
      <trkpt lat="45.82928" lon="3.05418">
        <ele>551</ele>
        <time>2021-05-22T11:06:14Z</time>
      </trkpt>
      <trkpt lat="45.82926" lon="3.05416">
        <ele>551</ele>
        <time>2021-05-22T11:06:16Z</time>
      </trkpt>
      <trkpt lat="45.82921" lon="3.0541">
        <ele>551</ele>
        <time>2021-05-22T11:06:20Z</time>
      </trkpt>
      <trkpt lat="45.8292" lon="3.05411">
        <ele>551</ele>
        <time>2021-05-22T11:06:22Z</time>
      </trkpt>
      <trkpt lat="45.82915" lon="3.05412">
        <ele>551</ele>
        <time>2021-05-22T11:06:26Z</time>
      </trkpt>
      <trkpt lat="45.82915" lon="3.05413">
        <ele>551</ele>
        <time>2021-05-22T11:06:28Z</time>
      </trkpt>
      <trkpt lat="45.82913" lon="3.05413">
        <ele>551</ele>
        <time>2021-05-22T11:06:30Z</time>
      </trkpt>
      <trkpt lat="45.82911" lon="3.05413">
        <ele>551</ele>
        <time>2021-05-22T11:06:32Z</time>
      </trkpt>
      <trkpt lat="45.8291" lon="3.05412">
        <ele>551</ele>
        <time>2021-05-22T11:06:34Z</time>
      </trkpt>
      <trkpt lat="45.82908" lon="3.05411">
        <ele>551</ele>
        <time>2021-05-22T11:06:36Z</time>
      </trkpt>
      <trkpt lat="45.82906" lon="3.0541">
        <ele>551</ele>
        <time>2021-05-22T11:06:38Z</time>
      </trkpt>
      <trkpt lat="45.82904" lon="3.05407">
        <ele>551</ele>
        <time>2021-05-22T11:06:40Z</time>
      </trkpt>
      <trkpt lat="45.82899" lon="3.05404">
        <ele>551</ele>
        <time>2021-05-22T11:06:42Z</time>
      </trkpt>
      <trkpt lat="45.82895" lon="3.05402">
        <ele>551</ele>
        <time>2021-05-22T11:06:44Z</time>
      </trkpt>
      <trkpt lat="45.8289" lon="3.05401">
        <ele>551</ele>
        <time>2021-05-22T11:06:46Z</time>
      </trkpt>
      <trkpt lat="45.82887" lon="3.05401">
        <ele>551</ele>
        <time>2021-05-22T11:06:48Z</time>
      </trkpt>
      <trkpt lat="45.82883" lon="3.05402">
        <ele>551</ele>
        <time>2021-05-22T11:06:50Z</time>
      </trkpt>
      <trkpt lat="45.82874" lon="3.05407">
        <ele>551</ele>
        <time>2021-05-22T11:06:53Z</time>
      </trkpt>
      <trkpt lat="45.82873" lon="3.05407">
        <ele>551</ele>
        <time>2021-05-22T11:06:54Z</time>
      </trkpt>
      <trkpt lat="45.82872" lon="3.05408">
        <ele>551</ele>
        <time>2021-05-22T11:06:55Z</time>
      </trkpt>
      <trkpt lat="45.82871" lon="3.05408">
        <ele>551</ele>
        <time>2021-05-22T11:06:56Z</time>
      </trkpt>
      <trkpt lat="45.82869" lon="3.05409">
        <ele>551</ele>
        <time>2021-05-22T11:06:57Z</time>
      </trkpt>
      <trkpt lat="45.82868" lon="3.05411">
        <ele>551</ele>
        <time>2021-05-22T11:06:58Z</time>
      </trkpt>
      <trkpt lat="45.82866" lon="3.05413">
        <ele>551</ele>
        <time>2021-05-22T11:06:59Z</time>
      </trkpt>
      <trkpt lat="45.82864" lon="3.05414">
        <ele>551</ele>
        <time>2021-05-22T11:07:00Z</time>
      </trkpt>
      <trkpt lat="45.82863" lon="3.05416">
        <ele>551</ele>
        <time>2021-05-22T11:07:01Z</time>
      </trkpt>
      <trkpt lat="45.82861" lon="3.05416">
        <ele>551</ele>
        <time>2021-05-22T11:07:02Z</time>
      </trkpt>
      <trkpt lat="45.8286" lon="3.05417">
        <ele>551</ele>
        <time>2021-05-22T11:07:03Z</time>
      </trkpt>
      <trkpt lat="45.82858" lon="3.05418">
        <ele>551</ele>
        <time>2021-05-22T11:07:04Z</time>
      </trkpt>
      <trkpt lat="45.82857" lon="3.05419">
        <ele>551</ele>
        <time>2021-05-22T11:07:05Z</time>
      </trkpt>
      <trkpt lat="45.82855" lon="3.05419">
        <ele>551</ele>
        <time>2021-05-22T11:07:06Z</time>
      </trkpt>
      <trkpt lat="45.82854" lon="3.0542">
        <ele>551</ele>
        <time>2021-05-22T11:07:07Z</time>
      </trkpt>
      <trkpt lat="45.82852" lon="3.0542">
        <ele>551</ele>
        <time>2021-05-22T11:07:08Z</time>
      </trkpt>
      <trkpt lat="45.82851" lon="3.0542">
        <ele>551</ele>
        <time>2021-05-22T11:07:09Z</time>
      </trkpt>
      <trkpt lat="45.8285" lon="3.0542">
        <ele>551</ele>
        <time>2021-05-22T11:07:10Z</time>
      </trkpt>
      <trkpt lat="45.82848" lon="3.0542">
        <ele>551</ele>
        <time>2021-05-22T11:07:11Z</time>
      </trkpt>
      <trkpt lat="45.82847" lon="3.05421">
        <ele>551</ele>
        <time>2021-05-22T11:07:12Z</time>
      </trkpt>
      <trkpt lat="45.82845" lon="3.05421">
        <ele>551</ele>
        <time>2021-05-22T11:07:13Z</time>
      </trkpt>
      <trkpt lat="45.82843" lon="3.05421">
        <ele>551</ele>
        <time>2021-05-22T11:07:14Z</time>
      </trkpt>
      <trkpt lat="45.82842" lon="3.05421">
        <ele>551</ele>
        <time>2021-05-22T11:07:15Z</time>
      </trkpt>
      <trkpt lat="45.8284" lon="3.05421">
        <ele>551</ele>
        <time>2021-05-22T11:07:16Z</time>
      </trkpt>
      <trkpt lat="45.82839" lon="3.05421">
        <ele>551</ele>
        <time>2021-05-22T11:07:17Z</time>
      </trkpt>
      <trkpt lat="45.82838" lon="3.05421">
        <ele>551</ele>
        <time>2021-05-22T11:07:18Z</time>
      </trkpt>
      <trkpt lat="45.82836" lon="3.05421">
        <ele>551</ele>
        <time>2021-05-22T11:07:19Z</time>
      </trkpt>
      <trkpt lat="45.82835" lon="3.05421">
        <ele>551</ele>
        <time>2021-05-22T11:07:20Z</time>
      </trkpt>
      <trkpt lat="45.82833" lon="3.05421">
        <ele>551</ele>
        <time>2021-05-22T11:07:21Z</time>
      </trkpt>
      <trkpt lat="45.8283" lon="3.05421">
        <ele>551</ele>
        <time>2021-05-22T11:07:22Z</time>
      </trkpt>
      <trkpt lat="45.82829" lon="3.0542">
        <ele>551</ele>
        <time>2021-05-22T11:07:23Z</time>
      </trkpt>
      <trkpt lat="45.82827" lon="3.0542">
        <ele>551</ele>
        <time>2021-05-22T11:07:24Z</time>
      </trkpt>
      <trkpt lat="45.82827" lon="3.05419">
        <ele>551</ele>
        <time>2021-05-22T11:07:25Z</time>
      </trkpt>
      <trkpt lat="45.82826" lon="3.05419">
        <ele>551</ele>
        <time>2021-05-22T11:07:26Z</time>
      </trkpt>
      <trkpt lat="45.82825" lon="3.0542">
        <ele>551</ele>
        <time>2021-05-22T11:07:27Z</time>
      </trkpt>
      <trkpt lat="45.82823" lon="3.0542">
        <ele>551</ele>
        <time>2021-05-22T11:07:28Z</time>
      </trkpt>
      <trkpt lat="45.82821" lon="3.0542">
        <ele>551</ele>
        <time>2021-05-22T11:07:29Z</time>
      </trkpt>
      <trkpt lat="45.82821" lon="3.05421">
        <ele>551</ele>
        <time>2021-05-22T11:07:30Z</time>
      </trkpt>
      <trkpt lat="45.82819" lon="3.05422">
        <ele>551</ele>
        <time>2021-05-22T11:07:31Z</time>
      </trkpt>
      <trkpt lat="45.82818" lon="3.05422">
        <ele>551</ele>
        <time>2021-05-22T11:07:32Z</time>
      </trkpt>
      <trkpt lat="45.82816" lon="3.05422">
        <ele>551</ele>
        <time>2021-05-22T11:07:33Z</time>
      </trkpt>
      <trkpt lat="45.82814" lon="3.05422">
        <ele>551</ele>
        <time>2021-05-22T11:07:34Z</time>
      </trkpt>
      <trkpt lat="45.82813" lon="3.05422">
        <ele>551</ele>
        <time>2021-05-22T11:07:35Z</time>
      </trkpt>
      <trkpt lat="45.82812" lon="3.05421">
        <ele>551</ele>
        <time>2021-05-22T11:07:36Z</time>
      </trkpt>
      <trkpt lat="45.8281" lon="3.05421">
        <ele>551</ele>
        <time>2021-05-22T11:07:37Z</time>
      </trkpt>
      <trkpt lat="45.82809" lon="3.05421">
        <ele>551</ele>
        <time>2021-05-22T11:07:38Z</time>
      </trkpt>
      <trkpt lat="45.82807" lon="3.05421">
        <ele>551</ele>
        <time>2021-05-22T11:07:39Z</time>
      </trkpt>
      <trkpt lat="45.82806" lon="3.05421">
        <ele>551</ele>
        <time>2021-05-22T11:07:40Z</time>
      </trkpt>
      <trkpt lat="45.82805" lon="3.0542">
        <ele>551</ele>
        <time>2021-05-22T11:07:41Z</time>
      </trkpt>
      <trkpt lat="45.82803" lon="3.0542">
        <ele>551</ele>
        <time>2021-05-22T11:07:42Z</time>
      </trkpt>
      <trkpt lat="45.82802" lon="3.0542">
        <ele>551</ele>
        <time>2021-05-22T11:07:43Z</time>
      </trkpt>
      <trkpt lat="45.828" lon="3.0542">
        <ele>551</ele>
        <time>2021-05-22T11:07:44Z</time>
      </trkpt>
      <trkpt lat="45.82799" lon="3.0542">
        <ele>551</ele>
        <time>2021-05-22T11:07:45Z</time>
      </trkpt>
      <trkpt lat="45.82797" lon="3.0542">
        <ele>551</ele>
        <time>2021-05-22T11:07:46Z</time>
      </trkpt>
      <trkpt lat="45.82796" lon="3.0542">
        <ele>551</ele>
        <time>2021-05-22T11:07:47Z</time>
      </trkpt>
      <trkpt lat="45.82794" lon="3.0542">
        <ele>551</ele>
        <time>2021-05-22T11:07:48Z</time>
      </trkpt>
      <trkpt lat="45.82792" lon="3.0542">
        <ele>551</ele>
        <time>2021-05-22T11:07:49Z</time>
      </trkpt>
      <trkpt lat="45.82791" lon="3.0542">
        <ele>551</ele>
        <time>2021-05-22T11:07:50Z</time>
      </trkpt>
      <trkpt lat="45.82789" lon="3.0542">
        <ele>551</ele>
        <time>2021-05-22T11:07:51Z</time>
      </trkpt>
      <trkpt lat="45.82788" lon="3.05421">
        <ele>551</ele>
        <time>2021-05-22T11:07:52Z</time>
      </trkpt>
      <trkpt lat="45.82786" lon="3.05421">
        <ele>551</ele>
        <time>2021-05-22T11:07:53Z</time>
      </trkpt>
      <trkpt lat="45.82785" lon="3.05421">
        <ele>551</ele>
        <time>2021-05-22T11:07:54Z</time>
      </trkpt>
      <trkpt lat="45.82783" lon="3.05421">
        <ele>551</ele>
        <time>2021-05-22T11:07:55Z</time>
      </trkpt>
      <trkpt lat="45.82779" lon="3.0542">
        <ele>551</ele>
        <time>2021-05-22T11:07:58Z</time>
      </trkpt>
      <trkpt lat="45.82779" lon="3.0542">
        <ele>551</ele>
        <time>2021-05-22T11:07:59Z</time>
      </trkpt>
      <trkpt lat="45.82777" lon="3.05421">
        <ele>551</ele>
        <time>2021-05-22T11:08:00Z</time>
      </trkpt>
      <trkpt lat="45.82776" lon="3.05421">
        <ele>551</ele>
        <time>2021-05-22T11:08:01Z</time>
      </trkpt>
      <trkpt lat="45.82775" lon="3.05421">
        <ele>551</ele>
        <time>2021-05-22T11:08:02Z</time>
      </trkpt>
      <trkpt lat="45.82774" lon="3.05421">
        <ele>551</ele>
        <time>2021-05-22T11:08:03Z</time>
      </trkpt>
      <trkpt lat="45.82772" lon="3.05422">
        <ele>551</ele>
        <time>2021-05-22T11:08:04Z</time>
      </trkpt>
      <trkpt lat="45.82771" lon="3.05422">
        <ele>551</ele>
        <time>2021-05-22T11:08:05Z</time>
      </trkpt>
      <trkpt lat="45.82769" lon="3.05423">
        <ele>551</ele>
        <time>2021-05-22T11:08:06Z</time>
      </trkpt>
      <trkpt lat="45.82768" lon="3.05424">
        <ele>551</ele>
        <time>2021-05-22T11:08:07Z</time>
      </trkpt>
      <trkpt lat="45.82766" lon="3.05424">
        <ele>551</ele>
        <time>2021-05-22T11:08:08Z</time>
      </trkpt>
      <trkpt lat="45.82765" lon="3.05425">
        <ele>551</ele>
        <time>2021-05-22T11:08:09Z</time>
      </trkpt>
      <trkpt lat="45.82764" lon="3.05425">
        <ele>551</ele>
        <time>2021-05-22T11:08:10Z</time>
      </trkpt>
      <trkpt lat="45.82762" lon="3.05426">
        <ele>551</ele>
        <time>2021-05-22T11:08:11Z</time>
      </trkpt>
      <trkpt lat="45.82761" lon="3.05426">
        <ele>551</ele>
        <time>2021-05-22T11:08:12Z</time>
      </trkpt>
      <trkpt lat="45.8276" lon="3.05426">
        <ele>551</ele>
        <time>2021-05-22T11:08:13Z</time>
      </trkpt>
      <trkpt lat="45.82758" lon="3.05427">
        <ele>551</ele>
        <time>2021-05-22T11:08:14Z</time>
      </trkpt>
      <trkpt lat="45.82757" lon="3.05427">
        <ele>551</ele>
        <time>2021-05-22T11:08:15Z</time>
      </trkpt>
      <trkpt lat="45.82756" lon="3.05427">
        <ele>551</ele>
        <time>2021-05-22T11:08:16Z</time>
      </trkpt>
      <trkpt lat="45.82755" lon="3.05427">
        <ele>551</ele>
        <time>2021-05-22T11:08:17Z</time>
      </trkpt>
      <trkpt lat="45.82754" lon="3.05426">
        <ele>551</ele>
        <time>2021-05-22T11:08:18Z</time>
      </trkpt>
      <trkpt lat="45.82752" lon="3.05426">
        <ele>551</ele>
        <time>2021-05-22T11:08:19Z</time>
      </trkpt>
      <trkpt lat="45.82751" lon="3.05427">
        <ele>551</ele>
        <time>2021-05-22T11:08:20Z</time>
      </trkpt>
      <trkpt lat="45.8275" lon="3.05427">
        <ele>551</ele>
        <time>2021-05-22T11:08:21Z</time>
      </trkpt>
      <trkpt lat="45.82749" lon="3.05428">
        <ele>551</ele>
        <time>2021-05-22T11:08:22Z</time>
      </trkpt>
      <trkpt lat="45.82747" lon="3.05428">
        <ele>551</ele>
        <time>2021-05-22T11:08:23Z</time>
      </trkpt>
      <trkpt lat="45.82746" lon="3.05429">
        <ele>551</ele>
        <time>2021-05-22T11:08:24Z</time>
      </trkpt>
      <trkpt lat="45.82744" lon="3.05429">
        <ele>551</ele>
        <time>2021-05-22T11:08:25Z</time>
      </trkpt>
      <trkpt lat="45.82743" lon="3.05429">
        <ele>551</ele>
        <time>2021-05-22T11:08:26Z</time>
      </trkpt>
      <trkpt lat="45.82742" lon="3.05429">
        <ele>551</ele>
        <time>2021-05-22T11:08:27Z</time>
      </trkpt>
      <trkpt lat="45.8274" lon="3.05429">
        <ele>551</ele>
        <time>2021-05-22T11:08:28Z</time>
      </trkpt>
      <trkpt lat="45.82738" lon="3.05429">
        <ele>551</ele>
        <time>2021-05-22T11:08:29Z</time>
      </trkpt>
      <trkpt lat="45.82737" lon="3.05429">
        <ele>551</ele>
        <time>2021-05-22T11:08:30Z</time>
      </trkpt>
      <trkpt lat="45.82736" lon="3.05429">
        <ele>551</ele>
        <time>2021-05-22T11:08:31Z</time>
      </trkpt>
      <trkpt lat="45.82734" lon="3.05428">
        <ele>551</ele>
        <time>2021-05-22T11:08:32Z</time>
      </trkpt>
      <trkpt lat="45.82733" lon="3.05428">
        <ele>551</ele>
        <time>2021-05-22T11:08:33Z</time>
      </trkpt>
      <trkpt lat="45.82732" lon="3.05427">
        <ele>551</ele>
        <time>2021-05-22T11:08:34Z</time>
      </trkpt>
      <trkpt lat="45.82731" lon="3.05426">
        <ele>551</ele>
        <time>2021-05-22T11:08:35Z</time>
      </trkpt>
      <trkpt lat="45.8273" lon="3.05425">
        <ele>551</ele>
        <time>2021-05-22T11:08:36Z</time>
      </trkpt>
      <trkpt lat="45.82729" lon="3.05424">
        <ele>551</ele>
        <time>2021-05-22T11:08:37Z</time>
      </trkpt>
      <trkpt lat="45.82728" lon="3.05423">
        <ele>551</ele>
        <time>2021-05-22T11:08:38Z</time>
      </trkpt>
      <trkpt lat="45.82727" lon="3.05421">
        <ele>551</ele>
        <time>2021-05-22T11:08:39Z</time>
      </trkpt>
      <trkpt lat="45.82727" lon="3.0542">
        <ele>551</ele>
        <time>2021-05-22T11:08:40Z</time>
      </trkpt>
      <trkpt lat="45.82726" lon="3.05418">
        <ele>551</ele>
        <time>2021-05-22T11:08:41Z</time>
      </trkpt>
      <trkpt lat="45.82725" lon="3.05417">
        <ele>551</ele>
        <time>2021-05-22T11:08:42Z</time>
      </trkpt>
      <trkpt lat="45.82724" lon="3.05416">
        <ele>551</ele>
        <time>2021-05-22T11:08:43Z</time>
      </trkpt>
      <trkpt lat="45.82724" lon="3.05414">
        <ele>551</ele>
        <time>2021-05-22T11:08:44Z</time>
      </trkpt>
      <trkpt lat="45.82724" lon="3.05412">
        <ele>551</ele>
        <time>2021-05-22T11:08:45Z</time>
      </trkpt>
      <trkpt lat="45.82723" lon="3.0541">
        <ele>551</ele>
        <time>2021-05-22T11:08:46Z</time>
      </trkpt>
      <trkpt lat="45.82723" lon="3.05408">
        <ele>551</ele>
        <time>2021-05-22T11:08:47Z</time>
      </trkpt>
      <trkpt lat="45.82722" lon="3.05407">
        <ele>551</ele>
        <time>2021-05-22T11:08:48Z</time>
      </trkpt>
      <trkpt lat="45.82722" lon="3.05405">
        <ele>551</ele>
        <time>2021-05-22T11:08:49Z</time>
      </trkpt>
      <trkpt lat="45.82721" lon="3.05404">
        <ele>551</ele>
        <time>2021-05-22T11:08:50Z</time>
      </trkpt>
      <trkpt lat="45.82721" lon="3.05402">
        <ele>551</ele>
        <time>2021-05-22T11:08:51Z</time>
      </trkpt>
      <trkpt lat="45.82721" lon="3.054">
        <ele>551</ele>
        <time>2021-05-22T11:08:52Z</time>
      </trkpt>
      <trkpt lat="45.82719" lon="3.05398">
        <ele>551</ele>
        <time>2021-05-22T11:08:53Z</time>
      </trkpt>
      <trkpt lat="45.82718" lon="3.05396">
        <ele>551</ele>
        <time>2021-05-22T11:08:54Z</time>
      </trkpt>
      <trkpt lat="45.82718" lon="3.05394">
        <ele>551</ele>
        <time>2021-05-22T11:08:55Z</time>
      </trkpt>
      <trkpt lat="45.82716" lon="3.05393">
        <ele>551</ele>
        <time>2021-05-22T11:08:56Z</time>
      </trkpt>
      <trkpt lat="45.82715" lon="3.05387">
        <ele>551</ele>
        <time>2021-05-22T11:08:59Z</time>
      </trkpt>
      <trkpt lat="45.82714" lon="3.05386">
        <ele>551</ele>
        <time>2021-05-22T11:09:00Z</time>
      </trkpt>
      <trkpt lat="45.82714" lon="3.05384">
        <ele>551</ele>
        <time>2021-05-22T11:09:01Z</time>
      </trkpt>
      <trkpt lat="45.82713" lon="3.05381">
        <ele>551</ele>
        <time>2021-05-22T11:09:02Z</time>
      </trkpt>
      <trkpt lat="45.82713" lon="3.05378">
        <ele>551</ele>
        <time>2021-05-22T11:09:03Z</time>
      </trkpt>
      <trkpt lat="45.82713" lon="3.05375">
        <ele>551</ele>
        <time>2021-05-22T11:09:04Z</time>
      </trkpt>
      <trkpt lat="45.82712" lon="3.05372">
        <ele>551</ele>
        <time>2021-05-22T11:09:05Z</time>
      </trkpt>
      <trkpt lat="45.82712" lon="3.05369">
        <ele>551</ele>
        <time>2021-05-22T11:09:06Z</time>
      </trkpt>
      <trkpt lat="45.82712" lon="3.05366">
        <ele>551</ele>
        <time>2021-05-22T11:09:07Z</time>
      </trkpt>
      <trkpt lat="45.82712" lon="3.05364">
        <ele>551</ele>
        <time>2021-05-22T11:09:08Z</time>
      </trkpt>
      <trkpt lat="45.82712" lon="3.05362">
        <ele>551</ele>
        <time>2021-05-22T11:09:09Z</time>
      </trkpt>
      <trkpt lat="45.82712" lon="3.0536">
        <ele>551</ele>
        <time>2021-05-22T11:09:10Z</time>
      </trkpt>
      <trkpt lat="45.82712" lon="3.05358">
        <ele>551</ele>
        <time>2021-05-22T11:09:11Z</time>
      </trkpt>
      <trkpt lat="45.82712" lon="3.05356">
        <ele>551</ele>
        <time>2021-05-22T11:09:12Z</time>
      </trkpt>
      <trkpt lat="45.82712" lon="3.05354">
        <ele>551</ele>
        <time>2021-05-22T11:09:13Z</time>
      </trkpt>
      <trkpt lat="45.82712" lon="3.05352">
        <ele>551</ele>
        <time>2021-05-22T11:09:14Z</time>
      </trkpt>
      <trkpt lat="45.82713" lon="3.0535">
        <ele>551</ele>
        <time>2021-05-22T11:09:15Z</time>
      </trkpt>
      <trkpt lat="45.82713" lon="3.05348">
        <ele>551</ele>
        <time>2021-05-22T11:09:16Z</time>
      </trkpt>
      <trkpt lat="45.82713" lon="3.05346">
        <ele>551</ele>
        <time>2021-05-22T11:09:17Z</time>
      </trkpt>
      <trkpt lat="45.82714" lon="3.05344">
        <ele>551</ele>
        <time>2021-05-22T11:09:18Z</time>
      </trkpt>
      <trkpt lat="45.82715" lon="3.05342">
        <ele>551</ele>
        <time>2021-05-22T11:09:19Z</time>
      </trkpt>
      <trkpt lat="45.82715" lon="3.0534">
        <ele>551</ele>
        <time>2021-05-22T11:09:20Z</time>
      </trkpt>
      <trkpt lat="45.82715" lon="3.05338">
        <ele>551</ele>
        <time>2021-05-22T11:09:21Z</time>
      </trkpt>
      <trkpt lat="45.82715" lon="3.05336">
        <ele>551</ele>
        <time>2021-05-22T11:09:22Z</time>
      </trkpt>
      <trkpt lat="45.82715" lon="3.05334">
        <ele>551</ele>
        <time>2021-05-22T11:09:23Z</time>
      </trkpt>
      <trkpt lat="45.82716" lon="3.05332">
        <ele>551</ele>
        <time>2021-05-22T11:09:24Z</time>
      </trkpt>
      <trkpt lat="45.82716" lon="3.0533">
        <ele>551</ele>
        <time>2021-05-22T11:09:25Z</time>
      </trkpt>
      <trkpt lat="45.82716" lon="3.05328">
        <ele>551</ele>
        <time>2021-05-22T11:09:25Z</time>
      </trkpt>
      <trkpt lat="45.82716" lon="3.05326">
        <ele>551</ele>
        <time>2021-05-22T11:09:26Z</time>
      </trkpt>
      <trkpt lat="45.82716" lon="3.05325">
        <ele>551</ele>
        <time>2021-05-22T11:09:27Z</time>
      </trkpt>
      <trkpt lat="45.82717" lon="3.05323">
        <ele>551</ele>
        <time>2021-05-22T11:09:28Z</time>
      </trkpt>
      <trkpt lat="45.82718" lon="3.05321">
        <ele>551</ele>
        <time>2021-05-22T11:09:29Z</time>
      </trkpt>
      <trkpt lat="45.82718" lon="3.05319">
        <ele>551</ele>
        <time>2021-05-22T11:09:30Z</time>
      </trkpt>
      <trkpt lat="45.82719" lon="3.05317">
        <ele>551</ele>
        <time>2021-05-22T11:09:31Z</time>
      </trkpt>
      <trkpt lat="45.82719" lon="3.05315">
        <ele>551</ele>
        <time>2021-05-22T11:09:32Z</time>
      </trkpt>
      <trkpt lat="45.8272" lon="3.05313">
        <ele>551</ele>
        <time>2021-05-22T11:09:33Z</time>
      </trkpt>
      <trkpt lat="45.82721" lon="3.05311">
        <ele>551</ele>
        <time>2021-05-22T11:09:34Z</time>
      </trkpt>
      <trkpt lat="45.82721" lon="3.05309">
        <ele>551</ele>
        <time>2021-05-22T11:09:35Z</time>
      </trkpt>
      <trkpt lat="45.82722" lon="3.05307">
        <ele>551</ele>
        <time>2021-05-22T11:09:36Z</time>
      </trkpt>
      <trkpt lat="45.82722" lon="3.05305">
        <ele>551</ele>
        <time>2021-05-22T11:09:37Z</time>
      </trkpt>
      <trkpt lat="45.82723" lon="3.05302">
        <ele>551</ele>
        <time>2021-05-22T11:09:38Z</time>
      </trkpt>
      <trkpt lat="45.82723" lon="3.053">
        <ele>551</ele>
        <time>2021-05-22T11:09:39Z</time>
      </trkpt>
      <trkpt lat="45.82724" lon="3.05298">
        <ele>551</ele>
        <time>2021-05-22T11:09:40Z</time>
      </trkpt>
      <trkpt lat="45.82724" lon="3.05296">
        <ele>551</ele>
        <time>2021-05-22T11:09:41Z</time>
      </trkpt>
      <trkpt lat="45.82724" lon="3.05294">
        <ele>551</ele>
        <time>2021-05-22T11:09:42Z</time>
      </trkpt>
      <trkpt lat="45.82724" lon="3.05292">
        <ele>551</ele>
        <time>2021-05-22T11:09:43Z</time>
      </trkpt>
      <trkpt lat="45.82724" lon="3.0529">
        <ele>551</ele>
        <time>2021-05-22T11:09:44Z</time>
      </trkpt>
      <trkpt lat="45.82725" lon="3.05288">
        <ele>551</ele>
        <time>2021-05-22T11:09:45Z</time>
      </trkpt>
      <trkpt lat="45.82725" lon="3.05286">
        <ele>551</ele>
        <time>2021-05-22T11:09:46Z</time>
      </trkpt>
      <trkpt lat="45.82725" lon="3.05284">
        <ele>551</ele>
        <time>2021-05-22T11:09:47Z</time>
      </trkpt>
      <trkpt lat="45.82726" lon="3.05281">
        <ele>551</ele>
        <time>2021-05-22T11:09:48Z</time>
      </trkpt>
      <trkpt lat="45.82727" lon="3.0528">
        <ele>551</ele>
        <time>2021-05-22T11:09:49Z</time>
      </trkpt>
      <trkpt lat="45.82728" lon="3.05278">
        <ele>551</ele>
        <time>2021-05-22T11:09:50Z</time>
      </trkpt>
      <trkpt lat="45.82729" lon="3.05276">
        <ele>551</ele>
        <time>2021-05-22T11:09:51Z</time>
      </trkpt>
      <trkpt lat="45.8273" lon="3.05275">
        <ele>551</ele>
        <time>2021-05-22T11:09:52Z</time>
      </trkpt>
      <trkpt lat="45.82731" lon="3.05273">
        <ele>551</ele>
        <time>2021-05-22T11:09:53Z</time>
      </trkpt>
      <trkpt lat="45.82732" lon="3.05272">
        <ele>551</ele>
        <time>2021-05-22T11:09:54Z</time>
      </trkpt>
      <trkpt lat="45.82733" lon="3.0527">
        <ele>551</ele>
        <time>2021-05-22T11:09:55Z</time>
      </trkpt>
      <trkpt lat="45.82734" lon="3.05268">
        <ele>551</ele>
        <time>2021-05-22T11:09:56Z</time>
      </trkpt>
      <trkpt lat="45.82736" lon="3.05267">
        <ele>551</ele>
        <time>2021-05-22T11:09:57Z</time>
      </trkpt>
      <trkpt lat="45.82738" lon="3.05266">
        <ele>551</ele>
        <time>2021-05-22T11:09:58Z</time>
      </trkpt>
      <trkpt lat="45.8274" lon="3.05265">
        <ele>551</ele>
        <time>2021-05-22T11:09:59Z</time>
      </trkpt>
      <trkpt lat="45.82741" lon="3.05264">
        <ele>551</ele>
        <time>2021-05-22T11:10:00Z</time>
      </trkpt>
      <trkpt lat="45.82743" lon="3.05263">
        <ele>551</ele>
        <time>2021-05-22T11:10:01Z</time>
      </trkpt>
      <trkpt lat="45.82743" lon="3.05261">
        <ele>551</ele>
        <time>2021-05-22T11:10:02Z</time>
      </trkpt>
      <trkpt lat="45.82744" lon="3.0526">
        <ele>551</ele>
        <time>2021-05-22T11:10:03Z</time>
      </trkpt>
      <trkpt lat="45.82745" lon="3.05258">
        <ele>551</ele>
        <time>2021-05-22T11:10:04Z</time>
      </trkpt>
      <trkpt lat="45.82745" lon="3.05257">
        <ele>551</ele>
        <time>2021-05-22T11:10:05Z</time>
      </trkpt>
      <trkpt lat="45.82746" lon="3.05256">
        <ele>551</ele>
        <time>2021-05-22T11:10:06Z</time>
      </trkpt>
      <trkpt lat="45.82747" lon="3.05255">
        <ele>551</ele>
        <time>2021-05-22T11:10:07Z</time>
      </trkpt>
      <trkpt lat="45.82748" lon="3.05253">
        <ele>551</ele>
        <time>2021-05-22T11:10:08Z</time>
      </trkpt>
      <trkpt lat="45.82749" lon="3.05252">
        <ele>551</ele>
        <time>2021-05-22T11:10:09Z</time>
      </trkpt>
      <trkpt lat="45.8275" lon="3.05251">
        <ele>551</ele>
        <time>2021-05-22T11:10:10Z</time>
      </trkpt>
      <trkpt lat="45.82751" lon="3.05249">
        <ele>551</ele>
        <time>2021-05-22T11:10:11Z</time>
      </trkpt>
      <trkpt lat="45.82752" lon="3.05248">
        <ele>551</ele>
        <time>2021-05-22T11:10:12Z</time>
      </trkpt>
      <trkpt lat="45.82753" lon="3.05246">
        <ele>551</ele>
        <time>2021-05-22T11:10:13Z</time>
      </trkpt>
      <trkpt lat="45.82755" lon="3.05245">
        <ele>551</ele>
        <time>2021-05-22T11:10:14Z</time>
      </trkpt>
      <trkpt lat="45.82756" lon="3.05244">
        <ele>551</ele>
        <time>2021-05-22T11:10:15Z</time>
      </trkpt>
      <trkpt lat="45.82758" lon="3.05243">
        <ele>551</ele>
        <time>2021-05-22T11:10:16Z</time>
      </trkpt>
      <trkpt lat="45.82759" lon="3.05242">
        <ele>551</ele>
        <time>2021-05-22T11:10:17Z</time>
      </trkpt>
      <trkpt lat="45.82761" lon="3.0524">
        <ele>551</ele>
        <time>2021-05-22T11:10:18Z</time>
      </trkpt>
      <trkpt lat="45.82762" lon="3.05239">
        <ele>551</ele>
        <time>2021-05-22T11:10:19Z</time>
      </trkpt>
      <trkpt lat="45.82763" lon="3.05238">
        <ele>551</ele>
        <time>2021-05-22T11:10:20Z</time>
      </trkpt>
      <trkpt lat="45.82764" lon="3.05237">
        <ele>551</ele>
        <time>2021-05-22T11:10:21Z</time>
      </trkpt>
      <trkpt lat="45.82766" lon="3.05235">
        <ele>551</ele>
        <time>2021-05-22T11:10:22Z</time>
      </trkpt>
      <trkpt lat="45.82766" lon="3.05233">
        <ele>551</ele>
        <time>2021-05-22T11:10:23Z</time>
      </trkpt>
      <trkpt lat="45.82767" lon="3.0523">
        <ele>551</ele>
        <time>2021-05-22T11:10:24Z</time>
      </trkpt>
      <trkpt lat="45.82767" lon="3.05228">
        <ele>551</ele>
        <time>2021-05-22T11:10:25Z</time>
      </trkpt>
      <trkpt lat="45.82768" lon="3.05223">
        <ele>551</ele>
        <time>2021-05-22T11:10:27Z</time>
      </trkpt>
      <trkpt lat="45.82768" lon="3.05223">
        <ele>551</ele>
        <time>2021-05-22T11:10:28Z</time>
      </trkpt>
      <trkpt lat="45.82769" lon="3.05223">
        <ele>551</ele>
        <time>2021-05-22T11:10:29Z</time>
      </trkpt>
      <trkpt lat="45.82769" lon="3.05222">
        <ele>551</ele>
        <time>2021-05-22T11:10:30Z</time>
      </trkpt>
      <trkpt lat="45.8277" lon="3.05221">
        <ele>551</ele>
        <time>2021-05-22T11:10:31Z</time>
      </trkpt>
      <trkpt lat="45.8277" lon="3.0522">
        <ele>551</ele>
        <time>2021-05-22T11:10:32Z</time>
      </trkpt>
      <trkpt lat="45.82771" lon="3.05218">
        <ele>551</ele>
        <time>2021-05-22T11:10:33Z</time>
      </trkpt>
      <trkpt lat="45.82772" lon="3.05216">
        <ele>551</ele>
        <time>2021-05-22T11:10:34Z</time>
      </trkpt>
      <trkpt lat="45.82773" lon="3.05214">
        <ele>551</ele>
        <time>2021-05-22T11:10:35Z</time>
      </trkpt>
      <trkpt lat="45.82774" lon="3.05213">
        <ele>551</ele>
        <time>2021-05-22T11:10:36Z</time>
      </trkpt>
      <trkpt lat="45.82775" lon="3.05211">
        <ele>551</ele>
        <time>2021-05-22T11:10:37Z</time>
      </trkpt>
      <trkpt lat="45.82776" lon="3.05208">
        <ele>551</ele>
        <time>2021-05-22T11:10:38Z</time>
      </trkpt>
      <trkpt lat="45.82777" lon="3.05207">
        <ele>551</ele>
        <time>2021-05-22T11:10:39Z</time>
      </trkpt>
      <trkpt lat="45.82778" lon="3.05205">
        <ele>551</ele>
        <time>2021-05-22T11:10:40Z</time>
      </trkpt>
      <trkpt lat="45.82779" lon="3.05203">
        <ele>551</ele>
        <time>2021-05-22T11:10:41Z</time>
      </trkpt>
      <trkpt lat="45.82779" lon="3.05201">
        <ele>551</ele>
        <time>2021-05-22T11:10:42Z</time>
      </trkpt>
      <trkpt lat="45.8278" lon="3.05199">
        <ele>551</ele>
        <time>2021-05-22T11:10:43Z</time>
      </trkpt>
      <trkpt lat="45.82781" lon="3.05197">
        <ele>551</ele>
        <time>2021-05-22T11:10:44Z</time>
      </trkpt>
      <trkpt lat="45.82782" lon="3.05195">
        <ele>551</ele>
        <time>2021-05-22T11:10:45Z</time>
      </trkpt>
      <trkpt lat="45.82782" lon="3.05194">
        <ele>551</ele>
        <time>2021-05-22T11:10:46Z</time>
      </trkpt>
      <trkpt lat="45.82783" lon="3.05193">
        <ele>551</ele>
        <time>2021-05-22T11:10:47Z</time>
      </trkpt>
      <trkpt lat="45.82784" lon="3.05191">
        <ele>551</ele>
        <time>2021-05-22T11:10:48Z</time>
      </trkpt>
      <trkpt lat="45.82785" lon="3.05189">
        <ele>551</ele>
        <time>2021-05-22T11:10:50Z</time>
      </trkpt>
      <trkpt lat="45.82785" lon="3.05186">
        <ele>551</ele>
        <time>2021-05-22T11:10:51Z</time>
      </trkpt>
      <trkpt lat="45.82788" lon="3.05179">
        <ele>551</ele>
        <time>2021-05-22T11:10:54Z</time>
      </trkpt>
      <trkpt lat="45.82788" lon="3.05179">
        <ele>551</ele>
        <time>2021-05-22T11:10:55Z</time>
      </trkpt>
      <trkpt lat="45.82789" lon="3.05179">
        <ele>551</ele>
        <time>2021-05-22T11:10:56Z</time>
      </trkpt>
      <trkpt lat="45.8279" lon="3.05179">
        <ele>551</ele>
        <time>2021-05-22T11:10:57Z</time>
      </trkpt>
      <trkpt lat="45.8279" lon="3.05178">
        <ele>551</ele>
        <time>2021-05-22T11:10:58Z</time>
      </trkpt>
      <trkpt lat="45.82791" lon="3.05177">
        <ele>551</ele>
        <time>2021-05-22T11:10:59Z</time>
      </trkpt>
      <trkpt lat="45.82791" lon="3.05176">
        <ele>551</ele>
        <time>2021-05-22T11:11:00Z</time>
      </trkpt>
      <trkpt lat="45.82792" lon="3.05174">
        <ele>551</ele>
        <time>2021-05-22T11:11:01Z</time>
      </trkpt>
      <trkpt lat="45.82793" lon="3.05173">
        <ele>551</ele>
        <time>2021-05-22T11:11:02Z</time>
      </trkpt>
      <trkpt lat="45.82793" lon="3.05171">
        <ele>551</ele>
        <time>2021-05-22T11:11:03Z</time>
      </trkpt>
      <trkpt lat="45.82794" lon="3.05169">
        <ele>551</ele>
        <time>2021-05-22T11:11:04Z</time>
      </trkpt>
      <trkpt lat="45.82794" lon="3.05167">
        <ele>551</ele>
        <time>2021-05-22T11:11:05Z</time>
      </trkpt>
      <trkpt lat="45.82794" lon="3.05165">
        <ele>551</ele>
        <time>2021-05-22T11:11:06Z</time>
      </trkpt>
      <trkpt lat="45.82794" lon="3.05163">
        <ele>551</ele>
        <time>2021-05-22T11:11:07Z</time>
      </trkpt>
      <trkpt lat="45.82793" lon="3.0516">
        <ele>551</ele>
        <time>2021-05-22T11:11:08Z</time>
      </trkpt>
      <trkpt lat="45.82792" lon="3.05157">
        <ele>551</ele>
        <time>2021-05-22T11:11:09Z</time>
      </trkpt>
      <trkpt lat="45.82791" lon="3.05154">
        <ele>551</ele>
        <time>2021-05-22T11:11:10Z</time>
      </trkpt>
      <trkpt lat="45.8279" lon="3.05152">
        <ele>551</ele>
        <time>2021-05-22T11:11:11Z</time>
      </trkpt>
      <trkpt lat="45.82789" lon="3.0515">
        <ele>551</ele>
        <time>2021-05-22T11:11:12Z</time>
      </trkpt>
      <trkpt lat="45.82788" lon="3.05149">
        <ele>551</ele>
        <time>2021-05-22T11:11:13Z</time>
      </trkpt>
      <trkpt lat="45.82787" lon="3.05148">
        <ele>551</ele>
        <time>2021-05-22T11:11:14Z</time>
      </trkpt>
      <trkpt lat="45.82785" lon="3.05148">
        <ele>551</ele>
        <time>2021-05-22T11:11:15Z</time>
      </trkpt>
      <trkpt lat="45.82785" lon="3.05147">
        <ele>551</ele>
        <time>2021-05-22T11:11:16Z</time>
      </trkpt>
      <trkpt lat="45.82784" lon="3.05146">
        <ele>551</ele>
        <time>2021-05-22T11:11:17Z</time>
      </trkpt>
      <trkpt lat="45.82782" lon="3.05145">
        <ele>551</ele>
        <time>2021-05-22T11:11:18Z</time>
      </trkpt>
      <trkpt lat="45.82781" lon="3.05145">
        <ele>551</ele>
        <time>2021-05-22T11:11:19Z</time>
      </trkpt>
      <trkpt lat="45.82779" lon="3.05145">
        <ele>551</ele>
        <time>2021-05-22T11:11:20Z</time>
      </trkpt>
      <trkpt lat="45.82777" lon="3.05145">
        <ele>551</ele>
        <time>2021-05-22T11:11:21Z</time>
      </trkpt>
      <trkpt lat="45.82776" lon="3.05145">
        <ele>551</ele>
        <time>2021-05-22T11:11:22Z</time>
      </trkpt>
      <trkpt lat="45.82774" lon="3.05145">
        <ele>551</ele>
        <time>2021-05-22T11:11:23Z</time>
      </trkpt>
      <trkpt lat="45.82771" lon="3.05146">
        <ele>551</ele>
        <time>2021-05-22T11:11:24Z</time>
      </trkpt>
      <trkpt lat="45.82768" lon="3.05147">
        <ele>551</ele>
        <time>2021-05-22T11:11:25Z</time>
      </trkpt>
      <trkpt lat="45.82765" lon="3.05148">
        <ele>551</ele>
        <time>2021-05-22T11:11:26Z</time>
      </trkpt>
      <trkpt lat="45.82761" lon="3.05149">
        <ele>551</ele>
        <time>2021-05-22T11:11:27Z</time>
      </trkpt>
      <trkpt lat="45.82759" lon="3.0515">
        <ele>551</ele>
        <time>2021-05-22T11:11:28Z</time>
      </trkpt>
      <trkpt lat="45.82757" lon="3.05152">
        <ele>551</ele>
        <time>2021-05-22T11:11:29Z</time>
      </trkpt>
      <trkpt lat="45.82756" lon="3.05153">
        <ele>551</ele>
        <time>2021-05-22T11:11:30Z</time>
      </trkpt>
      <trkpt lat="45.82755" lon="3.05155">
        <ele>551</ele>
        <time>2021-05-22T11:11:31Z</time>
      </trkpt>
      <trkpt lat="45.82755" lon="3.05157">
        <ele>551</ele>
        <time>2021-05-22T11:11:32Z</time>
      </trkpt>
      <trkpt lat="45.82755" lon="3.0516">
        <ele>551</ele>
        <time>2021-05-22T11:11:33Z</time>
      </trkpt>
      <trkpt lat="45.82754" lon="3.05162">
        <ele>551</ele>
        <time>2021-05-22T11:11:34Z</time>
      </trkpt>
      <trkpt lat="45.82753" lon="3.05164">
        <ele>551</ele>
        <time>2021-05-22T11:11:35Z</time>
      </trkpt>
      <trkpt lat="45.82751" lon="3.05166">
        <ele>551</ele>
        <time>2021-05-22T11:11:36Z</time>
      </trkpt>
      <trkpt lat="45.82749" lon="3.05167">
        <ele>551</ele>
        <time>2021-05-22T11:11:37Z</time>
      </trkpt>
      <trkpt lat="45.82747" lon="3.05167">
        <ele>551</ele>
        <time>2021-05-22T11:11:38Z</time>
      </trkpt>
      <trkpt lat="45.82745" lon="3.05167">
        <ele>551</ele>
        <time>2021-05-22T11:11:39Z</time>
      </trkpt>
      <trkpt lat="45.82742" lon="3.05167">
        <ele>551</ele>
        <time>2021-05-22T11:11:40Z</time>
      </trkpt>
      <trkpt lat="45.8274" lon="3.05168">
        <ele>551</ele>
        <time>2021-05-22T11:11:41Z</time>
      </trkpt>
      <trkpt lat="45.82739" lon="3.05168">
        <ele>551</ele>
        <time>2021-05-22T11:11:42Z</time>
      </trkpt>
      <trkpt lat="45.82736" lon="3.0517">
        <ele>551</ele>
        <time>2021-05-22T11:11:43Z</time>
      </trkpt>
      <trkpt lat="45.82735" lon="3.05171">
        <ele>551</ele>
        <time>2021-05-22T11:11:44Z</time>
      </trkpt>
      <trkpt lat="45.82734" lon="3.05172">
        <ele>551</ele>
        <time>2021-05-22T11:11:45Z</time>
      </trkpt>
      <trkpt lat="45.82733" lon="3.05173">
        <ele>551</ele>
        <time>2021-05-22T11:11:46Z</time>
      </trkpt>
      <trkpt lat="45.82732" lon="3.05174">
        <ele>551</ele>
        <time>2021-05-22T11:11:47Z</time>
      </trkpt>
      <trkpt lat="45.82731" lon="3.05175">
        <ele>551</ele>
        <time>2021-05-22T11:11:48Z</time>
      </trkpt>
      <trkpt lat="45.8273" lon="3.05175">
        <ele>551</ele>
        <time>2021-05-22T11:11:49Z</time>
      </trkpt>
      <trkpt lat="45.8273" lon="3.05176">
        <ele>551</ele>
        <time>2021-05-22T11:11:50Z</time>
      </trkpt>
      <trkpt lat="45.82729" lon="3.05178">
        <ele>551</ele>
        <time>2021-05-22T11:11:51Z</time>
      </trkpt>
      <trkpt lat="45.82728" lon="3.05179">
        <ele>551</ele>
        <time>2021-05-22T11:11:52Z</time>
      </trkpt>
      <trkpt lat="45.82727" lon="3.0518">
        <ele>551</ele>
        <time>2021-05-22T11:11:53Z</time>
      </trkpt>
      <trkpt lat="45.82726" lon="3.0518">
        <ele>551</ele>
        <time>2021-05-22T11:11:54Z</time>
      </trkpt>
      <trkpt lat="45.82724" lon="3.05181">
        <ele>551</ele>
        <time>2021-05-22T11:11:55Z</time>
      </trkpt>
      <trkpt lat="45.82722" lon="3.05182">
        <ele>551</ele>
        <time>2021-05-22T11:11:56Z</time>
      </trkpt>
      <trkpt lat="45.8272" lon="3.05182">
        <ele>551</ele>
        <time>2021-05-22T11:11:57Z</time>
      </trkpt>
      <trkpt lat="45.82718" lon="3.05183">
        <ele>551</ele>
        <time>2021-05-22T11:11:58Z</time>
      </trkpt>
      <trkpt lat="45.82716" lon="3.05185">
        <ele>551</ele>
        <time>2021-05-22T11:11:59Z</time>
      </trkpt>
      <trkpt lat="45.82715" lon="3.05186">
        <ele>551</ele>
        <time>2021-05-22T11:12:00Z</time>
      </trkpt>
      <trkpt lat="45.82713" lon="3.05188">
        <ele>551</ele>
        <time>2021-05-22T11:12:01Z</time>
      </trkpt>
      <trkpt lat="45.82712" lon="3.05189">
        <ele>551</ele>
        <time>2021-05-22T11:12:02Z</time>
      </trkpt>
      <trkpt lat="45.82711" lon="3.05191">
        <ele>551</ele>
        <time>2021-05-22T11:12:03Z</time>
      </trkpt>
      <trkpt lat="45.8271" lon="3.05192">
        <ele>551</ele>
        <time>2021-05-22T11:12:04Z</time>
      </trkpt>
      <trkpt lat="45.82709" lon="3.05193">
        <ele>551</ele>
        <time>2021-05-22T11:12:05Z</time>
      </trkpt>
      <trkpt lat="45.82708" lon="3.05193">
        <ele>551</ele>
        <time>2021-05-22T11:12:06Z</time>
      </trkpt>
      <trkpt lat="45.82707" lon="3.05194">
        <ele>551</ele>
        <time>2021-05-22T11:12:07Z</time>
      </trkpt>
      <trkpt lat="45.82706" lon="3.05194">
        <ele>551</ele>
        <time>2021-05-22T11:12:08Z</time>
      </trkpt>
      <trkpt lat="45.82706" lon="3.05195">
        <ele>551</ele>
        <time>2021-05-22T11:12:09Z</time>
      </trkpt>
      <trkpt lat="45.82706" lon="3.05196">
        <ele>551</ele>
        <time>2021-05-22T11:12:10Z</time>
      </trkpt>
      <trkpt lat="45.82705" lon="3.05197">
        <ele>551</ele>
        <time>2021-05-22T11:12:11Z</time>
      </trkpt>
      <trkpt lat="45.82704" lon="3.05198">
        <ele>551</ele>
        <time>2021-05-22T11:12:12Z</time>
      </trkpt>
      <trkpt lat="45.82702" lon="3.05199">
        <ele>551</ele>
        <time>2021-05-22T11:12:13Z</time>
      </trkpt>
      <trkpt lat="45.827" lon="3.052">
        <ele>551</ele>
        <time>2021-05-22T11:12:14Z</time>
      </trkpt>
      <trkpt lat="45.82698" lon="3.05202">
        <ele>551</ele>
        <time>2021-05-22T11:12:15Z</time>
      </trkpt>
      <trkpt lat="45.82697" lon="3.05203">
        <ele>551</ele>
        <time>2021-05-22T11:12:16Z</time>
      </trkpt>
      <trkpt lat="45.82695" lon="3.05204">
        <ele>551</ele>
        <time>2021-05-22T11:12:17Z</time>
      </trkpt>
      <trkpt lat="45.82694" lon="3.05206">
        <ele>551</ele>
        <time>2021-05-22T11:12:18Z</time>
      </trkpt>
      <trkpt lat="45.82692" lon="3.05208">
        <ele>551</ele>
        <time>2021-05-22T11:12:19Z</time>
      </trkpt>
      <trkpt lat="45.82691" lon="3.0521">
        <ele>551</ele>
        <time>2021-05-22T11:12:20Z</time>
      </trkpt>
      <trkpt lat="45.8269" lon="3.05212">
        <ele>551</ele>
        <time>2021-05-22T11:12:21Z</time>
      </trkpt>
      <trkpt lat="45.82688" lon="3.05213">
        <ele>551</ele>
        <time>2021-05-22T11:12:22Z</time>
      </trkpt>
      <trkpt lat="45.82687" lon="3.05215">
        <ele>551</ele>
        <time>2021-05-22T11:12:23Z</time>
      </trkpt>
      <trkpt lat="45.82685" lon="3.05217">
        <ele>551</ele>
        <time>2021-05-22T11:12:24Z</time>
      </trkpt>
      <trkpt lat="45.82683" lon="3.05218">
        <ele>551</ele>
        <time>2021-05-22T11:12:25Z</time>
      </trkpt>
      <trkpt lat="45.82681" lon="3.05218">
        <ele>551</ele>
        <time>2021-05-22T11:12:26Z</time>
      </trkpt>
      <trkpt lat="45.82679" lon="3.05219">
        <ele>551</ele>
        <time>2021-05-22T11:12:27Z</time>
      </trkpt>
      <trkpt lat="45.82676" lon="3.0522">
        <ele>551</ele>
        <time>2021-05-22T11:12:28Z</time>
      </trkpt>
      <trkpt lat="45.82674" lon="3.05221">
        <ele>551</ele>
        <time>2021-05-22T11:12:29Z</time>
      </trkpt>
      <trkpt lat="45.82673" lon="3.05222">
        <ele>551</ele>
        <time>2021-05-22T11:12:30Z</time>
      </trkpt>
      <trkpt lat="45.82672" lon="3.05223">
        <ele>551</ele>
        <time>2021-05-22T11:12:31Z</time>
      </trkpt>
      <trkpt lat="45.82671" lon="3.05225">
        <ele>551</ele>
        <time>2021-05-22T11:12:32Z</time>
      </trkpt>
      <trkpt lat="45.82669" lon="3.05233">
        <ele>551</ele>
        <time>2021-05-22T11:12:37Z</time>
      </trkpt>
      <trkpt lat="45.82669" lon="3.05233">
        <ele>551</ele>
        <time>2021-05-22T11:12:38Z</time>
      </trkpt>
      <trkpt lat="45.82669" lon="3.05234">
        <ele>551</ele>
        <time>2021-05-22T11:12:39Z</time>
      </trkpt>
      <trkpt lat="45.82668" lon="3.05234">
        <ele>551</ele>
        <time>2021-05-22T11:12:40Z</time>
      </trkpt>
      <trkpt lat="45.82668" lon="3.05235">
        <ele>551</ele>
        <time>2021-05-22T11:12:41Z</time>
      </trkpt>
      <trkpt lat="45.82667" lon="3.05237">
        <ele>551</ele>
        <time>2021-05-22T11:12:43Z</time>
      </trkpt>
      <trkpt lat="45.82667" lon="3.0524">
        <ele>551</ele>
        <time>2021-05-22T11:12:45Z</time>
      </trkpt>
      <trkpt lat="45.82666" lon="3.05243">
        <ele>551</ele>
        <time>2021-05-22T11:12:47Z</time>
      </trkpt>
      <trkpt lat="45.82666" lon="3.05247">
        <ele>551</ele>
        <time>2021-05-22T11:12:49Z</time>
      </trkpt>
      <trkpt lat="45.82667" lon="3.05251">
        <ele>551</ele>
        <time>2021-05-22T11:12:51Z</time>
      </trkpt>
      <trkpt lat="45.82668" lon="3.05255">
        <ele>551</ele>
        <time>2021-05-22T11:12:53Z</time>
      </trkpt>
      <trkpt lat="45.82668" lon="3.05259">
        <ele>551</ele>
        <time>2021-05-22T11:12:55Z</time>
      </trkpt>
      <trkpt lat="45.82667" lon="3.05262">
        <ele>551</ele>
        <time>2021-05-22T11:12:57Z</time>
      </trkpt>
      <trkpt lat="45.82666" lon="3.05264">
        <ele>551</ele>
        <time>2021-05-22T11:12:59Z</time>
      </trkpt>
      <trkpt lat="45.82665" lon="3.05266">
        <ele>551</ele>
        <time>2021-05-22T11:13:01Z</time>
      </trkpt>
      <trkpt lat="45.82664" lon="3.05267">
        <ele>551</ele>
        <time>2021-05-22T11:13:03Z</time>
      </trkpt>
      <trkpt lat="45.82662" lon="3.05268">
        <ele>551</ele>
        <time>2021-05-22T11:13:05Z</time>
      </trkpt>
      <trkpt lat="45.82659" lon="3.05269">
        <ele>551</ele>
        <time>2021-05-22T11:13:07Z</time>
      </trkpt>
      <trkpt lat="45.82656" lon="3.05269">
        <ele>551</ele>
        <time>2021-05-22T11:13:09Z</time>
      </trkpt>
      <trkpt lat="45.82646" lon="3.05266">
        <ele>551</ele>
        <time>2021-05-22T11:13:13Z</time>
      </trkpt>
      <trkpt lat="45.82645" lon="3.05266">
        <ele>551</ele>
        <time>2021-05-22T11:13:15Z</time>
      </trkpt>
      <trkpt lat="45.82643" lon="3.05265">
        <ele>551</ele>
        <time>2021-05-22T11:13:17Z</time>
      </trkpt>
      <trkpt lat="45.82641" lon="3.05264">
        <ele>551</ele>
        <time>2021-05-22T11:13:19Z</time>
      </trkpt>
      <trkpt lat="45.82631" lon="3.05259">
        <ele>551</ele>
        <time>2021-05-22T11:13:23Z</time>
      </trkpt>
      <trkpt lat="45.82623" lon="3.05259">
        <ele>551</ele>
        <time>2021-05-22T11:13:27Z</time>
      </trkpt>
      <trkpt lat="45.82619" lon="3.05262">
        <ele>551</ele>
        <time>2021-05-22T11:13:33Z</time>
      </trkpt>
      <trkpt lat="45.82618" lon="3.05263">
        <ele>551</ele>
        <time>2021-05-22T11:13:35Z</time>
      </trkpt>
      <trkpt lat="45.82616" lon="3.05266">
        <ele>551</ele>
        <time>2021-05-22T11:13:37Z</time>
      </trkpt>
      <trkpt lat="45.82614" lon="3.05271">
        <ele>551</ele>
        <time>2021-05-22T11:13:39Z</time>
      </trkpt>
      <trkpt lat="45.82609" lon="3.05287">
        <ele>551</ele>
        <time>2021-05-22T11:13:42Z</time>
      </trkpt>
      <trkpt lat="45.82608" lon="3.05288">
        <ele>551</ele>
        <time>2021-05-22T11:13:44Z</time>
      </trkpt>
      <trkpt lat="45.82608" lon="3.05289">
        <ele>551</ele>
        <time>2021-05-22T11:13:46Z</time>
      </trkpt>
      <trkpt lat="45.82608" lon="3.05291">
        <ele>551</ele>
        <time>2021-05-22T11:13:48Z</time>
      </trkpt>
      <trkpt lat="45.82607" lon="3.05293">
        <ele>551</ele>
        <time>2021-05-22T11:13:50Z</time>
      </trkpt>
      <trkpt lat="45.82606" lon="3.05302">
        <ele>551</ele>
        <time>2021-05-22T11:13:54Z</time>
      </trkpt>
      <trkpt lat="45.82605" lon="3.05303">
        <ele>551</ele>
        <time>2021-05-22T11:13:56Z</time>
      </trkpt>
      <trkpt lat="45.82605" lon="3.05306">
        <ele>551</ele>
        <time>2021-05-22T11:13:58Z</time>
      </trkpt>
      <trkpt lat="45.82604" lon="3.05309">
        <ele>551</ele>
        <time>2021-05-22T11:14:00Z</time>
      </trkpt>
      <trkpt lat="45.82602" lon="3.05312">
        <ele>551</ele>
        <time>2021-05-22T11:14:02Z</time>
      </trkpt>
      <trkpt lat="45.82601" lon="3.05315">
        <ele>551</ele>
        <time>2021-05-22T11:14:04Z</time>
      </trkpt>
      <trkpt lat="45.82595" lon="3.05328">
        <ele>551</ele>
        <time>2021-05-22T11:14:10Z</time>
      </trkpt>
      <trkpt lat="45.82594" lon="3.05329">
        <ele>551</ele>
        <time>2021-05-22T11:14:12Z</time>
      </trkpt>
      <trkpt lat="45.82593" lon="3.0533">
        <ele>551</ele>
        <time>2021-05-22T11:14:14Z</time>
      </trkpt>
      <trkpt lat="45.82592" lon="3.05329">
        <ele>551</ele>
        <time>2021-05-22T11:14:16Z</time>
      </trkpt>
      <trkpt lat="45.82591" lon="3.05328">
        <ele>551</ele>
        <time>2021-05-22T11:14:18Z</time>
      </trkpt>
      <trkpt lat="45.82589" lon="3.05327">
        <ele>551</ele>
        <time>2021-05-22T11:14:20Z</time>
      </trkpt>
      <trkpt lat="45.82586" lon="3.05326">
        <ele>551</ele>
        <time>2021-05-22T11:14:22Z</time>
      </trkpt>
      <trkpt lat="45.82584" lon="3.05324">
        <ele>551</ele>
        <time>2021-05-22T11:14:24Z</time>
      </trkpt>
      <trkpt lat="45.82581" lon="3.05321">
        <ele>551</ele>
        <time>2021-05-22T11:14:26Z</time>
      </trkpt>
      <trkpt lat="45.82578" lon="3.05318">
        <ele>551</ele>
        <time>2021-05-22T11:14:28Z</time>
      </trkpt>
      <trkpt lat="45.82573" lon="3.05316">
        <ele>551</ele>
        <time>2021-05-22T11:14:30Z</time>
      </trkpt>
      <trkpt lat="45.8257" lon="3.05314">
        <ele>551</ele>
        <time>2021-05-22T11:14:32Z</time>
      </trkpt>
      <trkpt lat="45.82567" lon="3.05312">
        <ele>551</ele>
        <time>2021-05-22T11:14:34Z</time>
      </trkpt>
      <trkpt lat="45.82561" lon="3.05312">
        <ele>551</ele>
        <time>2021-05-22T11:14:42Z</time>
      </trkpt>
      <trkpt lat="45.8256" lon="3.05312">
        <ele>551</ele>
        <time>2021-05-22T11:14:46Z</time>
      </trkpt>
      <trkpt lat="45.82558" lon="3.05313">
        <ele>551</ele>
        <time>2021-05-22T11:14:48Z</time>
      </trkpt>
      <trkpt lat="45.82557" lon="3.05316">
        <ele>551</ele>
        <time>2021-05-22T11:14:50Z</time>
      </trkpt>
      <trkpt lat="45.82554" lon="3.0532">
        <ele>551</ele>
        <time>2021-05-22T11:14:52Z</time>
      </trkpt>
      <trkpt lat="45.82553" lon="3.05327">
        <ele>551</ele>
        <time>2021-05-22T11:14:54Z</time>
      </trkpt>
      <trkpt lat="45.82552" lon="3.05333">
        <ele>551</ele>
        <time>2021-05-22T11:14:56Z</time>
      </trkpt>
      <trkpt lat="45.82547" lon="3.05356">
        <ele>551</ele>
        <time>2021-05-22T11:15:02Z</time>
      </trkpt>
      <trkpt lat="45.82547" lon="3.05359">
        <ele>551</ele>
        <time>2021-05-22T11:15:06Z</time>
      </trkpt>
      <trkpt lat="45.82547" lon="3.05359">
        <ele>551</ele>
        <time>2021-05-22T11:15:08Z</time>
      </trkpt>
      <trkpt lat="45.82546" lon="3.05359">
        <ele>551</ele>
        <time>2021-05-22T11:15:10Z</time>
      </trkpt>
      <trkpt lat="45.82543" lon="3.05358">
        <ele>551</ele>
        <time>2021-05-22T11:15:12Z</time>
      </trkpt>
      <trkpt lat="45.8254" lon="3.05358">
        <ele>551</ele>
        <time>2021-05-22T11:15:14Z</time>
      </trkpt>
      <trkpt lat="45.82537" lon="3.0536">
        <ele>551</ele>
        <time>2021-05-22T11:15:16Z</time>
      </trkpt>
      <trkpt lat="45.82532" lon="3.05361">
        <ele>551</ele>
        <time>2021-05-22T11:15:18Z</time>
      </trkpt>
      <trkpt lat="45.82528" lon="3.05362">
        <ele>551</ele>
        <time>2021-05-22T11:15:20Z</time>
      </trkpt>
      <trkpt lat="45.82524" lon="3.05364">
        <ele>551</ele>
        <time>2021-05-22T11:15:22Z</time>
      </trkpt>
      <trkpt lat="45.82521" lon="3.05366">
        <ele>551</ele>
        <time>2021-05-22T11:15:24Z</time>
      </trkpt>
      <trkpt lat="45.82517" lon="3.05369">
        <ele>551</ele>
        <time>2021-05-22T11:15:26Z</time>
      </trkpt>
      <trkpt lat="45.82514" lon="3.05371">
        <ele>551</ele>
        <time>2021-05-22T11:15:28Z</time>
      </trkpt>
      <trkpt lat="45.82512" lon="3.05374">
        <ele>551</ele>
        <time>2021-05-22T11:15:30Z</time>
      </trkpt>
      <trkpt lat="45.82509" lon="3.05376">
        <ele>551</ele>
        <time>2021-05-22T11:15:32Z</time>
      </trkpt>
      <trkpt lat="45.82507" lon="3.05377">
        <ele>551</ele>
        <time>2021-05-22T11:15:34Z</time>
      </trkpt>
      <trkpt lat="45.82504" lon="3.05378">
        <ele>551</ele>
        <time>2021-05-22T11:15:36Z</time>
      </trkpt>
      <trkpt lat="45.82495" lon="3.05378">
        <ele>551</ele>
        <time>2021-05-22T11:15:40Z</time>
      </trkpt>
      <trkpt lat="45.82493" lon="3.05377">
        <ele>551</ele>
        <time>2021-05-22T11:15:42Z</time>
      </trkpt>
      <trkpt lat="45.82489" lon="3.0537">
        <ele>551</ele>
        <time>2021-05-22T11:15:46Z</time>
      </trkpt>
      <trkpt lat="45.82489" lon="3.05368">
        <ele>551</ele>
        <time>2021-05-22T11:15:48Z</time>
      </trkpt>
      <trkpt lat="45.82489" lon="3.05365">
        <ele>551</ele>
        <time>2021-05-22T11:15:50Z</time>
      </trkpt>
      <trkpt lat="45.82489" lon="3.05361">
        <ele>551</ele>
        <time>2021-05-22T11:15:52Z</time>
      </trkpt>
      <trkpt lat="45.82489" lon="3.05358">
        <ele>551</ele>
        <time>2021-05-22T11:15:54Z</time>
      </trkpt>
      <trkpt lat="45.82489" lon="3.05355">
        <ele>551</ele>
        <time>2021-05-22T11:15:56Z</time>
      </trkpt>
      <trkpt lat="45.82489" lon="3.05351">
        <ele>551</ele>
        <time>2021-05-22T11:15:58Z</time>
      </trkpt>
      <trkpt lat="45.82489" lon="3.05347">
        <ele>551</ele>
        <time>2021-05-22T11:16:00Z</time>
      </trkpt>
      <trkpt lat="45.82489" lon="3.05343">
        <ele>551</ele>
        <time>2021-05-22T11:16:02Z</time>
      </trkpt>
      <trkpt lat="45.82488" lon="3.05338">
        <ele>551</ele>
        <time>2021-05-22T11:16:04Z</time>
      </trkpt>
      <trkpt lat="45.82488" lon="3.05334">
        <ele>551</ele>
        <time>2021-05-22T11:16:06Z</time>
      </trkpt>
      <trkpt lat="45.82488" lon="3.05331">
        <ele>551</ele>
        <time>2021-05-22T11:16:08Z</time>
      </trkpt>
      <trkpt lat="45.82486" lon="3.05328">
        <ele>551</ele>
        <time>2021-05-22T11:16:10Z</time>
      </trkpt>
      <trkpt lat="45.82486" lon="3.05325">
        <ele>551</ele>
        <time>2021-05-22T11:16:12Z</time>
      </trkpt>
      <trkpt lat="45.82484" lon="3.05322">
        <ele>551</ele>
        <time>2021-05-22T11:16:14Z</time>
      </trkpt>
      <trkpt lat="45.82483" lon="3.0532">
        <ele>551</ele>
        <time>2021-05-22T11:16:16Z</time>
      </trkpt>
      <trkpt lat="45.82481" lon="3.05317">
        <ele>551</ele>
        <time>2021-05-22T11:16:18Z</time>
      </trkpt>
      <trkpt lat="45.8248" lon="3.05314">
        <ele>551</ele>
        <time>2021-05-22T11:16:20Z</time>
      </trkpt>
      <trkpt lat="45.82478" lon="3.05311">
        <ele>551</ele>
        <time>2021-05-22T11:16:22Z</time>
      </trkpt>
      <trkpt lat="45.82477" lon="3.05308">
        <ele>551</ele>
        <time>2021-05-22T11:16:24Z</time>
      </trkpt>
      <trkpt lat="45.82472" lon="3.05296">
        <ele>551</ele>
        <time>2021-05-22T11:16:28Z</time>
      </trkpt>
      <trkpt lat="45.82471" lon="3.0529">
        <ele>551</ele>
        <time>2021-05-22T11:16:32Z</time>
      </trkpt>
      <trkpt lat="45.8247" lon="3.0529">
        <ele>551</ele>
        <time>2021-05-22T11:16:34Z</time>
      </trkpt>
      <trkpt lat="45.82465" lon="3.05281">
        <ele>551</ele>
        <time>2021-05-22T11:16:42Z</time>
      </trkpt>
      <trkpt lat="45.82464" lon="3.05279">
        <ele>551</ele>
        <time>2021-05-22T11:16:44Z</time>
      </trkpt>
      <trkpt lat="45.82462" lon="3.05277">
        <ele>551</ele>
        <time>2021-05-22T11:16:46Z</time>
      </trkpt>
      <trkpt lat="45.8246" lon="3.05274">
        <ele>551</ele>
        <time>2021-05-22T11:16:48Z</time>
      </trkpt>
      <trkpt lat="45.82459" lon="3.0527">
        <ele>551</ele>
        <time>2021-05-22T11:16:50Z</time>
      </trkpt>
      <trkpt lat="45.82456" lon="3.05268">
        <ele>551</ele>
        <time>2021-05-22T11:16:52Z</time>
      </trkpt>
      <trkpt lat="45.82455" lon="3.05266">
        <ele>551</ele>
        <time>2021-05-22T11:16:54Z</time>
      </trkpt>
      <trkpt lat="45.82452" lon="3.05263">
        <ele>551</ele>
        <time>2021-05-22T11:16:56Z</time>
      </trkpt>
      <trkpt lat="45.82447" lon="3.05261">
        <ele>551</ele>
        <time>2021-05-22T11:16:58Z</time>
      </trkpt>
      <trkpt lat="45.82444" lon="3.05257">
        <ele>551</ele>
        <time>2021-05-22T11:17:00Z</time>
      </trkpt>
      <trkpt lat="45.82439" lon="3.05253">
        <ele>551</ele>
        <time>2021-05-22T11:17:02Z</time>
      </trkpt>
      <trkpt lat="45.82436" lon="3.05251">
        <ele>551</ele>
        <time>2021-05-22T11:17:04Z</time>
      </trkpt>
      <trkpt lat="45.82433" lon="3.05249">
        <ele>551</ele>
        <time>2021-05-22T11:17:06Z</time>
      </trkpt>
      <trkpt lat="45.8243" lon="3.05247">
        <ele>551</ele>
        <time>2021-05-22T11:17:08Z</time>
      </trkpt>
      <trkpt lat="45.82427" lon="3.05245">
        <ele>551</ele>
        <time>2021-05-22T11:17:10Z</time>
      </trkpt>
      <trkpt lat="45.82423" lon="3.05244">
        <ele>551</ele>
        <time>2021-05-22T11:17:12Z</time>
      </trkpt>
      <trkpt lat="45.8242" lon="3.05243">
        <ele>551</ele>
        <time>2021-05-22T11:17:14Z</time>
      </trkpt>
      <trkpt lat="45.82417" lon="3.05242">
        <ele>551</ele>
        <time>2021-05-22T11:17:16Z</time>
      </trkpt>
      <trkpt lat="45.82414" lon="3.05241">
        <ele>551</ele>
        <time>2021-05-22T11:17:18Z</time>
      </trkpt>
      <trkpt lat="45.8241" lon="3.0524">
        <ele>551</ele>
        <time>2021-05-22T11:17:20Z</time>
      </trkpt>
      <trkpt lat="45.82407" lon="3.05238">
        <ele>551</ele>
        <time>2021-05-22T11:17:22Z</time>
      </trkpt>
      <trkpt lat="45.82404" lon="3.05237">
        <ele>551</ele>
        <time>2021-05-22T11:17:24Z</time>
      </trkpt>
      <trkpt lat="45.82401" lon="3.05235">
        <ele>551</ele>
        <time>2021-05-22T11:17:26Z</time>
      </trkpt>
      <trkpt lat="45.82399" lon="3.05235">
        <ele>551</ele>
        <time>2021-05-22T11:17:28Z</time>
      </trkpt>
      <trkpt lat="45.82393" lon="3.05229">
        <ele>551</ele>
        <time>2021-05-22T11:17:32Z</time>
      </trkpt>
      <trkpt lat="45.82393" lon="3.05227">
        <ele>551</ele>
        <time>2021-05-22T11:17:34Z</time>
      </trkpt>
      <trkpt lat="45.82393" lon="3.05224">
        <ele>551</ele>
        <time>2021-05-22T11:17:36Z</time>
      </trkpt>
      <trkpt lat="45.82394" lon="3.0522">
        <ele>551</ele>
        <time>2021-05-22T11:17:38Z</time>
      </trkpt>
      <trkpt lat="45.82396" lon="3.05216">
        <ele>551</ele>
        <time>2021-05-22T11:17:40Z</time>
      </trkpt>
      <trkpt lat="45.82397" lon="3.05212">
        <ele>551</ele>
        <time>2021-05-22T11:17:42Z</time>
      </trkpt>
      <trkpt lat="45.82398" lon="3.05207">
        <ele>551</ele>
        <time>2021-05-22T11:17:44Z</time>
      </trkpt>
      <trkpt lat="45.82399" lon="3.05203">
        <ele>551</ele>
        <time>2021-05-22T11:17:46Z</time>
      </trkpt>
      <trkpt lat="45.824" lon="3.05199">
        <ele>551</ele>
        <time>2021-05-22T11:17:48Z</time>
      </trkpt>
      <trkpt lat="45.82401" lon="3.05195">
        <ele>551</ele>
        <time>2021-05-22T11:17:50Z</time>
      </trkpt>
      <trkpt lat="45.82402" lon="3.05191">
        <ele>551</ele>
        <time>2021-05-22T11:17:52Z</time>
      </trkpt>
      <trkpt lat="45.82405" lon="3.05189">
        <ele>551</ele>
        <time>2021-05-22T11:17:54Z</time>
      </trkpt>
      <trkpt lat="45.82407" lon="3.05185">
        <ele>551</ele>
        <time>2021-05-22T11:17:55Z</time>
      </trkpt>
      <trkpt lat="45.82408" lon="3.05181">
        <ele>551</ele>
        <time>2021-05-22T11:17:57Z</time>
      </trkpt>
      <trkpt lat="45.8241" lon="3.05178">
        <ele>551</ele>
        <time>2021-05-22T11:17:59Z</time>
      </trkpt>
      <trkpt lat="45.82412" lon="3.05174">
        <ele>551</ele>
        <time>2021-05-22T11:18:01Z</time>
      </trkpt>
      <trkpt lat="45.82414" lon="3.0517">
        <ele>551</ele>
        <time>2021-05-22T11:18:03Z</time>
      </trkpt>
      <trkpt lat="45.82416" lon="3.05168">
        <ele>551</ele>
        <time>2021-05-22T11:18:05Z</time>
      </trkpt>
      <trkpt lat="45.82418" lon="3.05164">
        <ele>551</ele>
        <time>2021-05-22T11:18:07Z</time>
      </trkpt>
      <trkpt lat="45.8242" lon="3.05161">
        <ele>551</ele>
        <time>2021-05-22T11:18:09Z</time>
      </trkpt>
      <trkpt lat="45.82421" lon="3.05157">
        <ele>551</ele>
        <time>2021-05-22T11:18:11Z</time>
      </trkpt>
      <trkpt lat="45.82423" lon="3.05154">
        <ele>551</ele>
        <time>2021-05-22T11:18:13Z</time>
      </trkpt>
      <trkpt lat="45.82425" lon="3.05151">
        <ele>551</ele>
        <time>2021-05-22T11:18:15Z</time>
      </trkpt>
      <trkpt lat="45.82426" lon="3.05149">
        <ele>551</ele>
        <time>2021-05-22T11:18:17Z</time>
      </trkpt>
      <trkpt lat="45.82428" lon="3.05145">
        <ele>551</ele>
        <time>2021-05-22T11:18:19Z</time>
      </trkpt>
      <trkpt lat="45.82431" lon="3.05142">
        <ele>551</ele>
        <time>2021-05-22T11:18:21Z</time>
      </trkpt>
      <trkpt lat="45.82432" lon="3.05139">
        <ele>551</ele>
        <time>2021-05-22T11:18:23Z</time>
      </trkpt>
      <trkpt lat="45.82435" lon="3.05135">
        <ele>551</ele>
        <time>2021-05-22T11:18:25Z</time>
      </trkpt>
      <trkpt lat="45.82438" lon="3.05131">
        <ele>551</ele>
        <time>2021-05-22T11:18:27Z</time>
      </trkpt>
      <trkpt lat="45.82439" lon="3.05128">
        <ele>551</ele>
        <time>2021-05-22T11:18:29Z</time>
      </trkpt>
      <trkpt lat="45.82441" lon="3.05125">
        <ele>551</ele>
        <time>2021-05-22T11:18:31Z</time>
      </trkpt>
      <trkpt lat="45.82444" lon="3.05122">
        <ele>551</ele>
        <time>2021-05-22T11:18:33Z</time>
      </trkpt>
      <trkpt lat="45.82446" lon="3.0512">
        <ele>551</ele>
        <time>2021-05-22T11:18:35Z</time>
      </trkpt>
      <trkpt lat="45.82448" lon="3.05116">
        <ele>551</ele>
        <time>2021-05-22T11:18:37Z</time>
      </trkpt>
      <trkpt lat="45.8245" lon="3.05113">
        <ele>551</ele>
        <time>2021-05-22T11:18:39Z</time>
      </trkpt>
      <trkpt lat="45.82452" lon="3.0511">
        <ele>551</ele>
        <time>2021-05-22T11:18:41Z</time>
      </trkpt>
      <trkpt lat="45.82454" lon="3.05107">
        <ele>551</ele>
        <time>2021-05-22T11:18:43Z</time>
      </trkpt>
      <trkpt lat="45.82456" lon="3.05104">
        <ele>551</ele>
        <time>2021-05-22T11:18:45Z</time>
      </trkpt>
      <trkpt lat="45.82459" lon="3.05102">
        <ele>551</ele>
        <time>2021-05-22T11:18:47Z</time>
      </trkpt>
      <trkpt lat="45.82461" lon="3.05099">
        <ele>551</ele>
        <time>2021-05-22T11:18:49Z</time>
      </trkpt>
      <trkpt lat="45.82464" lon="3.05097">
        <ele>551</ele>
        <time>2021-05-22T11:18:51Z</time>
      </trkpt>
      <trkpt lat="45.82465" lon="3.05095">
        <ele>551</ele>
        <time>2021-05-22T11:18:53Z</time>
      </trkpt>
      <trkpt lat="45.82468" lon="3.05091">
        <ele>551</ele>
        <time>2021-05-22T11:18:55Z</time>
      </trkpt>
      <trkpt lat="45.8247" lon="3.05089">
        <ele>551</ele>
        <time>2021-05-22T11:18:57Z</time>
      </trkpt>
      <trkpt lat="45.82473" lon="3.05086">
        <ele>551</ele>
        <time>2021-05-22T11:18:59Z</time>
      </trkpt>
      <trkpt lat="45.82477" lon="3.05083">
        <ele>551</ele>
        <time>2021-05-22T11:19:01Z</time>
      </trkpt>
      <trkpt lat="45.82486" lon="3.05076">
        <ele>551</ele>
        <time>2021-05-22T11:19:07Z</time>
      </trkpt>
      <trkpt lat="45.82487" lon="3.05075">
        <ele>551</ele>
        <time>2021-05-22T11:19:09Z</time>
      </trkpt>
      <trkpt lat="45.82488" lon="3.05074">
        <ele>551</ele>
        <time>2021-05-22T11:19:11Z</time>
      </trkpt>
      <trkpt lat="45.82493" lon="3.05068">
        <ele>551</ele>
        <time>2021-05-22T11:19:15Z</time>
      </trkpt>
      <trkpt lat="45.82494" lon="3.05066">
        <ele>551</ele>
        <time>2021-05-22T11:19:17Z</time>
      </trkpt>
      <trkpt lat="45.82496" lon="3.05063">
        <ele>551</ele>
        <time>2021-05-22T11:19:19Z</time>
      </trkpt>
      <trkpt lat="45.82499" lon="3.05059">
        <ele>551</ele>
        <time>2021-05-22T11:19:21Z</time>
      </trkpt>
      <trkpt lat="45.82508" lon="3.05048">
        <ele>551</ele>
        <time>2021-05-22T11:19:25Z</time>
      </trkpt>
      <trkpt lat="45.82508" lon="3.05047">
        <ele>551</ele>
        <time>2021-05-22T11:19:27Z</time>
      </trkpt>
      <trkpt lat="45.82507" lon="3.05046">
        <ele>551</ele>
        <time>2021-05-22T11:19:29Z</time>
      </trkpt>
      <trkpt lat="45.82507" lon="3.05043">
        <ele>551</ele>
        <time>2021-05-22T11:19:31Z</time>
      </trkpt>
      <trkpt lat="45.82508" lon="3.05041">
        <ele>551</ele>
        <time>2021-05-22T11:19:33Z</time>
      </trkpt>
      <trkpt lat="45.82509" lon="3.0504">
        <ele>551</ele>
        <time>2021-05-22T11:19:35Z</time>
      </trkpt>
      <trkpt lat="45.82512" lon="3.05039">
        <ele>551</ele>
        <time>2021-05-22T11:19:37Z</time>
      </trkpt>
      <trkpt lat="45.82515" lon="3.05038">
        <ele>551</ele>
        <time>2021-05-22T11:19:39Z</time>
      </trkpt>
      <trkpt lat="45.82519" lon="3.05037">
        <ele>551</ele>
        <time>2021-05-22T11:19:41Z</time>
      </trkpt>
      <trkpt lat="45.82522" lon="3.05034">
        <ele>551</ele>
        <time>2021-05-22T11:19:43Z</time>
      </trkpt>
      <trkpt lat="45.82525" lon="3.05032">
        <ele>551</ele>
        <time>2021-05-22T11:19:45Z</time>
      </trkpt>
      <trkpt lat="45.82526" lon="3.05028">
        <ele>551</ele>
        <time>2021-05-22T11:19:47Z</time>
      </trkpt>
      <trkpt lat="45.82528" lon="3.05024">
        <ele>551</ele>
        <time>2021-05-22T11:19:49Z</time>
      </trkpt>
      <trkpt lat="45.82528" lon="3.0502">
        <ele>551</ele>
        <time>2021-05-22T11:19:51Z</time>
      </trkpt>
      <trkpt lat="45.82529" lon="3.05015">
        <ele>551</ele>
        <time>2021-05-22T11:19:53Z</time>
      </trkpt>
      <trkpt lat="45.82529" lon="3.05011">
        <ele>551</ele>
        <time>2021-05-22T11:19:55Z</time>
      </trkpt>
      <trkpt lat="45.82529" lon="3.05008">
        <ele>551</ele>
        <time>2021-05-22T11:19:56Z</time>
      </trkpt>
      <trkpt lat="45.82529" lon="3.05005">
        <ele>551</ele>
        <time>2021-05-22T11:19:58Z</time>
      </trkpt>
      <trkpt lat="45.82529" lon="3.05001">
        <ele>551</ele>
        <time>2021-05-22T11:20:00Z</time>
      </trkpt>
      <trkpt lat="45.82529" lon="3.04998">
        <ele>551</ele>
        <time>2021-05-22T11:20:02Z</time>
      </trkpt>
      <trkpt lat="45.82528" lon="3.04994">
        <ele>551</ele>
        <time>2021-05-22T11:20:04Z</time>
      </trkpt>
      <trkpt lat="45.82528" lon="3.04989">
        <ele>551</ele>
        <time>2021-05-22T11:20:06Z</time>
      </trkpt>
      <trkpt lat="45.82525" lon="3.04986">
        <ele>551</ele>
        <time>2021-05-22T11:20:08Z</time>
      </trkpt>
      <trkpt lat="45.82514" lon="3.04975">
        <ele>551</ele>
        <time>2021-05-22T11:20:12Z</time>
      </trkpt>
      <trkpt lat="45.82514" lon="3.04975">
        <ele>551</ele>
        <time>2021-05-22T11:20:14Z</time>
      </trkpt>
      <trkpt lat="45.82512" lon="3.04974">
        <ele>551</ele>
        <time>2021-05-22T11:20:18Z</time>
      </trkpt>
      <trkpt lat="45.82509" lon="3.04972">
        <ele>551</ele>
        <time>2021-05-22T11:20:22Z</time>
      </trkpt>
      <trkpt lat="45.82508" lon="3.04973">
        <ele>551</ele>
        <time>2021-05-22T11:20:24Z</time>
      </trkpt>
      <trkpt lat="45.82507" lon="3.04973">
        <ele>551</ele>
        <time>2021-05-22T11:20:26Z</time>
      </trkpt>
      <trkpt lat="45.82504" lon="3.04972">
        <ele>551</ele>
        <time>2021-05-22T11:20:28Z</time>
      </trkpt>
      <trkpt lat="45.82501" lon="3.04971">
        <ele>551</ele>
        <time>2021-05-22T11:20:30Z</time>
      </trkpt>
      <trkpt lat="45.82497" lon="3.0497">
        <ele>551</ele>
        <time>2021-05-22T11:20:32Z</time>
      </trkpt>
      <trkpt lat="45.82494" lon="3.04969">
        <ele>551</ele>
        <time>2021-05-22T11:20:34Z</time>
      </trkpt>
      <trkpt lat="45.82486" lon="3.04964">
        <ele>551</ele>
        <time>2021-05-22T11:20:38Z</time>
      </trkpt>
      <trkpt lat="45.82485" lon="3.04963">
        <ele>551</ele>
        <time>2021-05-22T11:20:40Z</time>
      </trkpt>
      <trkpt lat="45.82479" lon="3.04957">
        <ele>551</ele>
        <time>2021-05-22T11:20:46Z</time>
      </trkpt>
      <trkpt lat="45.82477" lon="3.04956">
        <ele>551</ele>
        <time>2021-05-22T11:20:48Z</time>
      </trkpt>
      <trkpt lat="45.82475" lon="3.04956">
        <ele>551</ele>
        <time>2021-05-22T11:20:50Z</time>
      </trkpt>
      <trkpt lat="45.82472" lon="3.04955">
        <ele>551</ele>
        <time>2021-05-22T11:20:52Z</time>
      </trkpt>
      <trkpt lat="45.8247" lon="3.04953">
        <ele>551</ele>
        <time>2021-05-22T11:20:54Z</time>
      </trkpt>
      <trkpt lat="45.82467" lon="3.04952">
        <ele>551</ele>
        <time>2021-05-22T11:20:56Z</time>
      </trkpt>
      <trkpt lat="45.82464" lon="3.04951">
        <ele>551</ele>
        <time>2021-05-22T11:20:58Z</time>
      </trkpt>
      <trkpt lat="45.82462" lon="3.0495">
        <ele>551</ele>
        <time>2021-05-22T11:21:00Z</time>
      </trkpt>
      <trkpt lat="45.82459" lon="3.04949">
        <ele>551</ele>
        <time>2021-05-22T11:21:02Z</time>
      </trkpt>
      <trkpt lat="45.82456" lon="3.04947">
        <ele>551</ele>
        <time>2021-05-22T11:21:04Z</time>
      </trkpt>
      <trkpt lat="45.82452" lon="3.04946">
        <ele>551</ele>
        <time>2021-05-22T11:21:06Z</time>
      </trkpt>
      <trkpt lat="45.82449" lon="3.04945">
        <ele>551</ele>
        <time>2021-05-22T11:21:08Z</time>
      </trkpt>
      <trkpt lat="45.82445" lon="3.04944">
        <ele>551</ele>
        <time>2021-05-22T11:21:10Z</time>
      </trkpt>
      <trkpt lat="45.82443" lon="3.04943">
        <ele>551</ele>
        <time>2021-05-22T11:21:12Z</time>
      </trkpt>
      <trkpt lat="45.8244" lon="3.04943">
        <ele>551</ele>
        <time>2021-05-22T11:21:14Z</time>
      </trkpt>
      <trkpt lat="45.82437" lon="3.04943">
        <ele>551</ele>
        <time>2021-05-22T11:21:16Z</time>
      </trkpt>
      <trkpt lat="45.82434" lon="3.04942">
        <ele>551</ele>
        <time>2021-05-22T11:21:18Z</time>
      </trkpt>
      <trkpt lat="45.8243" lon="3.04942">
        <ele>551</ele>
        <time>2021-05-22T11:21:20Z</time>
      </trkpt>
      <trkpt lat="45.82427" lon="3.04942">
        <ele>551</ele>
        <time>2021-05-22T11:21:22Z</time>
      </trkpt>
      <trkpt lat="45.82423" lon="3.04941">
        <ele>551</ele>
        <time>2021-05-22T11:21:24Z</time>
      </trkpt>
      <trkpt lat="45.8242" lon="3.04941">
        <ele>551</ele>
        <time>2021-05-22T11:21:26Z</time>
      </trkpt>
      <trkpt lat="45.82417" lon="3.04941">
        <ele>551</ele>
        <time>2021-05-22T11:21:28Z</time>
      </trkpt>
      <trkpt lat="45.82414" lon="3.04941">
        <ele>551</ele>
        <time>2021-05-22T11:21:30Z</time>
      </trkpt>
      <trkpt lat="45.8241" lon="3.04941">
        <ele>551</ele>
        <time>2021-05-22T11:21:32Z</time>
      </trkpt>
      <trkpt lat="45.82407" lon="3.04941">
        <ele>551</ele>
        <time>2021-05-22T11:21:34Z</time>
      </trkpt>
      <trkpt lat="45.82404" lon="3.0494">
        <ele>551</ele>
        <time>2021-05-22T11:21:36Z</time>
      </trkpt>
      <trkpt lat="45.82401" lon="3.0494">
        <ele>551</ele>
        <time>2021-05-22T11:21:38Z</time>
      </trkpt>
      <trkpt lat="45.82398" lon="3.0494">
        <ele>551</ele>
        <time>2021-05-22T11:21:40Z</time>
      </trkpt>
      <trkpt lat="45.82394" lon="3.04941">
        <ele>551</ele>
        <time>2021-05-22T11:21:42Z</time>
      </trkpt>
      <trkpt lat="45.82392" lon="3.04941">
        <ele>551</ele>
        <time>2021-05-22T11:21:44Z</time>
      </trkpt>
      <trkpt lat="45.82389" lon="3.04941">
        <ele>551</ele>
        <time>2021-05-22T11:21:46Z</time>
      </trkpt>
      <trkpt lat="45.82387" lon="3.04941">
        <ele>551</ele>
        <time>2021-05-22T11:21:48Z</time>
      </trkpt>
      <trkpt lat="45.82384" lon="3.04941">
        <ele>551</ele>
        <time>2021-05-22T11:21:50Z</time>
      </trkpt>
      <trkpt lat="45.82381" lon="3.04941">
        <ele>551</ele>
        <time>2021-05-22T11:21:52Z</time>
      </trkpt>
      <trkpt lat="45.8238" lon="3.04941">
        <ele>551</ele>
        <time>2021-05-22T11:21:54Z</time>
      </trkpt>
      <trkpt lat="45.82377" lon="3.04941">
        <ele>551</ele>
        <time>2021-05-22T11:21:56Z</time>
      </trkpt>
      <trkpt lat="45.82375" lon="3.04942">
        <ele>551</ele>
        <time>2021-05-22T11:21:58Z</time>
      </trkpt>
      <trkpt lat="45.82372" lon="3.04942">
        <ele>551</ele>
        <time>2021-05-22T11:22:00Z</time>
      </trkpt>
      <trkpt lat="45.82369" lon="3.04943">
        <ele>551</ele>
        <time>2021-05-22T11:22:02Z</time>
      </trkpt>
      <trkpt lat="45.82366" lon="3.04944">
        <ele>551</ele>
        <time>2021-05-22T11:22:04Z</time>
      </trkpt>
      <trkpt lat="45.82364" lon="3.04946">
        <ele>551</ele>
        <time>2021-05-22T11:22:06Z</time>
      </trkpt>
      <trkpt lat="45.82361" lon="3.04947">
        <ele>551</ele>
        <time>2021-05-22T11:22:08Z</time>
      </trkpt>
      <trkpt lat="45.82359" lon="3.04949">
        <ele>551</ele>
        <time>2021-05-22T11:22:10Z</time>
      </trkpt>
      <trkpt lat="45.82357" lon="3.04951">
        <ele>551</ele>
        <time>2021-05-22T11:22:11Z</time>
      </trkpt>
      <trkpt lat="45.82355" lon="3.04953">
        <ele>551</ele>
        <time>2021-05-22T11:22:13Z</time>
      </trkpt>
      <trkpt lat="45.82353" lon="3.04955">
        <ele>551</ele>
        <time>2021-05-22T11:22:15Z</time>
      </trkpt>
      <trkpt lat="45.82351" lon="3.04957">
        <ele>551</ele>
        <time>2021-05-22T11:22:17Z</time>
      </trkpt>
      <trkpt lat="45.82348" lon="3.04959">
        <ele>551</ele>
        <time>2021-05-22T11:22:19Z</time>
      </trkpt>
      <trkpt lat="45.82345" lon="3.04961">
        <ele>551</ele>
        <time>2021-05-22T11:22:21Z</time>
      </trkpt>
      <trkpt lat="45.82342" lon="3.04963">
        <ele>551</ele>
        <time>2021-05-22T11:22:23Z</time>
      </trkpt>
      <trkpt lat="45.82339" lon="3.04965">
        <ele>551</ele>
        <time>2021-05-22T11:22:25Z</time>
      </trkpt>
      <trkpt lat="45.82336" lon="3.04967">
        <ele>551</ele>
        <time>2021-05-22T11:22:27Z</time>
      </trkpt>
      <trkpt lat="45.82333" lon="3.04968">
        <ele>551</ele>
        <time>2021-05-22T11:22:29Z</time>
      </trkpt>
      <trkpt lat="45.8233" lon="3.04969">
        <ele>551</ele>
        <time>2021-05-22T11:22:31Z</time>
      </trkpt>
      <trkpt lat="45.82327" lon="3.04971">
        <ele>551</ele>
        <time>2021-05-22T11:22:33Z</time>
      </trkpt>
      <trkpt lat="45.82324" lon="3.04972">
        <ele>551</ele>
        <time>2021-05-22T11:22:35Z</time>
      </trkpt>
      <trkpt lat="45.82321" lon="3.04973">
        <ele>551</ele>
        <time>2021-05-22T11:22:37Z</time>
      </trkpt>
      <trkpt lat="45.82318" lon="3.04974">
        <ele>551</ele>
        <time>2021-05-22T11:22:39Z</time>
      </trkpt>
      <trkpt lat="45.82315" lon="3.04975">
        <ele>551</ele>
        <time>2021-05-22T11:22:41Z</time>
      </trkpt>
      <trkpt lat="45.82313" lon="3.04976">
        <ele>551</ele>
        <time>2021-05-22T11:22:43Z</time>
      </trkpt>
      <trkpt lat="45.82309" lon="3.04976">
        <ele>551</ele>
        <time>2021-05-22T11:22:45Z</time>
      </trkpt>
      <trkpt lat="45.82307" lon="3.04977">
        <ele>551</ele>
        <time>2021-05-22T11:22:47Z</time>
      </trkpt>
      <trkpt lat="45.82304" lon="3.04977">
        <ele>551</ele>
        <time>2021-05-22T11:22:49Z</time>
      </trkpt>
      <trkpt lat="45.82301" lon="3.04978">
        <ele>551</ele>
        <time>2021-05-22T11:22:51Z</time>
      </trkpt>
      <trkpt lat="45.82297" lon="3.04979">
        <ele>551</ele>
        <time>2021-05-22T11:22:53Z</time>
      </trkpt>
      <trkpt lat="45.82293" lon="3.04978">
        <ele>551</ele>
        <time>2021-05-22T11:22:55Z</time>
      </trkpt>
      <trkpt lat="45.82288" lon="3.04977">
        <ele>551</ele>
        <time>2021-05-22T11:22:57Z</time>
      </trkpt>
      <trkpt lat="45.82286" lon="3.04976">
        <ele>551</ele>
        <time>2021-05-22T11:22:59Z</time>
      </trkpt>
      <trkpt lat="45.82283" lon="3.04976">
        <ele>551</ele>
        <time>2021-05-22T11:23:01Z</time>
      </trkpt>
      <trkpt lat="45.8228" lon="3.04975">
        <ele>551</ele>
        <time>2021-05-22T11:23:03Z</time>
      </trkpt>
      <trkpt lat="45.82277" lon="3.04975">
        <ele>551</ele>
        <time>2021-05-22T11:23:05Z</time>
      </trkpt>
      <trkpt lat="45.82274" lon="3.04974">
        <ele>551</ele>
        <time>2021-05-22T11:23:07Z</time>
      </trkpt>
      <trkpt lat="45.8227" lon="3.04973">
        <ele>551</ele>
        <time>2021-05-22T11:23:09Z</time>
      </trkpt>
      <trkpt lat="45.82267" lon="3.04973">
        <ele>551</ele>
        <time>2021-05-22T11:23:11Z</time>
      </trkpt>
      <trkpt lat="45.82264" lon="3.04973">
        <ele>551</ele>
        <time>2021-05-22T11:23:13Z</time>
      </trkpt>
      <trkpt lat="45.82261" lon="3.04973">
        <ele>551</ele>
        <time>2021-05-22T11:23:15Z</time>
      </trkpt>
      <trkpt lat="45.82259" lon="3.04972">
        <ele>551</ele>
        <time>2021-05-22T11:23:17Z</time>
      </trkpt>
      <trkpt lat="45.82256" lon="3.04972">
        <ele>551</ele>
        <time>2021-05-22T11:23:19Z</time>
      </trkpt>
      <trkpt lat="45.82253" lon="3.04972">
        <ele>551</ele>
        <time>2021-05-22T11:23:21Z</time>
      </trkpt>
      <trkpt lat="45.8225" lon="3.04972">
        <ele>551</ele>
        <time>2021-05-22T11:23:23Z</time>
      </trkpt>
      <trkpt lat="45.82247" lon="3.04972">
        <ele>551</ele>
        <time>2021-05-22T11:23:25Z</time>
      </trkpt>
      <trkpt lat="45.82244" lon="3.04971">
        <ele>551</ele>
        <time>2021-05-22T11:23:27Z</time>
      </trkpt>
      <trkpt lat="45.82241" lon="3.0497">
        <ele>551</ele>
        <time>2021-05-22T11:23:29Z</time>
      </trkpt>
      <trkpt lat="45.82238" lon="3.04969">
        <ele>551</ele>
        <time>2021-05-22T11:23:31Z</time>
      </trkpt>
      <trkpt lat="45.82235" lon="3.04968">
        <ele>551</ele>
        <time>2021-05-22T11:23:33Z</time>
      </trkpt>
      <trkpt lat="45.82232" lon="3.04967">
        <ele>551</ele>
        <time>2021-05-22T11:23:35Z</time>
      </trkpt>
      <trkpt lat="45.82229" lon="3.04965">
        <ele>551</ele>
        <time>2021-05-22T11:23:37Z</time>
      </trkpt>
      <trkpt lat="45.82225" lon="3.04963">
        <ele>551</ele>
        <time>2021-05-22T11:23:39Z</time>
      </trkpt>
      <trkpt lat="45.82222" lon="3.04961">
        <ele>551</ele>
        <time>2021-05-22T11:23:41Z</time>
      </trkpt>
      <trkpt lat="45.82219" lon="3.04959">
        <ele>551</ele>
        <time>2021-05-22T11:23:43Z</time>
      </trkpt>
      <trkpt lat="45.82216" lon="3.04957">
        <ele>551</ele>
        <time>2021-05-22T11:23:45Z</time>
      </trkpt>
      <trkpt lat="45.82214" lon="3.04955">
        <ele>551</ele>
        <time>2021-05-22T11:23:47Z</time>
      </trkpt>
      <trkpt lat="45.82211" lon="3.04953">
        <ele>551</ele>
        <time>2021-05-22T11:23:49Z</time>
      </trkpt>
      <trkpt lat="45.82209" lon="3.04951">
        <ele>551</ele>
        <time>2021-05-22T11:23:51Z</time>
      </trkpt>
      <trkpt lat="45.82206" lon="3.04949">
        <ele>551</ele>
        <time>2021-05-22T11:23:53Z</time>
      </trkpt>
      <trkpt lat="45.82203" lon="3.04946">
        <ele>551</ele>
        <time>2021-05-22T11:23:55Z</time>
      </trkpt>
      <trkpt lat="45.82201" lon="3.04944">
        <ele>551</ele>
        <time>2021-05-22T11:23:57Z</time>
      </trkpt>
      <trkpt lat="45.82198" lon="3.04941">
        <ele>551</ele>
        <time>2021-05-22T11:23:59Z</time>
      </trkpt>
      <trkpt lat="45.82196" lon="3.04939">
        <ele>551</ele>
        <time>2021-05-22T11:24:01Z</time>
      </trkpt>
      <trkpt lat="45.82193" lon="3.04937">
        <ele>551</ele>
        <time>2021-05-22T11:24:03Z</time>
      </trkpt>
      <trkpt lat="45.8219" lon="3.04935">
        <ele>551</ele>
        <time>2021-05-22T11:24:05Z</time>
      </trkpt>
      <trkpt lat="45.82187" lon="3.04933">
        <ele>551</ele>
        <time>2021-05-22T11:24:07Z</time>
      </trkpt>
      <trkpt lat="45.82184" lon="3.04932">
        <ele>551</ele>
        <time>2021-05-22T11:24:09Z</time>
      </trkpt>
      <trkpt lat="45.82181" lon="3.04931">
        <ele>551</ele>
        <time>2021-05-22T11:24:11Z</time>
      </trkpt>
      <trkpt lat="45.82178" lon="3.04931">
        <ele>551</ele>
        <time>2021-05-22T11:24:13Z</time>
      </trkpt>
      <trkpt lat="45.82176" lon="3.04931">
        <ele>551</ele>
        <time>2021-05-22T11:24:15Z</time>
      </trkpt>
      <trkpt lat="45.82174" lon="3.0493">
        <ele>551</ele>
        <time>2021-05-22T11:24:17Z</time>
      </trkpt>
      <trkpt lat="45.82172" lon="3.0493">
        <ele>551</ele>
        <time>2021-05-22T11:24:19Z</time>
      </trkpt>
      <trkpt lat="45.8217" lon="3.0493">
        <ele>551</ele>
        <time>2021-05-22T11:24:21Z</time>
      </trkpt>
      <trkpt lat="45.82164" lon="3.04929">
        <ele>551</ele>
        <time>2021-05-22T11:24:25Z</time>
      </trkpt>
      <trkpt lat="45.82164" lon="3.04929">
        <ele>551</ele>
        <time>2021-05-22T11:24:27Z</time>
      </trkpt>
      <trkpt lat="45.82164" lon="3.04929">
        <ele>551</ele>
        <time>2021-05-22T11:24:29Z</time>
      </trkpt>
      <trkpt lat="45.82163" lon="3.04929">
        <ele>551</ele>
        <time>2021-05-22T11:24:31Z</time>
      </trkpt>
      <trkpt lat="45.82161" lon="3.04929">
        <ele>551</ele>
        <time>2021-05-22T11:24:33Z</time>
      </trkpt>
      <trkpt lat="45.82159" lon="3.04928">
        <ele>551</ele>
        <time>2021-05-22T11:24:35Z</time>
      </trkpt>
      <trkpt lat="45.82157" lon="3.04927">
        <ele>551</ele>
        <time>2021-05-22T11:24:37Z</time>
      </trkpt>
      <trkpt lat="45.82156" lon="3.04927">
        <ele>551</ele>
        <time>2021-05-22T11:24:39Z</time>
      </trkpt>
      <trkpt lat="45.82154" lon="3.04927">
        <ele>551</ele>
        <time>2021-05-22T11:24:41Z</time>
      </trkpt>
      <trkpt lat="45.82152" lon="3.04927">
        <ele>551</ele>
        <time>2021-05-22T11:24:43Z</time>
      </trkpt>
      <trkpt lat="45.8215" lon="3.04926">
        <ele>551</ele>
        <time>2021-05-22T11:24:45Z</time>
      </trkpt>
      <trkpt lat="45.82147" lon="3.04926">
        <ele>551</ele>
        <time>2021-05-22T11:24:47Z</time>
      </trkpt>
      <trkpt lat="45.82145" lon="3.04926">
        <ele>551</ele>
        <time>2021-05-22T11:24:49Z</time>
      </trkpt>
      <trkpt lat="45.82143" lon="3.04925">
        <ele>551</ele>
        <time>2021-05-22T11:24:51Z</time>
      </trkpt>
      <trkpt lat="45.8214" lon="3.04925">
        <ele>551</ele>
        <time>2021-05-22T11:24:53Z</time>
      </trkpt>
      <trkpt lat="45.82138" lon="3.04924">
        <ele>551</ele>
        <time>2021-05-22T11:24:55Z</time>
      </trkpt>
      <trkpt lat="45.82136" lon="3.04923">
        <ele>551</ele>
        <time>2021-05-22T11:24:57Z</time>
      </trkpt>
      <trkpt lat="45.82129" lon="3.04918">
        <ele>551</ele>
        <time>2021-05-22T11:25:01Z</time>
      </trkpt>
      <trkpt lat="45.82129" lon="3.04917">
        <ele>551</ele>
        <time>2021-05-22T11:25:03Z</time>
      </trkpt>
      <trkpt lat="45.82129" lon="3.04916">
        <ele>551</ele>
        <time>2021-05-22T11:25:05Z</time>
      </trkpt>
      <trkpt lat="45.82127" lon="3.04915">
        <ele>551</ele>
        <time>2021-05-22T11:25:07Z</time>
      </trkpt>
      <trkpt lat="45.82126" lon="3.04913">
        <ele>551</ele>
        <time>2021-05-22T11:25:09Z</time>
      </trkpt>
      <trkpt lat="45.82124" lon="3.04911">
        <ele>551</ele>
        <time>2021-05-22T11:25:11Z</time>
      </trkpt>
      <trkpt lat="45.82119" lon="3.04905">
        <ele>551</ele>
        <time>2021-05-22T11:25:17Z</time>
      </trkpt>
      <trkpt lat="45.82118" lon="3.04904">
        <ele>551</ele>
        <time>2021-05-22T11:25:19Z</time>
      </trkpt>
      <trkpt lat="45.82116" lon="3.04903">
        <ele>551</ele>
        <time>2021-05-22T11:25:21Z</time>
      </trkpt>
      <trkpt lat="45.82108" lon="3.049">
        <ele>551</ele>
        <time>2021-05-22T11:25:29Z</time>
      </trkpt>
      <trkpt lat="45.82107" lon="3.049">
        <ele>551</ele>
        <time>2021-05-22T11:25:31Z</time>
      </trkpt>
      <trkpt lat="45.82106" lon="3.04898">
        <ele>551</ele>
        <time>2021-05-22T11:25:33Z</time>
      </trkpt>
      <trkpt lat="45.82105" lon="3.04897">
        <ele>551</ele>
        <time>2021-05-22T11:25:35Z</time>
      </trkpt>
      <trkpt lat="45.82104" lon="3.04896">
        <ele>551</ele>
        <time>2021-05-22T11:25:37Z</time>
      </trkpt>
      <trkpt lat="45.82103" lon="3.04895">
        <ele>551</ele>
        <time>2021-05-22T11:25:39Z</time>
      </trkpt>
      <trkpt lat="45.82097" lon="3.04892">
        <ele>551</ele>
        <time>2021-05-22T11:25:43Z</time>
      </trkpt>
      <trkpt lat="45.82095" lon="3.04891">
        <ele>551</ele>
        <time>2021-05-22T11:25:45Z</time>
      </trkpt>
      <trkpt lat="45.82093" lon="3.0489">
        <ele>551</ele>
        <time>2021-05-22T11:25:47Z</time>
      </trkpt>
      <trkpt lat="45.82091" lon="3.04889">
        <ele>551</ele>
        <time>2021-05-22T11:25:49Z</time>
      </trkpt>
      <trkpt lat="45.8208" lon="3.04884">
        <ele>551</ele>
        <time>2021-05-22T11:25:55Z</time>
      </trkpt>
      <trkpt lat="45.82079" lon="3.04883">
        <ele>551</ele>
        <time>2021-05-22T11:25:57Z</time>
      </trkpt>
      <trkpt lat="45.82071" lon="3.04877">
        <ele>551</ele>
        <time>2021-05-22T11:26:01Z</time>
      </trkpt>
      <trkpt lat="45.8207" lon="3.04877">
        <ele>551</ele>
        <time>2021-05-22T11:26:03Z</time>
      </trkpt>
      <trkpt lat="45.82069" lon="3.04876">
        <ele>551</ele>
        <time>2021-05-22T11:26:05Z</time>
      </trkpt>
      <trkpt lat="45.82067" lon="3.04875">
        <ele>551</ele>
        <time>2021-05-22T11:26:07Z</time>
      </trkpt>
      <trkpt lat="45.82065" lon="3.04874">
        <ele>551</ele>
        <time>2021-05-22T11:26:09Z</time>
      </trkpt>
      <trkpt lat="45.82063" lon="3.04873">
        <ele>551</ele>
        <time>2021-05-22T11:26:11Z</time>
      </trkpt>
      <trkpt lat="45.82056" lon="3.04869">
        <ele>551</ele>
        <time>2021-05-22T11:26:15Z</time>
      </trkpt>
      <trkpt lat="45.82055" lon="3.04869">
        <ele>551</ele>
        <time>2021-05-22T11:26:17Z</time>
      </trkpt>
      <trkpt lat="45.82053" lon="3.04868">
        <ele>551</ele>
        <time>2021-05-22T11:26:19Z</time>
      </trkpt>
      <trkpt lat="45.82052" lon="3.04866">
        <ele>551</ele>
        <time>2021-05-22T11:26:21Z</time>
      </trkpt>
      <trkpt lat="45.82049" lon="3.04864">
        <ele>551</ele>
        <time>2021-05-22T11:26:23Z</time>
      </trkpt>
      <trkpt lat="45.82044" lon="3.04858">
        <ele>551</ele>
        <time>2021-05-22T11:26:26Z</time>
      </trkpt>
      <trkpt lat="45.82044" lon="3.04857">
        <ele>551</ele>
        <time>2021-05-22T11:26:28Z</time>
      </trkpt>
      <trkpt lat="45.82043" lon="3.04856">
        <ele>551</ele>
        <time>2021-05-22T11:26:30Z</time>
      </trkpt>
      <trkpt lat="45.82044" lon="3.04849">
        <ele>551</ele>
        <time>2021-05-22T11:26:38Z</time>
      </trkpt>
      <trkpt lat="45.82045" lon="3.04848">
        <ele>551</ele>
        <time>2021-05-22T11:26:40Z</time>
      </trkpt>
      <trkpt lat="45.82052" lon="3.04844">
        <ele>551</ele>
        <time>2021-05-22T11:26:44Z</time>
      </trkpt>
      <trkpt lat="45.82052" lon="3.04843">
        <ele>551</ele>
        <time>2021-05-22T11:26:46Z</time>
      </trkpt>
      <trkpt lat="45.82054" lon="3.04842">
        <ele>551</ele>
        <time>2021-05-22T11:26:48Z</time>
      </trkpt>
      <trkpt lat="45.8206" lon="3.04839">
        <ele>551</ele>
        <time>2021-05-22T11:26:58Z</time>
      </trkpt>
      <trkpt lat="45.82065" lon="3.04836">
        <ele>551</ele>
        <time>2021-05-22T11:27:10Z</time>
      </trkpt>
      <trkpt lat="45.82071" lon="3.04832">
        <ele>551</ele>
        <time>2021-05-22T11:27:14Z</time>
      </trkpt>
      <trkpt lat="45.82077" lon="3.04829">
        <ele>551</ele>
        <time>2021-05-22T11:27:18Z</time>
      </trkpt>
      <trkpt lat="45.82079" lon="3.04828">
        <ele>551</ele>
        <time>2021-05-22T11:27:20Z</time>
      </trkpt>
      <trkpt lat="45.82087" lon="3.04821">
        <ele>551</ele>
        <time>2021-05-22T11:27:24Z</time>
      </trkpt>
      <trkpt lat="45.82089" lon="3.0482">
        <ele>551</ele>
        <time>2021-05-22T11:27:26Z</time>
      </trkpt>
      <trkpt lat="45.82091" lon="3.0482">
        <ele>551</ele>
        <time>2021-05-22T11:27:28Z</time>
      </trkpt>
      <trkpt lat="45.82097" lon="3.0482">
        <ele>551</ele>
        <time>2021-05-22T11:27:32Z</time>
      </trkpt>
      <trkpt lat="45.821" lon="3.04821">
        <ele>551</ele>
        <time>2021-05-22T11:27:38Z</time>
      </trkpt>
      <trkpt lat="45.82103" lon="3.04821">
        <ele>551</ele>
        <time>2021-05-22T11:27:46Z</time>
      </trkpt>
      <trkpt lat="45.82104" lon="3.04822">
        <ele>551</ele>
        <time>2021-05-22T11:27:48Z</time>
      </trkpt>
      <trkpt lat="45.82106" lon="3.04822">
        <ele>551</ele>
        <time>2021-05-22T11:27:50Z</time>
      </trkpt>
      <trkpt lat="45.82109" lon="3.04823">
        <ele>551</ele>
        <time>2021-05-22T11:27:52Z</time>
      </trkpt>
      <trkpt lat="45.82112" lon="3.04824">
        <ele>551</ele>
        <time>2021-05-22T11:27:54Z</time>
      </trkpt>
      <trkpt lat="45.82114" lon="3.04825">
        <ele>551</ele>
        <time>2021-05-22T11:27:56Z</time>
      </trkpt>
      <trkpt lat="45.82124" lon="3.04828">
        <ele>551</ele>
        <time>2021-05-22T11:28:08Z</time>
      </trkpt>
      <trkpt lat="45.82125" lon="3.04828">
        <ele>551</ele>
        <time>2021-05-22T11:28:10Z</time>
      </trkpt>
      <trkpt lat="45.82136" lon="3.04833">
        <ele>551</ele>
        <time>2021-05-22T11:28:18Z</time>
      </trkpt>
      <trkpt lat="45.82143" lon="3.04834">
        <ele>551</ele>
        <time>2021-05-22T11:28:22Z</time>
      </trkpt>
      <trkpt lat="45.82143" lon="3.04834">
        <ele>551</ele>
        <time>2021-05-22T11:28:24Z</time>
      </trkpt>
      <trkpt lat="45.82146" lon="3.04833">
        <ele>551</ele>
        <time>2021-05-22T11:28:26Z</time>
      </trkpt>
      <trkpt lat="45.82149" lon="3.04833">
        <ele>551</ele>
        <time>2021-05-22T11:28:28Z</time>
      </trkpt>
      <trkpt lat="45.82152" lon="3.04832">
        <ele>551</ele>
        <time>2021-05-22T11:28:30Z</time>
      </trkpt>
      <trkpt lat="45.82155" lon="3.04831">
        <ele>551</ele>
        <time>2021-05-22T11:28:32Z</time>
      </trkpt>
      <trkpt lat="45.82158" lon="3.0483">
        <ele>551</ele>
        <time>2021-05-22T11:28:34Z</time>
      </trkpt>
      <trkpt lat="45.82161" lon="3.04829">
        <ele>551</ele>
        <time>2021-05-22T11:28:36Z</time>
      </trkpt>
      <trkpt lat="45.8217" lon="3.04824">
        <ele>551</ele>
        <time>2021-05-22T11:28:44Z</time>
      </trkpt>
      <trkpt lat="45.8217" lon="3.04824">
        <ele>551</ele>
        <time>2021-05-22T11:28:46Z</time>
      </trkpt>
      <trkpt lat="45.82171" lon="3.04823">
        <ele>551</ele>
        <time>2021-05-22T11:28:48Z</time>
      </trkpt>
      <trkpt lat="45.82179" lon="3.04821">
        <ele>551</ele>
        <time>2021-05-22T11:28:56Z</time>
      </trkpt>
      <trkpt lat="45.8218" lon="3.0482">
        <ele>551</ele>
        <time>2021-05-22T11:28:58Z</time>
      </trkpt>
      <trkpt lat="45.82187" lon="3.04819">
        <ele>551</ele>
        <time>2021-05-22T11:29:04Z</time>
      </trkpt>
      <trkpt lat="45.82188" lon="3.04817">
        <ele>551</ele>
        <time>2021-05-22T11:29:06Z</time>
      </trkpt>
      <trkpt lat="45.82191" lon="3.04815">
        <ele>551</ele>
        <time>2021-05-22T11:29:08Z</time>
      </trkpt>
      <trkpt lat="45.82203" lon="3.04808">
        <ele>551</ele>
        <time>2021-05-22T11:29:14Z</time>
      </trkpt>
      <trkpt lat="45.82204" lon="3.04808">
        <ele>551</ele>
        <time>2021-05-22T11:29:16Z</time>
      </trkpt>
      <trkpt lat="45.82206" lon="3.04806">
        <ele>551</ele>
        <time>2021-05-22T11:29:18Z</time>
      </trkpt>
      <trkpt lat="45.82208" lon="3.04804">
        <ele>551</ele>
        <time>2021-05-22T11:29:20Z</time>
      </trkpt>
      <trkpt lat="45.82218" lon="3.04797">
        <ele>551</ele>
        <time>2021-05-22T11:29:28Z</time>
      </trkpt>
      <trkpt lat="45.82219" lon="3.04797">
        <ele>551</ele>
        <time>2021-05-22T11:29:30Z</time>
      </trkpt>
      <trkpt lat="45.8222" lon="3.04796">
        <ele>551</ele>
        <time>2021-05-22T11:29:32Z</time>
      </trkpt>
      <trkpt lat="45.82229" lon="3.04795">
        <ele>551</ele>
        <time>2021-05-22T11:29:38Z</time>
      </trkpt>
      <trkpt lat="45.82235" lon="3.04793">
        <ele>551</ele>
        <time>2021-05-22T11:29:46Z</time>
      </trkpt>
      <trkpt lat="45.8224" lon="3.04792">
        <ele>551</ele>
        <time>2021-05-22T11:29:56Z</time>
      </trkpt>
      <trkpt lat="45.82246" lon="3.0479">
        <ele>551</ele>
        <time>2021-05-22T11:30:04Z</time>
      </trkpt>
      <trkpt lat="45.82246" lon="3.04791">
        <ele>551</ele>
        <time>2021-05-22T11:30:06Z</time>
      </trkpt>
      <trkpt lat="45.82248" lon="3.04791">
        <ele>551</ele>
        <time>2021-05-22T11:30:08Z</time>
      </trkpt>
      <trkpt lat="45.82262" lon="3.04787">
        <ele>551</ele>
        <time>2021-05-22T11:30:22Z</time>
      </trkpt>
      <trkpt lat="45.82266" lon="3.04783">
        <ele>551</ele>
        <time>2021-05-22T11:30:28Z</time>
      </trkpt>
      <trkpt lat="45.82266" lon="3.04783">
        <ele>551</ele>
        <time>2021-05-22T11:30:30Z</time>
      </trkpt>
      <trkpt lat="45.82271" lon="3.04782">
        <ele>551</ele>
        <time>2021-05-22T11:30:34Z</time>
      </trkpt>
      <trkpt lat="45.82283" lon="3.04779">
        <ele>551</ele>
        <time>2021-05-22T11:30:51Z</time>
      </trkpt>
      <trkpt lat="45.82287" lon="3.04777">
        <ele>551</ele>
        <time>2021-05-22T11:30:57Z</time>
      </trkpt>
      <trkpt lat="45.82287" lon="3.04777">
        <ele>551</ele>
        <time>2021-05-22T11:30:59Z</time>
      </trkpt>
      <trkpt lat="45.82291" lon="3.04773">
        <ele>551</ele>
        <time>2021-05-22T11:31:05Z</time>
      </trkpt>
      <trkpt lat="45.82292" lon="3.04773">
        <ele>551</ele>
        <time>2021-05-22T11:31:07Z</time>
      </trkpt>
      <trkpt lat="45.82297" lon="3.04768">
        <ele>551</ele>
        <time>2021-05-22T11:31:11Z</time>
      </trkpt>
      <trkpt lat="45.82298" lon="3.04767">
        <ele>551</ele>
        <time>2021-05-22T11:31:13Z</time>
      </trkpt>
      <trkpt lat="45.823" lon="3.04766">
        <ele>551</ele>
        <time>2021-05-22T11:31:15Z</time>
      </trkpt>
      <trkpt lat="45.82307" lon="3.04762">
        <ele>551</ele>
        <time>2021-05-22T11:31:19Z</time>
      </trkpt>
      <trkpt lat="45.82308" lon="3.04762">
        <ele>551</ele>
        <time>2021-05-22T11:31:21Z</time>
      </trkpt>
      <trkpt lat="45.82311" lon="3.04762">
        <ele>551</ele>
        <time>2021-05-22T11:31:25Z</time>
      </trkpt>
      <trkpt lat="45.82311" lon="3.04762">
        <ele>551</ele>
        <time>2021-05-22T11:31:27Z</time>
      </trkpt>
      <trkpt lat="45.82317" lon="3.04762">
        <ele>551</ele>
        <time>2021-05-22T11:31:39Z</time>
      </trkpt>
      <trkpt lat="45.82317" lon="3.04762">
        <ele>551</ele>
        <time>2021-05-22T11:31:41Z</time>
      </trkpt>
      <trkpt lat="45.82318" lon="3.04761">
        <ele>551</ele>
        <time>2021-05-22T11:31:43Z</time>
      </trkpt>
      <trkpt lat="45.82319" lon="3.04762">
        <ele>551</ele>
        <time>2021-05-22T11:31:45Z</time>
      </trkpt>
      <trkpt lat="45.82321" lon="3.04762">
        <ele>551</ele>
        <time>2021-05-22T11:31:47Z</time>
      </trkpt>
      <trkpt lat="45.82322" lon="3.04763">
        <ele>551</ele>
        <time>2021-05-22T11:31:49Z</time>
      </trkpt>
      <trkpt lat="45.82325" lon="3.04763">
        <ele>551</ele>
        <time>2021-05-22T11:31:55Z</time>
      </trkpt>
      <trkpt lat="45.82326" lon="3.04763">
        <ele>551</ele>
        <time>2021-05-22T11:31:57Z</time>
      </trkpt>
      <trkpt lat="45.82326" lon="3.04763">
        <ele>551</ele>
        <time>2021-05-22T11:31:59Z</time>
      </trkpt>
      <trkpt lat="45.82327" lon="3.04763">
        <ele>551</ele>
        <time>2021-05-22T11:32:01Z</time>
      </trkpt>
      <trkpt lat="45.82328" lon="3.04763">
        <ele>551</ele>
        <time>2021-05-22T11:32:03Z</time>
      </trkpt>
      <trkpt lat="45.8233" lon="3.04761">
        <ele>551</ele>
        <time>2021-05-22T11:32:07Z</time>
      </trkpt>
      <trkpt lat="45.82331" lon="3.04761">
        <ele>551</ele>
        <time>2021-05-22T11:32:09Z</time>
      </trkpt>
      <trkpt lat="45.82336" lon="3.04754">
        <ele>551</ele>
        <time>2021-05-22T11:32:15Z</time>
      </trkpt>
      <trkpt lat="45.82336" lon="3.04753">
        <ele>551</ele>
        <time>2021-05-22T11:32:17Z</time>
      </trkpt>
      <trkpt lat="45.82336" lon="3.04752">
        <ele>551</ele>
        <time>2021-05-22T11:32:19Z</time>
      </trkpt>
      <trkpt lat="45.82335" lon="3.0475">
        <ele>551</ele>
        <time>2021-05-22T11:32:21Z</time>
      </trkpt>
      <trkpt lat="45.82335" lon="3.04751">
        <ele>551</ele>
        <time>2021-05-22T11:32:23Z</time>
      </trkpt>
      <trkpt lat="45.82333" lon="3.04752">
        <ele>551</ele>
        <time>2021-05-22T11:32:25Z</time>
      </trkpt>
      <trkpt lat="45.82332" lon="3.04753">
        <ele>551</ele>
        <time>2021-05-22T11:32:29Z</time>
      </trkpt>
      <trkpt lat="45.82332" lon="3.04753">
        <ele>551</ele>
        <time>2021-05-22T11:32:31Z</time>
      </trkpt>
      <trkpt lat="45.82332" lon="3.04752">
        <ele>551</ele>
        <time>2021-05-22T11:32:33Z</time>
      </trkpt>
      <trkpt lat="45.82336" lon="3.04749">
        <ele>551</ele>
        <time>2021-05-22T11:32:55Z</time>
      </trkpt>
      <trkpt lat="45.82339" lon="3.04747">
        <ele>551</ele>
        <time>2021-05-22T11:33:05Z</time>
      </trkpt>
      <trkpt lat="45.8234" lon="3.04747">
        <ele>551</ele>
        <time>2021-05-22T11:33:07Z</time>
      </trkpt>
      <trkpt lat="45.82348" lon="3.04742">
        <ele>551</ele>
        <time>2021-05-22T11:33:31Z</time>
      </trkpt>
      <trkpt lat="45.82349" lon="3.04741">
        <ele>551</ele>
        <time>2021-05-22T11:33:33Z</time>
      </trkpt>
      <trkpt lat="45.82352" lon="3.04737">
        <ele>551</ele>
        <time>2021-05-22T11:33:43Z</time>
      </trkpt>
      <trkpt lat="45.82352" lon="3.04737">
        <ele>551</ele>
        <time>2021-05-22T11:33:45Z</time>
      </trkpt>
      <trkpt lat="45.82354" lon="3.04736">
        <ele>551</ele>
        <time>2021-05-22T11:33:47Z</time>
      </trkpt>
      <trkpt lat="45.82357" lon="3.04734">
        <ele>551</ele>
        <time>2021-05-22T11:33:49Z</time>
      </trkpt>
      <trkpt lat="45.82363" lon="3.04728">
        <ele>551</ele>
        <time>2021-05-22T11:33:55Z</time>
      </trkpt>
      <trkpt lat="45.82368" lon="3.04727">
        <ele>551</ele>
        <time>2021-05-22T11:34:03Z</time>
      </trkpt>
      <trkpt lat="45.82368" lon="3.04726">
        <ele>551</ele>
        <time>2021-05-22T11:34:05Z</time>
      </trkpt>
      <trkpt lat="45.82369" lon="3.04724">
        <ele>551</ele>
        <time>2021-05-22T11:34:07Z</time>
      </trkpt>
      <trkpt lat="45.8237" lon="3.04722">
        <ele>551</ele>
        <time>2021-05-22T11:34:09Z</time>
      </trkpt>
      <trkpt lat="45.82369" lon="3.0472">
        <ele>551</ele>
        <time>2021-05-22T11:34:11Z</time>
      </trkpt>
      <trkpt lat="45.82369" lon="3.04719">
        <ele>551</ele>
        <time>2021-05-22T11:34:13Z</time>
      </trkpt>
      <trkpt lat="45.82368" lon="3.04715">
        <ele>551</ele>
        <time>2021-05-22T11:34:23Z</time>
      </trkpt>
      <trkpt lat="45.82365" lon="3.04712">
        <ele>551</ele>
        <time>2021-05-22T11:34:31Z</time>
      </trkpt>
      <trkpt lat="45.82364" lon="3.04705">
        <ele>551</ele>
        <time>2021-05-22T11:34:55Z</time>
      </trkpt>
      <trkpt lat="45.82363" lon="3.04701">
        <ele>551</ele>
        <time>2021-05-22T11:35:00Z</time>
      </trkpt>
      <trkpt lat="45.82364" lon="3.047">
        <ele>551</ele>
        <time>2021-05-22T11:35:02Z</time>
      </trkpt>
      <trkpt lat="45.82365" lon="3.04692">
        <ele>551</ele>
        <time>2021-05-22T11:35:06Z</time>
      </trkpt>
      <trkpt lat="45.82367" lon="3.04689">
        <ele>551</ele>
        <time>2021-05-22T11:35:14Z</time>
      </trkpt>
      <trkpt lat="45.82367" lon="3.04689">
        <ele>551</ele>
        <time>2021-05-22T11:35:16Z</time>
      </trkpt>
      <trkpt lat="45.82371" lon="3.04681">
        <ele>551</ele>
        <time>2021-05-22T11:35:28Z</time>
      </trkpt>
      <trkpt lat="45.82373" lon="3.04679">
        <ele>551</ele>
        <time>2021-05-22T11:35:32Z</time>
      </trkpt>
      <trkpt lat="45.82375" lon="3.04675">
        <ele>551</ele>
        <time>2021-05-22T11:35:36Z</time>
      </trkpt>
      <trkpt lat="45.82375" lon="3.04674">
        <ele>551</ele>
        <time>2021-05-22T11:35:38Z</time>
      </trkpt>
      <trkpt lat="45.82378" lon="3.04668">
        <ele>551</ele>
        <time>2021-05-22T11:35:48Z</time>
      </trkpt>
      <trkpt lat="45.82378" lon="3.04667">
        <ele>551</ele>
        <time>2021-05-22T11:35:50Z</time>
      </trkpt>
      <trkpt lat="45.82383" lon="3.04662">
        <ele>551</ele>
        <time>2021-05-22T11:35:58Z</time>
      </trkpt>
      <trkpt lat="45.82383" lon="3.0466">
        <ele>551</ele>
        <time>2021-05-22T11:36:02Z</time>
      </trkpt>
      <trkpt lat="45.82383" lon="3.04659">
        <ele>551</ele>
        <time>2021-05-22T11:36:04Z</time>
      </trkpt>
      <trkpt lat="45.82384" lon="3.04658">
        <ele>551</ele>
        <time>2021-05-22T11:36:06Z</time>
      </trkpt>
      <trkpt lat="45.82385" lon="3.04656">
        <ele>551</ele>
        <time>2021-05-22T11:36:08Z</time>
      </trkpt>
      <trkpt lat="45.82388" lon="3.04651">
        <ele>551</ele>
        <time>2021-05-22T11:36:12Z</time>
      </trkpt>
      <trkpt lat="45.82392" lon="3.04649">
        <ele>551</ele>
        <time>2021-05-22T11:36:16Z</time>
      </trkpt>
      <trkpt lat="45.82396" lon="3.04651">
        <ele>551</ele>
        <time>2021-05-22T11:36:26Z</time>
      </trkpt>
      <trkpt lat="45.82396" lon="3.04651">
        <ele>551</ele>
        <time>2021-05-22T11:36:28Z</time>
      </trkpt>
      <trkpt lat="45.82398" lon="3.04652">
        <ele>551</ele>
        <time>2021-05-22T11:36:30Z</time>
      </trkpt>
      <trkpt lat="45.82408" lon="3.04652">
        <ele>551</ele>
        <time>2021-05-22T11:36:42Z</time>
      </trkpt>
      <trkpt lat="45.82409" lon="3.04652">
        <ele>551</ele>
        <time>2021-05-22T11:36:44Z</time>
      </trkpt>
      <trkpt lat="45.82418" lon="3.04648">
        <ele>551</ele>
        <time>2021-05-22T11:36:56Z</time>
      </trkpt>
      <trkpt lat="45.82423" lon="3.04645">
        <ele>551</ele>
        <time>2021-05-22T11:37:02Z</time>
      </trkpt>
      <trkpt lat="45.82423" lon="3.04644">
        <ele>551</ele>
        <time>2021-05-22T11:37:04Z</time>
      </trkpt>
      <trkpt lat="45.8243" lon="3.04642">
        <ele>551</ele>
        <time>2021-05-22T11:37:16Z</time>
      </trkpt>
      <trkpt lat="45.82434" lon="3.04638">
        <ele>551</ele>
        <time>2021-05-22T11:37:24Z</time>
      </trkpt>
      <trkpt lat="45.82443" lon="3.04633">
        <ele>551</ele>
        <time>2021-05-22T11:37:30Z</time>
      </trkpt>
      <trkpt lat="45.82444" lon="3.04633">
        <ele>551</ele>
        <time>2021-05-22T11:37:32Z</time>
      </trkpt>
      <trkpt lat="45.82449" lon="3.04628">
        <ele>551</ele>
        <time>2021-05-22T11:37:36Z</time>
      </trkpt>
      <trkpt lat="45.8245" lon="3.04627">
        <ele>551</ele>
        <time>2021-05-22T11:37:38Z</time>
      </trkpt>
      <trkpt lat="45.82454" lon="3.04622">
        <ele>551</ele>
        <time>2021-05-22T11:37:42Z</time>
      </trkpt>
      <trkpt lat="45.82454" lon="3.04622">
        <ele>551</ele>
        <time>2021-05-22T11:37:44Z</time>
      </trkpt>
      <trkpt lat="45.82455" lon="3.04621">
        <ele>551</ele>
        <time>2021-05-22T11:37:46Z</time>
      </trkpt>
      <trkpt lat="45.82457" lon="3.04619">
        <ele>551</ele>
        <time>2021-05-22T11:37:48Z</time>
      </trkpt>
      <trkpt lat="45.82459" lon="3.04617">
        <ele>551</ele>
        <time>2021-05-22T11:37:50Z</time>
      </trkpt>
      <trkpt lat="45.82462" lon="3.04614">
        <ele>551</ele>
        <time>2021-05-22T11:37:52Z</time>
      </trkpt>
      <trkpt lat="45.82464" lon="3.04612">
        <ele>551</ele>
        <time>2021-05-22T11:37:54Z</time>
      </trkpt>
      <trkpt lat="45.82472" lon="3.04608">
        <ele>551</ele>
        <time>2021-05-22T11:37:58Z</time>
      </trkpt>
      <trkpt lat="45.82474" lon="3.04607">
        <ele>551</ele>
        <time>2021-05-22T11:38:00Z</time>
      </trkpt>
      <trkpt lat="45.82484" lon="3.04601">
        <ele>551</ele>
        <time>2021-05-22T11:38:04Z</time>
      </trkpt>
      <trkpt lat="45.82484" lon="3.046">
        <ele>551</ele>
        <time>2021-05-22T11:38:06Z</time>
      </trkpt>
      <trkpt lat="45.82487" lon="3.04596">
        <ele>551</ele>
        <time>2021-05-22T11:38:12Z</time>
      </trkpt>
      <trkpt lat="45.82487" lon="3.04596">
        <ele>551</ele>
        <time>2021-05-22T11:38:14Z</time>
      </trkpt>
      <trkpt lat="45.82488" lon="3.04595">
        <ele>551</ele>
        <time>2021-05-22T11:38:16Z</time>
      </trkpt>
      <trkpt lat="45.82491" lon="3.0459">
        <ele>551</ele>
        <time>2021-05-22T11:38:20Z</time>
      </trkpt>
      <trkpt lat="45.82492" lon="3.04587">
        <ele>551</ele>
        <time>2021-05-22T11:38:24Z</time>
      </trkpt>
      <trkpt lat="45.82493" lon="3.04584">
        <ele>551</ele>
        <time>2021-05-22T11:38:30Z</time>
      </trkpt>
      <trkpt lat="45.82493" lon="3.04583">
        <ele>551</ele>
        <time>2021-05-22T11:38:32Z</time>
      </trkpt>
      <trkpt lat="45.82494" lon="3.04582">
        <ele>551</ele>
        <time>2021-05-22T11:38:34Z</time>
      </trkpt>
      <trkpt lat="45.82494" lon="3.04579">
        <ele>551</ele>
        <time>2021-05-22T11:38:36Z</time>
      </trkpt>
      <trkpt lat="45.82495" lon="3.04577">
        <ele>551</ele>
        <time>2021-05-22T11:38:38Z</time>
      </trkpt>
      <trkpt lat="45.82496" lon="3.04574">
        <ele>551</ele>
        <time>2021-05-22T11:38:40Z</time>
      </trkpt>
      <trkpt lat="45.82497" lon="3.04571">
        <ele>551</ele>
        <time>2021-05-22T11:38:42Z</time>
      </trkpt>
      <trkpt lat="45.82501" lon="3.04562">
        <ele>551</ele>
        <time>2021-05-22T11:38:46Z</time>
      </trkpt>
      <trkpt lat="45.82502" lon="3.04562">
        <ele>551</ele>
        <time>2021-05-22T11:38:48Z</time>
      </trkpt>
      <trkpt lat="45.82502" lon="3.0456">
        <ele>551</ele>
        <time>2021-05-22T11:38:50Z</time>
      </trkpt>
      <trkpt lat="45.82503" lon="3.04558">
        <ele>551</ele>
        <time>2021-05-22T11:38:52Z</time>
      </trkpt>
      <trkpt lat="45.82505" lon="3.0455">
        <ele>551</ele>
        <time>2021-05-22T11:39:00Z</time>
      </trkpt>
      <trkpt lat="45.82505" lon="3.04548">
        <ele>551</ele>
        <time>2021-05-22T11:39:02Z</time>
      </trkpt>
      <trkpt lat="45.82505" lon="3.04541">
        <ele>551</ele>
        <time>2021-05-22T11:39:06Z</time>
      </trkpt>
      <trkpt lat="45.82505" lon="3.0454">
        <ele>551</ele>
        <time>2021-05-22T11:39:08Z</time>
      </trkpt>
      <trkpt lat="45.82505" lon="3.04534">
        <ele>551</ele>
        <time>2021-05-22T11:39:13Z</time>
      </trkpt>
      <trkpt lat="45.82506" lon="3.04533">
        <ele>551</ele>
        <time>2021-05-22T11:39:15Z</time>
      </trkpt>
      <trkpt lat="45.82507" lon="3.0453">
        <ele>551</ele>
        <time>2021-05-22T11:39:17Z</time>
      </trkpt>
      <trkpt lat="45.82507" lon="3.04527">
        <ele>551</ele>
        <time>2021-05-22T11:39:19Z</time>
      </trkpt>
      <trkpt lat="45.82508" lon="3.04524">
        <ele>551</ele>
        <time>2021-05-22T11:39:21Z</time>
      </trkpt>
      <trkpt lat="45.82508" lon="3.04521">
        <ele>551</ele>
        <time>2021-05-22T11:39:23Z</time>
      </trkpt>
      <trkpt lat="45.82509" lon="3.04517">
        <ele>551</ele>
        <time>2021-05-22T11:39:25Z</time>
      </trkpt>
      <trkpt lat="45.82511" lon="3.04508">
        <ele>551</ele>
        <time>2021-05-22T11:39:29Z</time>
      </trkpt>
      <trkpt lat="45.82511" lon="3.04507">
        <ele>551</ele>
        <time>2021-05-22T11:39:31Z</time>
      </trkpt>
      <trkpt lat="45.82511" lon="3.04505">
        <ele>551</ele>
        <time>2021-05-22T11:39:33Z</time>
      </trkpt>
      <trkpt lat="45.82511" lon="3.04502">
        <ele>551</ele>
        <time>2021-05-22T11:39:35Z</time>
      </trkpt>
      <trkpt lat="45.8251" lon="3.04494">
        <ele>551</ele>
        <time>2021-05-22T11:39:43Z</time>
      </trkpt>
      <trkpt lat="45.82507" lon="3.0449">
        <ele>551</ele>
        <time>2021-05-22T11:39:51Z</time>
      </trkpt>
      <trkpt lat="45.82506" lon="3.04489">
        <ele>551</ele>
        <time>2021-05-22T11:39:53Z</time>
      </trkpt>
      <trkpt lat="45.82505" lon="3.04487">
        <ele>551</ele>
        <time>2021-05-22T11:39:55Z</time>
      </trkpt>
      <trkpt lat="45.82503" lon="3.04479">
        <ele>551</ele>
        <time>2021-05-22T11:40:01Z</time>
      </trkpt>
      <trkpt lat="45.82502" lon="3.04478">
        <ele>551</ele>
        <time>2021-05-22T11:40:03Z</time>
      </trkpt>
      <trkpt lat="45.82501" lon="3.04476">
        <ele>551</ele>
        <time>2021-05-22T11:40:05Z</time>
      </trkpt>
      <trkpt lat="45.82498" lon="3.0447">
        <ele>551</ele>
        <time>2021-05-22T11:40:09Z</time>
      </trkpt>
      <trkpt lat="45.82497" lon="3.04467">
        <ele>551</ele>
        <time>2021-05-22T11:40:13Z</time>
      </trkpt>
      <trkpt lat="45.82497" lon="3.04466">
        <ele>551</ele>
        <time>2021-05-22T11:40:15Z</time>
      </trkpt>
      <trkpt lat="45.82497" lon="3.04464">
        <ele>551</ele>
        <time>2021-05-22T11:40:17Z</time>
      </trkpt>
      <trkpt lat="45.82497" lon="3.04462">
        <ele>551</ele>
        <time>2021-05-22T11:40:19Z</time>
      </trkpt>
      <trkpt lat="45.82497" lon="3.0446">
        <ele>551</ele>
        <time>2021-05-22T11:40:21Z</time>
      </trkpt>
      <trkpt lat="45.82497" lon="3.04458">
        <ele>551</ele>
        <time>2021-05-22T11:40:23Z</time>
      </trkpt>
      <trkpt lat="45.82498" lon="3.04456">
        <ele>551</ele>
        <time>2021-05-22T11:40:25Z</time>
      </trkpt>
      <trkpt lat="45.82497" lon="3.04454">
        <ele>551</ele>
        <time>2021-05-22T11:40:27Z</time>
      </trkpt>
      <trkpt lat="45.82497" lon="3.04451">
        <ele>551</ele>
        <time>2021-05-22T11:40:29Z</time>
      </trkpt>
      <trkpt lat="45.82496" lon="3.04447">
        <ele>551</ele>
        <time>2021-05-22T11:40:31Z</time>
      </trkpt>
      <trkpt lat="45.82495" lon="3.04436">
        <ele>551</ele>
        <time>2021-05-22T11:40:35Z</time>
      </trkpt>
      <trkpt lat="45.82494" lon="3.04434">
        <ele>551</ele>
        <time>2021-05-22T11:40:37Z</time>
      </trkpt>
      <trkpt lat="45.82494" lon="3.04432">
        <ele>551</ele>
        <time>2021-05-22T11:40:39Z</time>
      </trkpt>
      <trkpt lat="45.82491" lon="3.04423">
        <ele>551</ele>
        <time>2021-05-22T11:40:43Z</time>
      </trkpt>
      <trkpt lat="45.82491" lon="3.04422">
        <ele>551</ele>
        <time>2021-05-22T11:40:45Z</time>
      </trkpt>
      <trkpt lat="45.8249" lon="3.0442">
        <ele>551</ele>
        <time>2021-05-22T11:40:47Z</time>
      </trkpt>
      <trkpt lat="45.82489" lon="3.04417">
        <ele>551</ele>
        <time>2021-05-22T11:40:49Z</time>
      </trkpt>
      <trkpt lat="45.82488" lon="3.04407">
        <ele>551</ele>
        <time>2021-05-22T11:40:53Z</time>
      </trkpt>
      <trkpt lat="45.82487" lon="3.04405">
        <ele>551</ele>
        <time>2021-05-22T11:40:55Z</time>
      </trkpt>
      <trkpt lat="45.82486" lon="3.04403">
        <ele>551</ele>
        <time>2021-05-22T11:40:57Z</time>
      </trkpt>
      <trkpt lat="45.82486" lon="3.04394">
        <ele>551</ele>
        <time>2021-05-22T11:41:01Z</time>
      </trkpt>
      <trkpt lat="45.82486" lon="3.04393">
        <ele>551</ele>
        <time>2021-05-22T11:41:03Z</time>
      </trkpt>
      <trkpt lat="45.82487" lon="3.0439">
        <ele>551</ele>
        <time>2021-05-22T11:41:05Z</time>
      </trkpt>
      <trkpt lat="45.82488" lon="3.04387">
        <ele>551</ele>
        <time>2021-05-22T11:41:07Z</time>
      </trkpt>
      <trkpt lat="45.82489" lon="3.04383">
        <ele>551</ele>
        <time>2021-05-22T11:41:09Z</time>
      </trkpt>
      <trkpt lat="45.82489" lon="3.04378">
        <ele>551</ele>
        <time>2021-05-22T11:41:11Z</time>
      </trkpt>
      <trkpt lat="45.8249" lon="3.04367">
        <ele>551</ele>
        <time>2021-05-22T11:41:17Z</time>
      </trkpt>
      <trkpt lat="45.8249" lon="3.04365">
        <ele>551</ele>
        <time>2021-05-22T11:41:19Z</time>
      </trkpt>
      <trkpt lat="45.8249" lon="3.04363">
        <ele>551</ele>
        <time>2021-05-22T11:41:21Z</time>
      </trkpt>
      <trkpt lat="45.82489" lon="3.0436">
        <ele>551</ele>
        <time>2021-05-22T11:41:23Z</time>
      </trkpt>
      <trkpt lat="45.82488" lon="3.04356">
        <ele>551</ele>
        <time>2021-05-22T11:41:25Z</time>
      </trkpt>
      <trkpt lat="45.82487" lon="3.04353">
        <ele>551</ele>
        <time>2021-05-22T11:41:27Z</time>
      </trkpt>
      <trkpt lat="45.82486" lon="3.04349">
        <ele>551</ele>
        <time>2021-05-22T11:41:29Z</time>
      </trkpt>
      <trkpt lat="45.82485" lon="3.04346">
        <ele>551</ele>
        <time>2021-05-22T11:41:31Z</time>
      </trkpt>
      <trkpt lat="45.82483" lon="3.04342">
        <ele>551</ele>
        <time>2021-05-22T11:41:33Z</time>
      </trkpt>
      <trkpt lat="45.82483" lon="3.04339">
        <ele>551</ele>
        <time>2021-05-22T11:41:35Z</time>
      </trkpt>
      <trkpt lat="45.82481" lon="3.04337">
        <ele>551</ele>
        <time>2021-05-22T11:41:37Z</time>
      </trkpt>
      <trkpt lat="45.82481" lon="3.04334">
        <ele>551</ele>
        <time>2021-05-22T11:41:39Z</time>
      </trkpt>
      <trkpt lat="45.8248" lon="3.0433">
        <ele>551</ele>
        <time>2021-05-22T11:41:41Z</time>
      </trkpt>
      <trkpt lat="45.8248" lon="3.04327">
        <ele>551</ele>
        <time>2021-05-22T11:41:43Z</time>
      </trkpt>
      <trkpt lat="45.82478" lon="3.04317">
        <ele>551</ele>
        <time>2021-05-22T11:41:47Z</time>
      </trkpt>
      <trkpt lat="45.82477" lon="3.04311">
        <ele>551</ele>
        <time>2021-05-22T11:41:51Z</time>
      </trkpt>
      <trkpt lat="45.82476" lon="3.0431">
        <ele>551</ele>
        <time>2021-05-22T11:41:52Z</time>
      </trkpt>
      <trkpt lat="45.82476" lon="3.04308">
        <ele>551</ele>
        <time>2021-05-22T11:41:54Z</time>
      </trkpt>
      <trkpt lat="45.82476" lon="3.04305">
        <ele>551</ele>
        <time>2021-05-22T11:41:56Z</time>
      </trkpt>
      <trkpt lat="45.82474" lon="3.04295">
        <ele>551</ele>
        <time>2021-05-22T11:42:00Z</time>
      </trkpt>
      <trkpt lat="45.82474" lon="3.04294">
        <ele>551</ele>
        <time>2021-05-22T11:42:02Z</time>
      </trkpt>
      <trkpt lat="45.82473" lon="3.04289">
        <ele>551</ele>
        <time>2021-05-22T11:42:04Z</time>
      </trkpt>
      <trkpt lat="45.82473" lon="3.04285">
        <ele>551</ele>
        <time>2021-05-22T11:42:06Z</time>
      </trkpt>
      <trkpt lat="45.82471" lon="3.04273">
        <ele>551</ele>
        <time>2021-05-22T11:42:10Z</time>
      </trkpt>
      <trkpt lat="45.82471" lon="3.04272">
        <ele>551</ele>
        <time>2021-05-22T11:42:12Z</time>
      </trkpt>
      <trkpt lat="45.8247" lon="3.04269">
        <ele>551</ele>
        <time>2021-05-22T11:42:14Z</time>
      </trkpt>
      <trkpt lat="45.8247" lon="3.04265">
        <ele>551</ele>
        <time>2021-05-22T11:42:16Z</time>
      </trkpt>
      <trkpt lat="45.82469" lon="3.04262">
        <ele>551</ele>
        <time>2021-05-22T11:42:18Z</time>
      </trkpt>
      <trkpt lat="45.82466" lon="3.0425">
        <ele>551</ele>
        <time>2021-05-22T11:42:22Z</time>
      </trkpt>
      <trkpt lat="45.82465" lon="3.04249">
        <ele>551</ele>
        <time>2021-05-22T11:42:24Z</time>
      </trkpt>
      <trkpt lat="45.82465" lon="3.04247">
        <ele>551</ele>
        <time>2021-05-22T11:42:26Z</time>
      </trkpt>
      <trkpt lat="45.82464" lon="3.04245">
        <ele>551</ele>
        <time>2021-05-22T11:42:28Z</time>
      </trkpt>
      <trkpt lat="45.82462" lon="3.04242">
        <ele>551</ele>
        <time>2021-05-22T11:42:30Z</time>
      </trkpt>
      <trkpt lat="45.82456" lon="3.04232">
        <ele>551</ele>
        <time>2021-05-22T11:42:36Z</time>
      </trkpt>
      <trkpt lat="45.82455" lon="3.04231">
        <ele>551</ele>
        <time>2021-05-22T11:42:38Z</time>
      </trkpt>
      <trkpt lat="45.82454" lon="3.0423">
        <ele>551</ele>
        <time>2021-05-22T11:42:40Z</time>
      </trkpt>
      <trkpt lat="45.82452" lon="3.04227">
        <ele>551</ele>
        <time>2021-05-22T11:42:42Z</time>
      </trkpt>
      <trkpt lat="45.82445" lon="3.04222">
        <ele>551</ele>
        <time>2021-05-22T11:42:46Z</time>
      </trkpt>
      <trkpt lat="45.82444" lon="3.04221">
        <ele>551</ele>
        <time>2021-05-22T11:42:48Z</time>
      </trkpt>
      <trkpt lat="45.82443" lon="3.04221">
        <ele>551</ele>
        <time>2021-05-22T11:42:50Z</time>
      </trkpt>
      <trkpt lat="45.82441" lon="3.0422">
        <ele>551</ele>
        <time>2021-05-22T11:42:52Z</time>
      </trkpt>
      <trkpt lat="45.8244" lon="3.0422">
        <ele>551</ele>
        <time>2021-05-22T11:42:54Z</time>
      </trkpt>
      <trkpt lat="45.82433" lon="3.04218">
        <ele>551</ele>
        <time>2021-05-22T11:42:58Z</time>
      </trkpt>
      <trkpt lat="45.82431" lon="3.04218">
        <ele>551</ele>
        <time>2021-05-22T11:43:00Z</time>
      </trkpt>
      <trkpt lat="45.82429" lon="3.04218">
        <ele>551</ele>
        <time>2021-05-22T11:43:02Z</time>
      </trkpt>
      <trkpt lat="45.82422" lon="3.04218">
        <ele>551</ele>
        <time>2021-05-22T11:43:06Z</time>
      </trkpt>
      <trkpt lat="45.82421" lon="3.04218">
        <ele>551</ele>
        <time>2021-05-22T11:43:08Z</time>
      </trkpt>
      <trkpt lat="45.8242" lon="3.04218">
        <ele>551</ele>
        <time>2021-05-22T11:43:10Z</time>
      </trkpt>
      <trkpt lat="45.82417" lon="3.04218">
        <ele>551</ele>
        <time>2021-05-22T11:43:12Z</time>
      </trkpt>
      <trkpt lat="45.82415" lon="3.04218">
        <ele>551</ele>
        <time>2021-05-22T11:43:14Z</time>
      </trkpt>
      <trkpt lat="45.82413" lon="3.04217">
        <ele>551</ele>
        <time>2021-05-22T11:43:16Z</time>
      </trkpt>
      <trkpt lat="45.82411" lon="3.04217">
        <ele>551</ele>
        <time>2021-05-22T11:43:18Z</time>
      </trkpt>
      <trkpt lat="45.82408" lon="3.04216">
        <ele>551</ele>
        <time>2021-05-22T11:43:20Z</time>
      </trkpt>
      <trkpt lat="45.82405" lon="3.04216">
        <ele>551</ele>
        <time>2021-05-22T11:43:22Z</time>
      </trkpt>
      <trkpt lat="45.82401" lon="3.04216">
        <ele>551</ele>
        <time>2021-05-22T11:43:24Z</time>
      </trkpt>
      <trkpt lat="45.82399" lon="3.04216">
        <ele>551</ele>
        <time>2021-05-22T11:43:25Z</time>
      </trkpt>
      <trkpt lat="45.82396" lon="3.04217">
        <ele>551</ele>
        <time>2021-05-22T11:43:29Z</time>
      </trkpt>
      <trkpt lat="45.82395" lon="3.04217">
        <ele>551</ele>
        <time>2021-05-22T11:43:31Z</time>
      </trkpt>
      <trkpt lat="45.82394" lon="3.04219">
        <ele>551</ele>
        <time>2021-05-22T11:43:33Z</time>
      </trkpt>
      <trkpt lat="45.82394" lon="3.04221">
        <ele>551</ele>
        <time>2021-05-22T11:43:35Z</time>
      </trkpt>
      <trkpt lat="45.82396" lon="3.04223">
        <ele>551</ele>
        <time>2021-05-22T11:43:37Z</time>
      </trkpt>
      <trkpt lat="45.82396" lon="3.04226">
        <ele>551</ele>
        <time>2021-05-22T11:43:39Z</time>
      </trkpt>
      <trkpt lat="45.82398" lon="3.04228">
        <ele>551</ele>
        <time>2021-05-22T11:43:41Z</time>
      </trkpt>
      <trkpt lat="45.82399" lon="3.04231">
        <ele>551</ele>
        <time>2021-05-22T11:43:43Z</time>
      </trkpt>
      <trkpt lat="45.82399" lon="3.04233">
        <ele>551</ele>
        <time>2021-05-22T11:43:45Z</time>
      </trkpt>
      <trkpt lat="45.82399" lon="3.04234">
        <ele>551</ele>
        <time>2021-05-22T11:43:47Z</time>
      </trkpt>
      <trkpt lat="45.824" lon="3.04236">
        <ele>551</ele>
        <time>2021-05-22T11:43:49Z</time>
      </trkpt>
      <trkpt lat="45.824" lon="3.04239">
        <ele>551</ele>
        <time>2021-05-22T11:43:51Z</time>
      </trkpt>
      <trkpt lat="45.82399" lon="3.04245">
        <ele>551</ele>
        <time>2021-05-22T11:43:55Z</time>
      </trkpt>
      <trkpt lat="45.82399" lon="3.04246">
        <ele>551</ele>
        <time>2021-05-22T11:43:57Z</time>
      </trkpt>
      <trkpt lat="45.82399" lon="3.04248">
        <ele>551</ele>
        <time>2021-05-22T11:43:59Z</time>
      </trkpt>
      <trkpt lat="45.82399" lon="3.0425">
        <ele>551</ele>
        <time>2021-05-22T11:44:01Z</time>
      </trkpt>
      <trkpt lat="45.82399" lon="3.04252">
        <ele>551</ele>
        <time>2021-05-22T11:44:03Z</time>
      </trkpt>
      <trkpt lat="45.82398" lon="3.04255">
        <ele>551</ele>
        <time>2021-05-22T11:44:05Z</time>
      </trkpt>
      <trkpt lat="45.82398" lon="3.04257">
        <ele>551</ele>
        <time>2021-05-22T11:44:07Z</time>
      </trkpt>
      <trkpt lat="45.82398" lon="3.0426">
        <ele>551</ele>
        <time>2021-05-22T11:44:09Z</time>
      </trkpt>
      <trkpt lat="45.82398" lon="3.04263">
        <ele>551</ele>
        <time>2021-05-22T11:44:11Z</time>
      </trkpt>
      <trkpt lat="45.82398" lon="3.04265">
        <ele>551</ele>
        <time>2021-05-22T11:44:13Z</time>
      </trkpt>
      <trkpt lat="45.82398" lon="3.04268">
        <ele>551</ele>
        <time>2021-05-22T11:44:15Z</time>
      </trkpt>
      <trkpt lat="45.82398" lon="3.04271">
        <ele>551</ele>
        <time>2021-05-22T11:44:17Z</time>
      </trkpt>
      <trkpt lat="45.82398" lon="3.04274">
        <ele>551</ele>
        <time>2021-05-22T11:44:19Z</time>
      </trkpt>
      <trkpt lat="45.82398" lon="3.04277">
        <ele>551</ele>
        <time>2021-05-22T11:44:21Z</time>
      </trkpt>
      <trkpt lat="45.82398" lon="3.04281">
        <ele>551</ele>
        <time>2021-05-22T11:44:23Z</time>
      </trkpt>
      <trkpt lat="45.82396" lon="3.04289">
        <ele>551</ele>
        <time>2021-05-22T11:44:27Z</time>
      </trkpt>
      <trkpt lat="45.82397" lon="3.0429">
        <ele>551</ele>
        <time>2021-05-22T11:44:29Z</time>
      </trkpt>
      <trkpt lat="45.82396" lon="3.043">
        <ele>551</ele>
        <time>2021-05-22T11:44:35Z</time>
      </trkpt>
      <trkpt lat="45.82396" lon="3.04301">
        <ele>551</ele>
        <time>2021-05-22T11:44:37Z</time>
      </trkpt>
      <trkpt lat="45.82395" lon="3.04302">
        <ele>551</ele>
        <time>2021-05-22T11:44:39Z</time>
      </trkpt>
      <trkpt lat="45.82393" lon="3.04311">
        <ele>551</ele>
        <time>2021-05-22T11:44:43Z</time>
      </trkpt>
      <trkpt lat="45.82393" lon="3.04312">
        <ele>551</ele>
        <time>2021-05-22T11:44:45Z</time>
      </trkpt>
      <trkpt lat="45.82393" lon="3.04314">
        <ele>551</ele>
        <time>2021-05-22T11:44:47Z</time>
      </trkpt>
      <trkpt lat="45.82391" lon="3.04318">
        <ele>551</ele>
        <time>2021-05-22T11:44:49Z</time>
      </trkpt>
      <trkpt lat="45.8239" lon="3.04321">
        <ele>551</ele>
        <time>2021-05-22T11:44:51Z</time>
      </trkpt>
      <trkpt lat="45.82388" lon="3.04324">
        <ele>551</ele>
        <time>2021-05-22T11:44:53Z</time>
      </trkpt>
      <trkpt lat="45.82387" lon="3.04326">
        <ele>551</ele>
        <time>2021-05-22T11:44:55Z</time>
      </trkpt>
      <trkpt lat="45.82386" lon="3.04328">
        <ele>551</ele>
        <time>2021-05-22T11:44:57Z</time>
      </trkpt>
      <trkpt lat="45.82384" lon="3.04331">
        <ele>551</ele>
        <time>2021-05-22T11:44:59Z</time>
      </trkpt>
      <trkpt lat="45.82383" lon="3.04333">
        <ele>551</ele>
        <time>2021-05-22T11:45:01Z</time>
      </trkpt>
      <trkpt lat="45.82381" lon="3.04336">
        <ele>551</ele>
        <time>2021-05-22T11:45:03Z</time>
      </trkpt>
      <trkpt lat="45.82376" lon="3.04346">
        <ele>551</ele>
        <time>2021-05-22T11:45:07Z</time>
      </trkpt>
      <trkpt lat="45.82375" lon="3.04346">
        <ele>551</ele>
        <time>2021-05-22T11:45:09Z</time>
      </trkpt>
      <trkpt lat="45.82375" lon="3.04348">
        <ele>551</ele>
        <time>2021-05-22T11:45:11Z</time>
      </trkpt>
      <trkpt lat="45.82375" lon="3.04349">
        <ele>551</ele>
        <time>2021-05-22T11:45:13Z</time>
      </trkpt>
      <trkpt lat="45.82374" lon="3.04352">
        <ele>551</ele>
        <time>2021-05-22T11:45:15Z</time>
      </trkpt>
      <trkpt lat="45.82373" lon="3.04354">
        <ele>551</ele>
        <time>2021-05-22T11:45:17Z</time>
      </trkpt>
      <trkpt lat="45.82372" lon="3.04357">
        <ele>551</ele>
        <time>2021-05-22T11:45:19Z</time>
      </trkpt>
      <trkpt lat="45.8237" lon="3.04359">
        <ele>551</ele>
        <time>2021-05-22T11:45:21Z</time>
      </trkpt>
      <trkpt lat="45.82369" lon="3.0436">
        <ele>551</ele>
        <time>2021-05-22T11:45:23Z</time>
      </trkpt>
      <trkpt lat="45.82361" lon="3.04368">
        <ele>551</ele>
        <time>2021-05-22T11:45:27Z</time>
      </trkpt>
      <trkpt lat="45.8236" lon="3.04369">
        <ele>551</ele>
        <time>2021-05-22T11:45:29Z</time>
      </trkpt>
      <trkpt lat="45.82359" lon="3.0437">
        <ele>551</ele>
        <time>2021-05-22T11:45:31Z</time>
      </trkpt>
      <trkpt lat="45.82356" lon="3.04372">
        <ele>551</ele>
        <time>2021-05-22T11:45:33Z</time>
      </trkpt>
      <trkpt lat="45.82354" lon="3.04374">
        <ele>551</ele>
        <time>2021-05-22T11:45:35Z</time>
      </trkpt>
      <trkpt lat="45.8235" lon="3.04376">
        <ele>551</ele>
        <time>2021-05-22T11:45:37Z</time>
      </trkpt>
      <trkpt lat="45.82347" lon="3.04377">
        <ele>551</ele>
        <time>2021-05-22T11:45:39Z</time>
      </trkpt>
      <trkpt lat="45.82344" lon="3.04379">
        <ele>551</ele>
        <time>2021-05-22T11:45:41Z</time>
      </trkpt>
      <trkpt lat="45.82342" lon="3.0438">
        <ele>551</ele>
        <time>2021-05-22T11:45:43Z</time>
      </trkpt>
      <trkpt lat="45.82335" lon="3.04385">
        <ele>551</ele>
        <time>2021-05-22T11:45:49Z</time>
      </trkpt>
      <trkpt lat="45.82334" lon="3.04385">
        <ele>551</ele>
        <time>2021-05-22T11:45:51Z</time>
      </trkpt>
      <trkpt lat="45.82332" lon="3.04387">
        <ele>551</ele>
        <time>2021-05-22T11:45:53Z</time>
      </trkpt>
      <trkpt lat="45.82331" lon="3.04389">
        <ele>551</ele>
        <time>2021-05-22T11:45:55Z</time>
      </trkpt>
      <trkpt lat="45.82329" lon="3.04392">
        <ele>551</ele>
        <time>2021-05-22T11:45:57Z</time>
      </trkpt>
      <trkpt lat="45.82327" lon="3.04395">
        <ele>551</ele>
        <time>2021-05-22T11:45:59Z</time>
      </trkpt>
      <trkpt lat="45.82325" lon="3.04398">
        <ele>551</ele>
        <time>2021-05-22T11:46:01Z</time>
      </trkpt>
      <trkpt lat="45.82323" lon="3.04401">
        <ele>551</ele>
        <time>2021-05-22T11:46:03Z</time>
      </trkpt>
      <trkpt lat="45.82321" lon="3.04403">
        <ele>551</ele>
        <time>2021-05-22T11:46:05Z</time>
      </trkpt>
      <trkpt lat="45.8232" lon="3.04406">
        <ele>551</ele>
        <time>2021-05-22T11:46:07Z</time>
      </trkpt>
      <trkpt lat="45.82318" lon="3.04409">
        <ele>551</ele>
        <time>2021-05-22T11:46:09Z</time>
      </trkpt>
      <trkpt lat="45.82317" lon="3.04411">
        <ele>551</ele>
        <time>2021-05-22T11:46:11Z</time>
      </trkpt>
      <trkpt lat="45.82315" lon="3.04414">
        <ele>551</ele>
        <time>2021-05-22T11:46:13Z</time>
      </trkpt>
      <trkpt lat="45.82313" lon="3.04416">
        <ele>551</ele>
        <time>2021-05-22T11:46:15Z</time>
      </trkpt>
      <trkpt lat="45.82308" lon="3.04429">
        <ele>551</ele>
        <time>2021-05-22T11:46:23Z</time>
      </trkpt>
      <trkpt lat="45.82308" lon="3.04433">
        <ele>551</ele>
        <time>2021-05-22T11:46:27Z</time>
      </trkpt>
      <trkpt lat="45.82308" lon="3.04435">
        <ele>551</ele>
        <time>2021-05-22T11:46:29Z</time>
      </trkpt>
      <trkpt lat="45.82307" lon="3.04438">
        <ele>551</ele>
        <time>2021-05-22T11:46:31Z</time>
      </trkpt>
      <trkpt lat="45.82307" lon="3.04443">
        <ele>551</ele>
        <time>2021-05-22T11:46:33Z</time>
      </trkpt>
      <trkpt lat="45.82307" lon="3.04448">
        <ele>551</ele>
        <time>2021-05-22T11:46:35Z</time>
      </trkpt>
      <trkpt lat="45.82307" lon="3.04453">
        <ele>551</ele>
        <time>2021-05-22T11:46:37Z</time>
      </trkpt>
      <trkpt lat="45.82307" lon="3.04458">
        <ele>551</ele>
        <time>2021-05-22T11:46:39Z</time>
      </trkpt>
      <trkpt lat="45.82308" lon="3.04462">
        <ele>551</ele>
        <time>2021-05-22T11:46:41Z</time>
      </trkpt>
      <trkpt lat="45.82308" lon="3.04467">
        <ele>551</ele>
        <time>2021-05-22T11:46:43Z</time>
      </trkpt>
      <trkpt lat="45.82307" lon="3.04471">
        <ele>551</ele>
        <time>2021-05-22T11:46:45Z</time>
      </trkpt>
      <trkpt lat="45.82307" lon="3.04474">
        <ele>551</ele>
        <time>2021-05-22T11:46:47Z</time>
      </trkpt>
      <trkpt lat="45.82306" lon="3.04478">
        <ele>551</ele>
        <time>2021-05-22T11:46:49Z</time>
      </trkpt>
      <trkpt lat="45.82305" lon="3.04482">
        <ele>551</ele>
        <time>2021-05-22T11:46:51Z</time>
      </trkpt>
      <trkpt lat="45.82304" lon="3.04485">
        <ele>551</ele>
        <time>2021-05-22T11:46:53Z</time>
      </trkpt>
      <trkpt lat="45.82303" lon="3.04488">
        <ele>551</ele>
        <time>2021-05-22T11:46:55Z</time>
      </trkpt>
      <trkpt lat="45.82301" lon="3.04491">
        <ele>551</ele>
        <time>2021-05-22T11:46:57Z</time>
      </trkpt>
      <trkpt lat="45.82299" lon="3.04494">
        <ele>551</ele>
        <time>2021-05-22T11:46:59Z</time>
      </trkpt>
      <trkpt lat="45.82297" lon="3.04496">
        <ele>551</ele>
        <time>2021-05-22T11:47:01Z</time>
      </trkpt>
      <trkpt lat="45.82296" lon="3.04499">
        <ele>551</ele>
        <time>2021-05-22T11:47:03Z</time>
      </trkpt>
      <trkpt lat="45.82293" lon="3.04501">
        <ele>551</ele>
        <time>2021-05-22T11:47:05Z</time>
      </trkpt>
      <trkpt lat="45.82292" lon="3.04503">
        <ele>551</ele>
        <time>2021-05-22T11:47:07Z</time>
      </trkpt>
      <trkpt lat="45.8229" lon="3.04507">
        <ele>551</ele>
        <time>2021-05-22T11:47:09Z</time>
      </trkpt>
      <trkpt lat="45.82283" lon="3.04518">
        <ele>551</ele>
        <time>2021-05-22T11:47:19Z</time>
      </trkpt>
      <trkpt lat="45.82283" lon="3.04519">
        <ele>551</ele>
        <time>2021-05-22T11:47:21Z</time>
      </trkpt>
      <trkpt lat="45.82281" lon="3.04522">
        <ele>551</ele>
        <time>2021-05-22T11:47:23Z</time>
      </trkpt>
      <trkpt lat="45.8228" lon="3.04526">
        <ele>551</ele>
        <time>2021-05-22T11:47:25Z</time>
      </trkpt>
      <trkpt lat="45.82278" lon="3.0453">
        <ele>551</ele>
        <time>2021-05-22T11:47:27Z</time>
      </trkpt>
      <trkpt lat="45.82276" lon="3.04534">
        <ele>551</ele>
        <time>2021-05-22T11:47:29Z</time>
      </trkpt>
      <trkpt lat="45.82275" lon="3.04538">
        <ele>551</ele>
        <time>2021-05-22T11:47:31Z</time>
      </trkpt>
      <trkpt lat="45.82272" lon="3.04541">
        <ele>551</ele>
        <time>2021-05-22T11:47:33Z</time>
      </trkpt>
      <trkpt lat="45.82269" lon="3.04544">
        <ele>551</ele>
        <time>2021-05-22T11:47:35Z</time>
      </trkpt>
      <trkpt lat="45.82266" lon="3.04547">
        <ele>551</ele>
        <time>2021-05-22T11:47:37Z</time>
      </trkpt>
      <trkpt lat="45.82264" lon="3.04549">
        <ele>551</ele>
        <time>2021-05-22T11:47:39Z</time>
      </trkpt>
      <trkpt lat="45.82261" lon="3.0455">
        <ele>551</ele>
        <time>2021-05-22T11:47:40Z</time>
      </trkpt>
      <trkpt lat="45.82258" lon="3.04551">
        <ele>551</ele>
        <time>2021-05-22T11:47:42Z</time>
      </trkpt>
      <trkpt lat="45.82255" lon="3.04552">
        <ele>551</ele>
        <time>2021-05-22T11:47:44Z</time>
      </trkpt>
      <trkpt lat="45.82253" lon="3.04552">
        <ele>551</ele>
        <time>2021-05-22T11:47:46Z</time>
      </trkpt>
      <trkpt lat="45.8225" lon="3.04552">
        <ele>551</ele>
        <time>2021-05-22T11:47:48Z</time>
      </trkpt>
      <trkpt lat="45.82246" lon="3.04551">
        <ele>551</ele>
        <time>2021-05-22T11:47:50Z</time>
      </trkpt>
      <trkpt lat="45.82244" lon="3.0455">
        <ele>551</ele>
        <time>2021-05-22T11:47:52Z</time>
      </trkpt>
      <trkpt lat="45.82237" lon="3.04548">
        <ele>551</ele>
        <time>2021-05-22T11:47:56Z</time>
      </trkpt>
      <trkpt lat="45.82236" lon="3.04547">
        <ele>551</ele>
        <time>2021-05-22T11:47:58Z</time>
      </trkpt>
      <trkpt lat="45.82235" lon="3.04546">
        <ele>551</ele>
        <time>2021-05-22T11:48:00Z</time>
      </trkpt>
      <trkpt lat="45.82234" lon="3.04545">
        <ele>551</ele>
        <time>2021-05-22T11:48:02Z</time>
      </trkpt>
      <trkpt lat="45.82233" lon="3.04543">
        <ele>551</ele>
        <time>2021-05-22T11:48:04Z</time>
      </trkpt>
      <trkpt lat="45.82231" lon="3.04541">
        <ele>551</ele>
        <time>2021-05-22T11:48:06Z</time>
      </trkpt>
      <trkpt lat="45.8223" lon="3.04538">
        <ele>551</ele>
        <time>2021-05-22T11:48:08Z</time>
      </trkpt>
      <trkpt lat="45.82229" lon="3.04535">
        <ele>551</ele>
        <time>2021-05-22T11:48:10Z</time>
      </trkpt>
      <trkpt lat="45.82227" lon="3.04532">
        <ele>551</ele>
        <time>2021-05-22T11:48:12Z</time>
      </trkpt>
      <trkpt lat="45.82227" lon="3.04529">
        <ele>551</ele>
        <time>2021-05-22T11:48:14Z</time>
      </trkpt>
      <trkpt lat="45.82225" lon="3.04525">
        <ele>551</ele>
        <time>2021-05-22T11:48:16Z</time>
      </trkpt>
      <trkpt lat="45.82221" lon="3.04512">
        <ele>551</ele>
        <time>2021-05-22T11:48:22Z</time>
      </trkpt>
      <trkpt lat="45.82221" lon="3.04511">
        <ele>551</ele>
        <time>2021-05-22T11:48:24Z</time>
      </trkpt>
      <trkpt lat="45.8222" lon="3.04508">
        <ele>551</ele>
        <time>2021-05-22T11:48:26Z</time>
      </trkpt>
      <trkpt lat="45.82219" lon="3.04506">
        <ele>551</ele>
        <time>2021-05-22T11:48:28Z</time>
      </trkpt>
      <trkpt lat="45.82218" lon="3.04504">
        <ele>551</ele>
        <time>2021-05-22T11:48:30Z</time>
      </trkpt>
      <trkpt lat="45.82217" lon="3.04501">
        <ele>551</ele>
        <time>2021-05-22T11:48:32Z</time>
      </trkpt>
      <trkpt lat="45.82216" lon="3.04497">
        <ele>551</ele>
        <time>2021-05-22T11:48:34Z</time>
      </trkpt>
      <trkpt lat="45.82214" lon="3.04494">
        <ele>551</ele>
        <time>2021-05-22T11:48:36Z</time>
      </trkpt>
      <trkpt lat="45.82214" lon="3.0449">
        <ele>551</ele>
        <time>2021-05-22T11:48:38Z</time>
      </trkpt>
      <trkpt lat="45.82212" lon="3.04486">
        <ele>551</ele>
        <time>2021-05-22T11:48:40Z</time>
      </trkpt>
      <trkpt lat="45.82212" lon="3.04482">
        <ele>551</ele>
        <time>2021-05-22T11:48:42Z</time>
      </trkpt>
      <trkpt lat="45.82212" lon="3.04478">
        <ele>551</ele>
        <time>2021-05-22T11:48:44Z</time>
      </trkpt>
      <trkpt lat="45.82212" lon="3.04475">
        <ele>551</ele>
        <time>2021-05-22T11:48:46Z</time>
      </trkpt>
      <trkpt lat="45.82212" lon="3.04471">
        <ele>551</ele>
        <time>2021-05-22T11:48:48Z</time>
      </trkpt>
      <trkpt lat="45.82213" lon="3.04467">
        <ele>551</ele>
        <time>2021-05-22T11:48:50Z</time>
      </trkpt>
      <trkpt lat="45.82214" lon="3.04463">
        <ele>551</ele>
        <time>2021-05-22T11:48:52Z</time>
      </trkpt>
      <trkpt lat="45.82214" lon="3.04459">
        <ele>551</ele>
        <time>2021-05-22T11:48:54Z</time>
      </trkpt>
      <trkpt lat="45.82215" lon="3.04455">
        <ele>551</ele>
        <time>2021-05-22T11:48:56Z</time>
      </trkpt>
      <trkpt lat="45.82215" lon="3.04451">
        <ele>551</ele>
        <time>2021-05-22T11:48:58Z</time>
      </trkpt>
      <trkpt lat="45.82215" lon="3.04447">
        <ele>551</ele>
        <time>2021-05-22T11:49:00Z</time>
      </trkpt>
      <trkpt lat="45.82215" lon="3.04442">
        <ele>551</ele>
        <time>2021-05-22T11:49:02Z</time>
      </trkpt>
      <trkpt lat="45.82215" lon="3.04438">
        <ele>551</ele>
        <time>2021-05-22T11:49:04Z</time>
      </trkpt>
      <trkpt lat="45.82214" lon="3.04434">
        <ele>551</ele>
        <time>2021-05-22T11:49:06Z</time>
      </trkpt>
      <trkpt lat="45.82212" lon="3.0443">
        <ele>551</ele>
        <time>2021-05-22T11:49:08Z</time>
      </trkpt>
      <trkpt lat="45.82212" lon="3.04426">
        <ele>551</ele>
        <time>2021-05-22T11:49:10Z</time>
      </trkpt>
      <trkpt lat="45.82211" lon="3.04423">
        <ele>551</ele>
        <time>2021-05-22T11:49:12Z</time>
      </trkpt>
      <trkpt lat="45.82209" lon="3.0442">
        <ele>551</ele>
        <time>2021-05-22T11:49:14Z</time>
      </trkpt>
      <trkpt lat="45.82208" lon="3.04417">
        <ele>551</ele>
        <time>2021-05-22T11:49:16Z</time>
      </trkpt>
      <trkpt lat="45.82206" lon="3.04415">
        <ele>551</ele>
        <time>2021-05-22T11:49:18Z</time>
      </trkpt>
      <trkpt lat="45.82203" lon="3.04412">
        <ele>551</ele>
        <time>2021-05-22T11:49:20Z</time>
      </trkpt>
      <trkpt lat="45.82201" lon="3.04409">
        <ele>551</ele>
        <time>2021-05-22T11:49:22Z</time>
      </trkpt>
      <trkpt lat="45.822" lon="3.04407">
        <ele>551</ele>
        <time>2021-05-22T11:49:24Z</time>
      </trkpt>
      <trkpt lat="45.82197" lon="3.04404">
        <ele>551</ele>
        <time>2021-05-22T11:49:26Z</time>
      </trkpt>
      <trkpt lat="45.82195" lon="3.04401">
        <ele>551</ele>
        <time>2021-05-22T11:49:28Z</time>
      </trkpt>
      <trkpt lat="45.82193" lon="3.04398">
        <ele>551</ele>
        <time>2021-05-22T11:49:30Z</time>
      </trkpt>
      <trkpt lat="45.82191" lon="3.04395">
        <ele>551</ele>
        <time>2021-05-22T11:49:32Z</time>
      </trkpt>
      <trkpt lat="45.82188" lon="3.04392">
        <ele>551</ele>
        <time>2021-05-22T11:49:34Z</time>
      </trkpt>
      <trkpt lat="45.82186" lon="3.04389">
        <ele>551</ele>
        <time>2021-05-22T11:49:36Z</time>
      </trkpt>
      <trkpt lat="45.82184" lon="3.04386">
        <ele>551</ele>
        <time>2021-05-22T11:49:38Z</time>
      </trkpt>
      <trkpt lat="45.82182" lon="3.04383">
        <ele>551</ele>
        <time>2021-05-22T11:49:40Z</time>
      </trkpt>
      <trkpt lat="45.8218" lon="3.0438">
        <ele>551</ele>
        <time>2021-05-22T11:49:42Z</time>
      </trkpt>
      <trkpt lat="45.82178" lon="3.04377">
        <ele>551</ele>
        <time>2021-05-22T11:49:44Z</time>
      </trkpt>
      <trkpt lat="45.82176" lon="3.04375">
        <ele>551</ele>
        <time>2021-05-22T11:49:46Z</time>
      </trkpt>
      <trkpt lat="45.82174" lon="3.04373">
        <ele>551</ele>
        <time>2021-05-22T11:49:48Z</time>
      </trkpt>
      <trkpt lat="45.82172" lon="3.04371">
        <ele>551</ele>
        <time>2021-05-22T11:49:50Z</time>
      </trkpt>
      <trkpt lat="45.8217" lon="3.04368">
        <ele>551</ele>
        <time>2021-05-22T11:49:52Z</time>
      </trkpt>
      <trkpt lat="45.82167" lon="3.04365">
        <ele>551</ele>
        <time>2021-05-22T11:49:54Z</time>
      </trkpt>
      <trkpt lat="45.82164" lon="3.04362">
        <ele>551</ele>
        <time>2021-05-22T11:49:56Z</time>
      </trkpt>
      <trkpt lat="45.82162" lon="3.04359">
        <ele>551</ele>
        <time>2021-05-22T11:49:58Z</time>
      </trkpt>
      <trkpt lat="45.8216" lon="3.04357">
        <ele>551</ele>
        <time>2021-05-22T11:50:00Z</time>
      </trkpt>
      <trkpt lat="45.82158" lon="3.04355">
        <ele>551</ele>
        <time>2021-05-22T11:50:02Z</time>
      </trkpt>
      <trkpt lat="45.82155" lon="3.04353">
        <ele>551</ele>
        <time>2021-05-22T11:50:04Z</time>
      </trkpt>
      <trkpt lat="45.82153" lon="3.04351">
        <ele>551</ele>
        <time>2021-05-22T11:50:06Z</time>
      </trkpt>
      <trkpt lat="45.82151" lon="3.04348">
        <ele>551</ele>
        <time>2021-05-22T11:50:08Z</time>
      </trkpt>
      <trkpt lat="45.82149" lon="3.04346">
        <ele>551</ele>
        <time>2021-05-22T11:50:10Z</time>
      </trkpt>
      <trkpt lat="45.82147" lon="3.04343">
        <ele>551</ele>
        <time>2021-05-22T11:50:12Z</time>
      </trkpt>
      <trkpt lat="45.82144" lon="3.0434">
        <ele>551</ele>
        <time>2021-05-22T11:50:14Z</time>
      </trkpt>
      <trkpt lat="45.82142" lon="3.04337">
        <ele>551</ele>
        <time>2021-05-22T11:50:16Z</time>
      </trkpt>
      <trkpt lat="45.82139" lon="3.04333">
        <ele>551</ele>
        <time>2021-05-22T11:50:18Z</time>
      </trkpt>
      <trkpt lat="45.82138" lon="3.0433">
        <ele>551</ele>
        <time>2021-05-22T11:50:20Z</time>
      </trkpt>
      <trkpt lat="45.82138" lon="3.04326">
        <ele>551</ele>
        <time>2021-05-22T11:50:22Z</time>
      </trkpt>
      <trkpt lat="45.82139" lon="3.04323">
        <ele>551</ele>
        <time>2021-05-22T11:50:24Z</time>
      </trkpt>
      <trkpt lat="45.82139" lon="3.04319">
        <ele>551</ele>
        <time>2021-05-22T11:50:26Z</time>
      </trkpt>
      <trkpt lat="45.82141" lon="3.04316">
        <ele>551</ele>
        <time>2021-05-22T11:50:28Z</time>
      </trkpt>
      <trkpt lat="45.82143" lon="3.04313">
        <ele>551</ele>
        <time>2021-05-22T11:50:30Z</time>
      </trkpt>
      <trkpt lat="45.82145" lon="3.0431">
        <ele>551</ele>
        <time>2021-05-22T11:50:32Z</time>
      </trkpt>
      <trkpt lat="45.82146" lon="3.04307">
        <ele>551</ele>
        <time>2021-05-22T11:50:34Z</time>
      </trkpt>
      <trkpt lat="45.82148" lon="3.04304">
        <ele>551</ele>
        <time>2021-05-22T11:50:36Z</time>
      </trkpt>
      <trkpt lat="45.8215" lon="3.04301">
        <ele>551</ele>
        <time>2021-05-22T11:50:38Z</time>
      </trkpt>
      <trkpt lat="45.82152" lon="3.04299">
        <ele>551</ele>
        <time>2021-05-22T11:50:40Z</time>
      </trkpt>
      <trkpt lat="45.82153" lon="3.04296">
        <ele>551</ele>
        <time>2021-05-22T11:50:42Z</time>
      </trkpt>
      <trkpt lat="45.82155" lon="3.04293">
        <ele>551</ele>
        <time>2021-05-22T11:50:44Z</time>
      </trkpt>
      <trkpt lat="45.82156" lon="3.0429">
        <ele>551</ele>
        <time>2021-05-22T11:50:46Z</time>
      </trkpt>
      <trkpt lat="45.82158" lon="3.04288">
        <ele>551</ele>
        <time>2021-05-22T11:50:48Z</time>
      </trkpt>
      <trkpt lat="45.82163" lon="3.04278">
        <ele>551</ele>
        <time>2021-05-22T11:50:52Z</time>
      </trkpt>
      <trkpt lat="45.82163" lon="3.04277">
        <ele>551</ele>
        <time>2021-05-22T11:50:54Z</time>
      </trkpt>
      <trkpt lat="45.82164" lon="3.04275">
        <ele>551</ele>
        <time>2021-05-22T11:50:56Z</time>
      </trkpt>
      <trkpt lat="45.82166" lon="3.04271">
        <ele>551</ele>
        <time>2021-05-22T11:50:58Z</time>
      </trkpt>
      <trkpt lat="45.82167" lon="3.04268">
        <ele>551</ele>
        <time>2021-05-22T11:51:00Z</time>
      </trkpt>
      <trkpt lat="45.82168" lon="3.04264">
        <ele>551</ele>
        <time>2021-05-22T11:51:02Z</time>
      </trkpt>
      <trkpt lat="45.8217" lon="3.0426">
        <ele>551</ele>
        <time>2021-05-22T11:51:04Z</time>
      </trkpt>
      <trkpt lat="45.82171" lon="3.04256">
        <ele>551</ele>
        <time>2021-05-22T11:51:06Z</time>
      </trkpt>
      <trkpt lat="45.82172" lon="3.04252">
        <ele>551</ele>
        <time>2021-05-22T11:51:08Z</time>
      </trkpt>
      <trkpt lat="45.82173" lon="3.04249">
        <ele>551</ele>
        <time>2021-05-22T11:51:10Z</time>
      </trkpt>
      <trkpt lat="45.82174" lon="3.04245">
        <ele>551</ele>
        <time>2021-05-22T11:51:12Z</time>
      </trkpt>
      <trkpt lat="45.82175" lon="3.0424">
        <ele>551</ele>
        <time>2021-05-22T11:51:14Z</time>
      </trkpt>
      <trkpt lat="45.82176" lon="3.04236">
        <ele>551</ele>
        <time>2021-05-22T11:51:16Z</time>
      </trkpt>
      <trkpt lat="45.8218" lon="3.04221">
        <ele>551</ele>
        <time>2021-05-22T11:51:20Z</time>
      </trkpt>
      <trkpt lat="45.82182" lon="3.04217">
        <ele>551</ele>
        <time>2021-05-22T11:51:24Z</time>
      </trkpt>
      <trkpt lat="45.82182" lon="3.04215">
        <ele>551</ele>
        <time>2021-05-22T11:51:26Z</time>
      </trkpt>
      <trkpt lat="45.82184" lon="3.04213">
        <ele>551</ele>
        <time>2021-05-22T11:51:28Z</time>
      </trkpt>
      <trkpt lat="45.82185" lon="3.04209">
        <ele>551</ele>
        <time>2021-05-22T11:51:30Z</time>
      </trkpt>
      <trkpt lat="45.82188" lon="3.04205">
        <ele>551</ele>
        <time>2021-05-22T11:51:32Z</time>
      </trkpt>
      <trkpt lat="45.8219" lon="3.04202">
        <ele>551</ele>
        <time>2021-05-22T11:51:34Z</time>
      </trkpt>
      <trkpt lat="45.82191" lon="3.04198">
        <ele>551</ele>
        <time>2021-05-22T11:51:36Z</time>
      </trkpt>
      <trkpt lat="45.82193" lon="3.04195">
        <ele>551</ele>
        <time>2021-05-22T11:51:38Z</time>
      </trkpt>
      <trkpt lat="45.82194" lon="3.04192">
        <ele>551</ele>
        <time>2021-05-22T11:51:40Z</time>
      </trkpt>
      <trkpt lat="45.822" lon="3.0418">
        <ele>551</ele>
        <time>2021-05-22T11:51:46Z</time>
      </trkpt>
      <trkpt lat="45.822" lon="3.04179">
        <ele>551</ele>
        <time>2021-05-22T11:51:48Z</time>
      </trkpt>
      <trkpt lat="45.822" lon="3.04176">
        <ele>551</ele>
        <time>2021-05-22T11:51:50Z</time>
      </trkpt>
      <trkpt lat="45.82201" lon="3.04172">
        <ele>551</ele>
        <time>2021-05-22T11:51:52Z</time>
      </trkpt>
      <trkpt lat="45.82203" lon="3.04168">
        <ele>551</ele>
        <time>2021-05-22T11:51:54Z</time>
      </trkpt>
      <trkpt lat="45.82204" lon="3.04163">
        <ele>551</ele>
        <time>2021-05-22T11:51:55Z</time>
      </trkpt>
      <trkpt lat="45.82206" lon="3.04158">
        <ele>551</ele>
        <time>2021-05-22T11:51:57Z</time>
      </trkpt>
      <trkpt lat="45.82209" lon="3.04141">
        <ele>551</ele>
        <time>2021-05-22T11:52:03Z</time>
      </trkpt>
      <trkpt lat="45.82208" lon="3.0414">
        <ele>551</ele>
        <time>2021-05-22T11:52:05Z</time>
      </trkpt>
      <trkpt lat="45.82208" lon="3.04137">
        <ele>551</ele>
        <time>2021-05-22T11:52:07Z</time>
      </trkpt>
      <trkpt lat="45.82208" lon="3.04134">
        <ele>551</ele>
        <time>2021-05-22T11:52:09Z</time>
      </trkpt>
      <trkpt lat="45.82209" lon="3.0413">
        <ele>551</ele>
        <time>2021-05-22T11:52:11Z</time>
      </trkpt>
      <trkpt lat="45.82209" lon="3.04127">
        <ele>551</ele>
        <time>2021-05-22T11:52:13Z</time>
      </trkpt>
      <trkpt lat="45.82211" lon="3.04114">
        <ele>551</ele>
        <time>2021-05-22T11:52:17Z</time>
      </trkpt>
      <trkpt lat="45.82211" lon="3.04113">
        <ele>551</ele>
        <time>2021-05-22T11:52:19Z</time>
      </trkpt>
      <trkpt lat="45.82212" lon="3.0411">
        <ele>551</ele>
        <time>2021-05-22T11:52:21Z</time>
      </trkpt>
      <trkpt lat="45.82212" lon="3.04106">
        <ele>551</ele>
        <time>2021-05-22T11:52:23Z</time>
      </trkpt>
      <trkpt lat="45.82212" lon="3.04102">
        <ele>551</ele>
        <time>2021-05-22T11:52:25Z</time>
      </trkpt>
      <trkpt lat="45.82211" lon="3.04097">
        <ele>551</ele>
        <time>2021-05-22T11:52:27Z</time>
      </trkpt>
      <trkpt lat="45.82211" lon="3.04092">
        <ele>551</ele>
        <time>2021-05-22T11:52:29Z</time>
      </trkpt>
      <trkpt lat="45.82211" lon="3.04088">
        <ele>551</ele>
        <time>2021-05-22T11:52:31Z</time>
      </trkpt>
      <trkpt lat="45.8221" lon="3.04083">
        <ele>551</ele>
        <time>2021-05-22T11:52:33Z</time>
      </trkpt>
      <trkpt lat="45.8221" lon="3.04078">
        <ele>551</ele>
        <time>2021-05-22T11:52:35Z</time>
      </trkpt>
      <trkpt lat="45.8221" lon="3.04074">
        <ele>551</ele>
        <time>2021-05-22T11:52:37Z</time>
      </trkpt>
      <trkpt lat="45.82209" lon="3.0407">
        <ele>551</ele>
        <time>2021-05-22T11:52:39Z</time>
      </trkpt>
      <trkpt lat="45.82209" lon="3.04066">
        <ele>551</ele>
        <time>2021-05-22T11:52:41Z</time>
      </trkpt>
      <trkpt lat="45.82209" lon="3.04061">
        <ele>551</ele>
        <time>2021-05-22T11:52:43Z</time>
      </trkpt>
      <trkpt lat="45.82209" lon="3.04057">
        <ele>551</ele>
        <time>2021-05-22T11:52:45Z</time>
      </trkpt>
      <trkpt lat="45.82209" lon="3.04053">
        <ele>551</ele>
        <time>2021-05-22T11:52:47Z</time>
      </trkpt>
      <trkpt lat="45.82209" lon="3.04049">
        <ele>551</ele>
        <time>2021-05-22T11:52:49Z</time>
      </trkpt>
      <trkpt lat="45.82209" lon="3.04046">
        <ele>551</ele>
        <time>2021-05-22T11:52:51Z</time>
      </trkpt>
      <trkpt lat="45.82209" lon="3.04042">
        <ele>551</ele>
        <time>2021-05-22T11:52:53Z</time>
      </trkpt>
      <trkpt lat="45.82209" lon="3.04038">
        <ele>551</ele>
        <time>2021-05-22T11:52:55Z</time>
      </trkpt>
      <trkpt lat="45.82209" lon="3.04034">
        <ele>551</ele>
        <time>2021-05-22T11:52:57Z</time>
      </trkpt>
      <trkpt lat="45.82209" lon="3.04031">
        <ele>551</ele>
        <time>2021-05-22T11:52:59Z</time>
      </trkpt>
      <trkpt lat="45.8221" lon="3.04028">
        <ele>551</ele>
        <time>2021-05-22T11:53:01Z</time>
      </trkpt>
      <trkpt lat="45.82212" lon="3.04013">
        <ele>551</ele>
        <time>2021-05-22T11:53:09Z</time>
      </trkpt>
      <trkpt lat="45.82211" lon="3.04007">
        <ele>551</ele>
        <time>2021-05-22T11:53:13Z</time>
      </trkpt>
      <trkpt lat="45.82211" lon="3.04006">
        <ele>551</ele>
        <time>2021-05-22T11:53:15Z</time>
      </trkpt>
      <trkpt lat="45.82212" lon="3.04002">
        <ele>551</ele>
        <time>2021-05-22T11:53:17Z</time>
      </trkpt>
      <trkpt lat="45.82212" lon="3.03999">
        <ele>551</ele>
        <time>2021-05-22T11:53:19Z</time>
      </trkpt>
      <trkpt lat="45.82212" lon="3.03994">
        <ele>551</ele>
        <time>2021-05-22T11:53:21Z</time>
      </trkpt>
      <trkpt lat="45.82212" lon="3.0399">
        <ele>551</ele>
        <time>2021-05-22T11:53:23Z</time>
      </trkpt>
      <trkpt lat="45.82212" lon="3.03986">
        <ele>551</ele>
        <time>2021-05-22T11:53:25Z</time>
      </trkpt>
      <trkpt lat="45.82212" lon="3.03982">
        <ele>551</ele>
        <time>2021-05-22T11:53:27Z</time>
      </trkpt>
      <trkpt lat="45.82212" lon="3.03978">
        <ele>551</ele>
        <time>2021-05-22T11:53:29Z</time>
      </trkpt>
      <trkpt lat="45.82212" lon="3.03965">
        <ele>551</ele>
        <time>2021-05-22T11:53:33Z</time>
      </trkpt>
      <trkpt lat="45.82212" lon="3.03963">
        <ele>551</ele>
        <time>2021-05-22T11:53:35Z</time>
      </trkpt>
      <trkpt lat="45.82211" lon="3.03961">
        <ele>551</ele>
        <time>2021-05-22T11:53:37Z</time>
      </trkpt>
      <trkpt lat="45.82211" lon="3.03959">
        <ele>551</ele>
        <time>2021-05-22T11:53:39Z</time>
      </trkpt>
      <trkpt lat="45.82211" lon="3.03955">
        <ele>551</ele>
        <time>2021-05-22T11:53:41Z</time>
      </trkpt>
      <trkpt lat="45.82211" lon="3.03952">
        <ele>551</ele>
        <time>2021-05-22T11:53:43Z</time>
      </trkpt>
      <trkpt lat="45.82211" lon="3.03948">
        <ele>551</ele>
        <time>2021-05-22T11:53:45Z</time>
      </trkpt>
      <trkpt lat="45.8221" lon="3.03944">
        <ele>551</ele>
        <time>2021-05-22T11:53:47Z</time>
      </trkpt>
      <trkpt lat="45.82209" lon="3.0394">
        <ele>551</ele>
        <time>2021-05-22T11:53:49Z</time>
      </trkpt>
      <trkpt lat="45.82206" lon="3.03926">
        <ele>551</ele>
        <time>2021-05-22T11:53:53Z</time>
      </trkpt>
      <trkpt lat="45.82205" lon="3.03925">
        <ele>551</ele>
        <time>2021-05-22T11:53:55Z</time>
      </trkpt>
      <trkpt lat="45.82204" lon="3.03923">
        <ele>551</ele>
        <time>2021-05-22T11:53:57Z</time>
      </trkpt>
      <trkpt lat="45.82203" lon="3.0392">
        <ele>551</ele>
        <time>2021-05-22T11:53:59Z</time>
      </trkpt>
      <trkpt lat="45.82201" lon="3.03918">
        <ele>551</ele>
        <time>2021-05-22T11:54:01Z</time>
      </trkpt>
      <trkpt lat="45.822" lon="3.03915">
        <ele>551</ele>
        <time>2021-05-22T11:54:03Z</time>
      </trkpt>
      <trkpt lat="45.82198" lon="3.03912">
        <ele>551</ele>
        <time>2021-05-22T11:54:05Z</time>
      </trkpt>
      <trkpt lat="45.82196" lon="3.03909">
        <ele>551</ele>
        <time>2021-05-22T11:54:07Z</time>
      </trkpt>
      <trkpt lat="45.82194" lon="3.03907">
        <ele>551</ele>
        <time>2021-05-22T11:54:09Z</time>
      </trkpt>
      <trkpt lat="45.82192" lon="3.03904">
        <ele>551</ele>
        <time>2021-05-22T11:54:11Z</time>
      </trkpt>
      <trkpt lat="45.8219" lon="3.03902">
        <ele>551</ele>
        <time>2021-05-22T11:54:13Z</time>
      </trkpt>
      <trkpt lat="45.82188" lon="3.039">
        <ele>551</ele>
        <time>2021-05-22T11:54:15Z</time>
      </trkpt>
      <trkpt lat="45.82186" lon="3.03898">
        <ele>551</ele>
        <time>2021-05-22T11:54:17Z</time>
      </trkpt>
      <trkpt lat="45.82182" lon="3.03896">
        <ele>551</ele>
        <time>2021-05-22T11:54:19Z</time>
      </trkpt>
      <trkpt lat="45.82179" lon="3.03895">
        <ele>551</ele>
        <time>2021-05-22T11:54:21Z</time>
      </trkpt>
      <trkpt lat="45.82176" lon="3.03893">
        <ele>551</ele>
        <time>2021-05-22T11:54:23Z</time>
      </trkpt>
      <trkpt lat="45.82173" lon="3.0389">
        <ele>551</ele>
        <time>2021-05-22T11:54:25Z</time>
      </trkpt>
      <trkpt lat="45.82171" lon="3.03888">
        <ele>551</ele>
        <time>2021-05-22T11:54:27Z</time>
      </trkpt>
      <trkpt lat="45.82169" lon="3.03885">
        <ele>551</ele>
        <time>2021-05-22T11:54:29Z</time>
      </trkpt>
      <trkpt lat="45.82167" lon="3.03882">
        <ele>551</ele>
        <time>2021-05-22T11:54:31Z</time>
      </trkpt>
      <trkpt lat="45.82164" lon="3.03879">
        <ele>551</ele>
        <time>2021-05-22T11:54:33Z</time>
      </trkpt>
      <trkpt lat="45.82163" lon="3.03877">
        <ele>551</ele>
        <time>2021-05-22T11:54:35Z</time>
      </trkpt>
      <trkpt lat="45.82161" lon="3.03875">
        <ele>551</ele>
        <time>2021-05-22T11:54:37Z</time>
      </trkpt>
      <trkpt lat="45.82158" lon="3.03873">
        <ele>551</ele>
        <time>2021-05-22T11:54:39Z</time>
      </trkpt>
      <trkpt lat="45.82151" lon="3.03865">
        <ele>551</ele>
        <time>2021-05-22T11:54:43Z</time>
      </trkpt>
      <trkpt lat="45.8215" lon="3.03864">
        <ele>551</ele>
        <time>2021-05-22T11:54:45Z</time>
      </trkpt>
      <trkpt lat="45.82149" lon="3.03862">
        <ele>551</ele>
        <time>2021-05-22T11:54:47Z</time>
      </trkpt>
      <trkpt lat="45.82148" lon="3.0386">
        <ele>551</ele>
        <time>2021-05-22T11:54:49Z</time>
      </trkpt>
      <trkpt lat="45.82147" lon="3.03858">
        <ele>551</ele>
        <time>2021-05-22T11:54:51Z</time>
      </trkpt>
      <trkpt lat="45.82147" lon="3.03851">
        <ele>551</ele>
        <time>2021-05-22T11:54:55Z</time>
      </trkpt>
      <trkpt lat="45.82147" lon="3.0385">
        <ele>551</ele>
        <time>2021-05-22T11:54:57Z</time>
      </trkpt>
      <trkpt lat="45.82148" lon="3.03848">
        <ele>551</ele>
        <time>2021-05-22T11:54:59Z</time>
      </trkpt>
      <trkpt lat="45.82149" lon="3.03844">
        <ele>551</ele>
        <time>2021-05-22T11:55:01Z</time>
      </trkpt>
      <trkpt lat="45.8215" lon="3.0384">
        <ele>551</ele>
        <time>2021-05-22T11:55:03Z</time>
      </trkpt>
      <trkpt lat="45.82151" lon="3.03836">
        <ele>551</ele>
        <time>2021-05-22T11:55:05Z</time>
      </trkpt>
      <trkpt lat="45.82152" lon="3.03833">
        <ele>551</ele>
        <time>2021-05-22T11:55:07Z</time>
      </trkpt>
      <trkpt lat="45.82153" lon="3.0383">
        <ele>551</ele>
        <time>2021-05-22T11:55:09Z</time>
      </trkpt>
      <trkpt lat="45.82158" lon="3.03824">
        <ele>551</ele>
        <time>2021-05-22T11:55:13Z</time>
      </trkpt>
      <trkpt lat="45.82159" lon="3.03824">
        <ele>551</ele>
        <time>2021-05-22T11:55:15Z</time>
      </trkpt>
      <trkpt lat="45.8216" lon="3.03824">
        <ele>551</ele>
        <time>2021-05-22T11:55:17Z</time>
      </trkpt>
      <trkpt lat="45.82161" lon="3.03824">
        <ele>551</ele>
        <time>2021-05-22T11:55:19Z</time>
      </trkpt>
      <trkpt lat="45.82164" lon="3.03823">
        <ele>551</ele>
        <time>2021-05-22T11:55:21Z</time>
      </trkpt>
      <trkpt lat="45.82166" lon="3.03822">
        <ele>551</ele>
        <time>2021-05-22T11:55:23Z</time>
      </trkpt>
      <trkpt lat="45.82172" lon="3.03818">
        <ele>551</ele>
        <time>2021-05-22T11:55:29Z</time>
      </trkpt>
      <trkpt lat="45.82172" lon="3.03818">
        <ele>551</ele>
        <time>2021-05-22T11:55:31Z</time>
      </trkpt>
      <trkpt lat="45.82173" lon="3.03816">
        <ele>551</ele>
        <time>2021-05-22T11:55:33Z</time>
      </trkpt>
      <trkpt lat="45.82173" lon="3.03815">
        <ele>551</ele>
        <time>2021-05-22T11:55:35Z</time>
      </trkpt>
      <trkpt lat="45.82175" lon="3.03813">
        <ele>551</ele>
        <time>2021-05-22T11:55:37Z</time>
      </trkpt>
      <trkpt lat="45.82176" lon="3.03812">
        <ele>551</ele>
        <time>2021-05-22T11:55:39Z</time>
      </trkpt>
      <trkpt lat="45.82178" lon="3.0381">
        <ele>551</ele>
        <time>2021-05-22T11:55:41Z</time>
      </trkpt>
      <trkpt lat="45.82178" lon="3.03807">
        <ele>551</ele>
        <time>2021-05-22T11:55:43Z</time>
      </trkpt>
      <trkpt lat="45.82178" lon="3.03804">
        <ele>551</ele>
        <time>2021-05-22T11:55:45Z</time>
      </trkpt>
      <trkpt lat="45.82177" lon="3.03801">
        <ele>551</ele>
        <time>2021-05-22T11:55:47Z</time>
      </trkpt>
      <trkpt lat="45.82175" lon="3.0379">
        <ele>551</ele>
        <time>2021-05-22T11:55:53Z</time>
      </trkpt>
      <trkpt lat="45.82176" lon="3.03789">
        <ele>551</ele>
        <time>2021-05-22T11:55:55Z</time>
      </trkpt>
      <trkpt lat="45.82177" lon="3.03785">
        <ele>551</ele>
        <time>2021-05-22T11:55:57Z</time>
      </trkpt>
      <trkpt lat="45.82178" lon="3.03781">
        <ele>551</ele>
        <time>2021-05-22T11:55:59Z</time>
      </trkpt>
      <trkpt lat="45.82178" lon="3.03777">
        <ele>551</ele>
        <time>2021-05-22T11:56:01Z</time>
      </trkpt>
      <trkpt lat="45.82176" lon="3.03772">
        <ele>551</ele>
        <time>2021-05-22T11:56:03Z</time>
      </trkpt>
      <trkpt lat="45.82174" lon="3.03766">
        <ele>551</ele>
        <time>2021-05-22T11:56:05Z</time>
      </trkpt>
      <trkpt lat="45.82173" lon="3.03761">
        <ele>551</ele>
        <time>2021-05-22T11:56:07Z</time>
      </trkpt>
      <trkpt lat="45.82172" lon="3.03756">
        <ele>551</ele>
        <time>2021-05-22T11:56:09Z</time>
      </trkpt>
      <trkpt lat="45.8217" lon="3.03753">
        <ele>551</ele>
        <time>2021-05-22T11:56:10Z</time>
      </trkpt>
      <trkpt lat="45.82169" lon="3.0375">
        <ele>551</ele>
        <time>2021-05-22T11:56:12Z</time>
      </trkpt>
      <trkpt lat="45.82167" lon="3.03748">
        <ele>551</ele>
        <time>2021-05-22T11:56:14Z</time>
      </trkpt>
      <trkpt lat="45.82167" lon="3.03745">
        <ele>551</ele>
        <time>2021-05-22T11:56:16Z</time>
      </trkpt>
      <trkpt lat="45.82166" lon="3.03742">
        <ele>551</ele>
        <time>2021-05-22T11:56:18Z</time>
      </trkpt>
      <trkpt lat="45.82165" lon="3.03739">
        <ele>551</ele>
        <time>2021-05-22T11:56:20Z</time>
      </trkpt>
      <trkpt lat="45.82164" lon="3.03737">
        <ele>551</ele>
        <time>2021-05-22T11:56:22Z</time>
      </trkpt>
      <trkpt lat="45.82163" lon="3.03734">
        <ele>551</ele>
        <time>2021-05-22T11:56:24Z</time>
      </trkpt>
      <trkpt lat="45.82161" lon="3.0373">
        <ele>551</ele>
        <time>2021-05-22T11:56:26Z</time>
      </trkpt>
      <trkpt lat="45.82161" lon="3.03727">
        <ele>551</ele>
        <time>2021-05-22T11:56:28Z</time>
      </trkpt>
      <trkpt lat="45.8216" lon="3.03722">
        <ele>551</ele>
        <time>2021-05-22T11:56:30Z</time>
      </trkpt>
      <trkpt lat="45.8216" lon="3.03718">
        <ele>551</ele>
        <time>2021-05-22T11:56:32Z</time>
      </trkpt>
      <trkpt lat="45.8216" lon="3.03714">
        <ele>551</ele>
        <time>2021-05-22T11:56:34Z</time>
      </trkpt>
      <trkpt lat="45.82161" lon="3.03711">
        <ele>551</ele>
        <time>2021-05-22T11:56:36Z</time>
      </trkpt>
      <trkpt lat="45.82161" lon="3.03708">
        <ele>551</ele>
        <time>2021-05-22T11:56:38Z</time>
      </trkpt>
      <trkpt lat="45.82161" lon="3.03704">
        <ele>551</ele>
        <time>2021-05-22T11:56:40Z</time>
      </trkpt>
      <trkpt lat="45.82161" lon="3.037">
        <ele>551</ele>
        <time>2021-05-22T11:56:42Z</time>
      </trkpt>
      <trkpt lat="45.82163" lon="3.03697">
        <ele>551</ele>
        <time>2021-05-22T11:56:44Z</time>
      </trkpt>
      <trkpt lat="45.82164" lon="3.03694">
        <ele>551</ele>
        <time>2021-05-22T11:56:46Z</time>
      </trkpt>
      <trkpt lat="45.82165" lon="3.03691">
        <ele>551</ele>
        <time>2021-05-22T11:56:48Z</time>
      </trkpt>
      <trkpt lat="45.82167" lon="3.03688">
        <ele>551</ele>
        <time>2021-05-22T11:56:50Z</time>
      </trkpt>
      <trkpt lat="45.82168" lon="3.03684">
        <ele>551</ele>
        <time>2021-05-22T11:56:52Z</time>
      </trkpt>
      <trkpt lat="45.8217" lon="3.03681">
        <ele>551</ele>
        <time>2021-05-22T11:56:54Z</time>
      </trkpt>
      <trkpt lat="45.82172" lon="3.03678">
        <ele>551</ele>
        <time>2021-05-22T11:56:56Z</time>
      </trkpt>
      <trkpt lat="45.82173" lon="3.03674">
        <ele>551</ele>
        <time>2021-05-22T11:56:58Z</time>
      </trkpt>
      <trkpt lat="45.82175" lon="3.03671">
        <ele>551</ele>
        <time>2021-05-22T11:57:00Z</time>
      </trkpt>
      <trkpt lat="45.82178" lon="3.03667">
        <ele>551</ele>
        <time>2021-05-22T11:57:02Z</time>
      </trkpt>
      <trkpt lat="45.8218" lon="3.03664">
        <ele>551</ele>
        <time>2021-05-22T11:57:04Z</time>
      </trkpt>
      <trkpt lat="45.82184" lon="3.03662">
        <ele>551</ele>
        <time>2021-05-22T11:57:06Z</time>
      </trkpt>
      <trkpt lat="45.82186" lon="3.03661">
        <ele>551</ele>
        <time>2021-05-22T11:57:08Z</time>
      </trkpt>
      <trkpt lat="45.82188" lon="3.0366">
        <ele>551</ele>
        <time>2021-05-22T11:57:10Z</time>
      </trkpt>
      <trkpt lat="45.82192" lon="3.03659">
        <ele>551</ele>
        <time>2021-05-22T11:57:12Z</time>
      </trkpt>
      <trkpt lat="45.82194" lon="3.03659">
        <ele>551</ele>
        <time>2021-05-22T11:57:14Z</time>
      </trkpt>
      <trkpt lat="45.82196" lon="3.03659">
        <ele>551</ele>
        <time>2021-05-22T11:57:16Z</time>
      </trkpt>
      <trkpt lat="45.82198" lon="3.0366">
        <ele>551</ele>
        <time>2021-05-22T11:57:18Z</time>
      </trkpt>
      <trkpt lat="45.822" lon="3.03662">
        <ele>551</ele>
        <time>2021-05-22T11:57:20Z</time>
      </trkpt>
      <trkpt lat="45.82201" lon="3.03664">
        <ele>551</ele>
        <time>2021-05-22T11:57:22Z</time>
      </trkpt>
      <trkpt lat="45.82203" lon="3.03666">
        <ele>551</ele>
        <time>2021-05-22T11:57:24Z</time>
      </trkpt>
      <trkpt lat="45.82214" lon="3.03669">
        <ele>551</ele>
        <time>2021-05-22T11:57:28Z</time>
      </trkpt>
      <trkpt lat="45.82215" lon="3.03668">
        <ele>551</ele>
        <time>2021-05-22T11:57:30Z</time>
      </trkpt>
      <trkpt lat="45.82218" lon="3.03667">
        <ele>551</ele>
        <time>2021-05-22T11:57:32Z</time>
      </trkpt>
      <trkpt lat="45.82221" lon="3.03666">
        <ele>551</ele>
        <time>2021-05-22T11:57:34Z</time>
      </trkpt>
      <trkpt lat="45.82223" lon="3.03664">
        <ele>551</ele>
        <time>2021-05-22T11:57:36Z</time>
      </trkpt>
      <trkpt lat="45.82225" lon="3.03662">
        <ele>551</ele>
        <time>2021-05-22T11:57:38Z</time>
      </trkpt>
      <trkpt lat="45.82227" lon="3.0366">
        <ele>551</ele>
        <time>2021-05-22T11:57:40Z</time>
      </trkpt>
      <trkpt lat="45.8223" lon="3.03658">
        <ele>551</ele>
        <time>2021-05-22T11:57:42Z</time>
      </trkpt>
      <trkpt lat="45.82232" lon="3.03655">
        <ele>551</ele>
        <time>2021-05-22T11:57:44Z</time>
      </trkpt>
      <trkpt lat="45.82233" lon="3.03653">
        <ele>551</ele>
        <time>2021-05-22T11:57:46Z</time>
      </trkpt>
      <trkpt lat="45.82236" lon="3.03649">
        <ele>551</ele>
        <time>2021-05-22T11:57:48Z</time>
      </trkpt>
      <trkpt lat="45.82238" lon="3.03645">
        <ele>551</ele>
        <time>2021-05-22T11:57:50Z</time>
      </trkpt>
      <trkpt lat="45.82245" lon="3.03632">
        <ele>551</ele>
        <time>2021-05-22T11:57:54Z</time>
      </trkpt>
      <trkpt lat="45.82245" lon="3.03632">
        <ele>551</ele>
        <time>2021-05-22T11:57:56Z</time>
      </trkpt>
      <trkpt lat="45.82246" lon="3.03631">
        <ele>551</ele>
        <time>2021-05-22T11:57:58Z</time>
      </trkpt>
      <trkpt lat="45.82248" lon="3.03631">
        <ele>551</ele>
        <time>2021-05-22T11:58:00Z</time>
      </trkpt>
      <trkpt lat="45.82256" lon="3.0363">
        <ele>551</ele>
        <time>2021-05-22T11:58:06Z</time>
      </trkpt>
      <trkpt lat="45.82257" lon="3.0363">
        <ele>551</ele>
        <time>2021-05-22T11:58:08Z</time>
      </trkpt>
      <trkpt lat="45.82258" lon="3.03631">
        <ele>551</ele>
        <time>2021-05-22T11:58:10Z</time>
      </trkpt>
      <trkpt lat="45.8226" lon="3.03632">
        <ele>551</ele>
        <time>2021-05-22T11:58:12Z</time>
      </trkpt>
      <trkpt lat="45.82262" lon="3.03632">
        <ele>551</ele>
        <time>2021-05-22T11:58:14Z</time>
      </trkpt>
      <trkpt lat="45.82266" lon="3.03634">
        <ele>551</ele>
        <time>2021-05-22T11:58:16Z</time>
      </trkpt>
      <trkpt lat="45.82267" lon="3.03635">
        <ele>551</ele>
        <time>2021-05-22T11:58:18Z</time>
      </trkpt>
      <trkpt lat="45.8227" lon="3.03636">
        <ele>551</ele>
        <time>2021-05-22T11:58:20Z</time>
      </trkpt>
      <trkpt lat="45.82273" lon="3.03637">
        <ele>551</ele>
        <time>2021-05-22T11:58:22Z</time>
      </trkpt>
      <trkpt lat="45.82275" lon="3.03638">
        <ele>551</ele>
        <time>2021-05-22T11:58:24Z</time>
      </trkpt>
      <trkpt lat="45.82278" lon="3.03638">
        <ele>551</ele>
        <time>2021-05-22T11:58:26Z</time>
      </trkpt>
      <trkpt lat="45.82281" lon="3.03639">
        <ele>551</ele>
        <time>2021-05-22T11:58:28Z</time>
      </trkpt>
      <trkpt lat="45.82284" lon="3.0364">
        <ele>551</ele>
        <time>2021-05-22T11:58:30Z</time>
      </trkpt>
      <trkpt lat="45.82287" lon="3.03641">
        <ele>551</ele>
        <time>2021-05-22T11:58:32Z</time>
      </trkpt>
      <trkpt lat="45.8229" lon="3.03642">
        <ele>551</ele>
        <time>2021-05-22T11:58:34Z</time>
      </trkpt>
      <trkpt lat="45.82292" lon="3.03643">
        <ele>551</ele>
        <time>2021-05-22T11:58:36Z</time>
      </trkpt>
      <trkpt lat="45.82295" lon="3.03643">
        <ele>551</ele>
        <time>2021-05-22T11:58:38Z</time>
      </trkpt>
      <trkpt lat="45.82297" lon="3.03643">
        <ele>551</ele>
        <time>2021-05-22T11:58:40Z</time>
      </trkpt>
      <trkpt lat="45.82299" lon="3.03643">
        <ele>551</ele>
        <time>2021-05-22T11:58:42Z</time>
      </trkpt>
      <trkpt lat="45.82301" lon="3.03643">
        <ele>551</ele>
        <time>2021-05-22T11:58:44Z</time>
      </trkpt>
      <trkpt lat="45.82303" lon="3.03644">
        <ele>551</ele>
        <time>2021-05-22T11:58:46Z</time>
      </trkpt>
      <trkpt lat="45.82305" lon="3.03644">
        <ele>551</ele>
        <time>2021-05-22T11:58:48Z</time>
      </trkpt>
      <trkpt lat="45.82307" lon="3.03645">
        <ele>551</ele>
        <time>2021-05-22T11:58:50Z</time>
      </trkpt>
      <trkpt lat="45.82309" lon="3.03646">
        <ele>551</ele>
        <time>2021-05-22T11:58:52Z</time>
      </trkpt>
      <trkpt lat="45.82312" lon="3.03648">
        <ele>551</ele>
        <time>2021-05-22T11:58:54Z</time>
      </trkpt>
      <trkpt lat="45.82322" lon="3.03653">
        <ele>551</ele>
        <time>2021-05-22T11:58:58Z</time>
      </trkpt>
      <trkpt lat="45.82324" lon="3.03653">
        <ele>551</ele>
        <time>2021-05-22T11:59:00Z</time>
      </trkpt>
      <trkpt lat="45.82326" lon="3.03654">
        <ele>551</ele>
        <time>2021-05-22T11:59:02Z</time>
      </trkpt>
      <trkpt lat="45.82329" lon="3.03655">
        <ele>551</ele>
        <time>2021-05-22T11:59:04Z</time>
      </trkpt>
      <trkpt lat="45.82332" lon="3.03655">
        <ele>551</ele>
        <time>2021-05-22T11:59:06Z</time>
      </trkpt>
      <trkpt lat="45.82335" lon="3.03655">
        <ele>551</ele>
        <time>2021-05-22T11:59:08Z</time>
      </trkpt>
      <trkpt lat="45.82338" lon="3.03655">
        <ele>551</ele>
        <time>2021-05-22T11:59:10Z</time>
      </trkpt>
      <trkpt lat="45.8234" lon="3.03654">
        <ele>551</ele>
        <time>2021-05-22T11:59:12Z</time>
      </trkpt>
      <trkpt lat="45.82343" lon="3.03652">
        <ele>551</ele>
        <time>2021-05-22T11:59:14Z</time>
      </trkpt>
      <trkpt lat="45.82346" lon="3.03651">
        <ele>551</ele>
        <time>2021-05-22T11:59:16Z</time>
      </trkpt>
      <trkpt lat="45.82348" lon="3.03649">
        <ele>551</ele>
        <time>2021-05-22T11:59:18Z</time>
      </trkpt>
      <trkpt lat="45.8235" lon="3.03647">
        <ele>551</ele>
        <time>2021-05-22T11:59:20Z</time>
      </trkpt>
      <trkpt lat="45.82352" lon="3.03644">
        <ele>551</ele>
        <time>2021-05-22T11:59:22Z</time>
      </trkpt>
      <trkpt lat="45.82354" lon="3.03642">
        <ele>551</ele>
        <time>2021-05-22T11:59:24Z</time>
      </trkpt>
      <trkpt lat="45.82357" lon="3.03639">
        <ele>551</ele>
        <time>2021-05-22T11:59:26Z</time>
      </trkpt>
      <trkpt lat="45.82359" lon="3.03636">
        <ele>551</ele>
        <time>2021-05-22T11:59:28Z</time>
      </trkpt>
      <trkpt lat="45.82361" lon="3.03634">
        <ele>551</ele>
        <time>2021-05-22T11:59:30Z</time>
      </trkpt>
      <trkpt lat="45.82363" lon="3.03632">
        <ele>551</ele>
        <time>2021-05-22T11:59:32Z</time>
      </trkpt>
      <trkpt lat="45.82366" lon="3.0363">
        <ele>551</ele>
        <time>2021-05-22T11:59:34Z</time>
      </trkpt>
      <trkpt lat="45.82368" lon="3.03629">
        <ele>551</ele>
        <time>2021-05-22T11:59:36Z</time>
      </trkpt>
      <trkpt lat="45.8237" lon="3.03628">
        <ele>551</ele>
        <time>2021-05-22T11:59:38Z</time>
      </trkpt>
      <trkpt lat="45.82373" lon="3.03626">
        <ele>551</ele>
        <time>2021-05-22T11:59:40Z</time>
      </trkpt>
      <trkpt lat="45.82375" lon="3.03626">
        <ele>551</ele>
        <time>2021-05-22T11:59:42Z</time>
      </trkpt>
      <trkpt lat="45.82378" lon="3.03625">
        <ele>551</ele>
        <time>2021-05-22T11:59:44Z</time>
      </trkpt>
      <trkpt lat="45.8238" lon="3.03625">
        <ele>551</ele>
        <time>2021-05-22T11:59:46Z</time>
      </trkpt>
      <trkpt lat="45.82382" lon="3.03625">
        <ele>551</ele>
        <time>2021-05-22T11:59:48Z</time>
      </trkpt>
      <trkpt lat="45.82389" lon="3.03624">
        <ele>551</ele>
        <time>2021-05-22T11:59:54Z</time>
      </trkpt>
      <trkpt lat="45.82389" lon="3.03624">
        <ele>551</ele>
        <time>2021-05-22T11:59:56Z</time>
      </trkpt>
      <trkpt lat="45.82391" lon="3.03624">
        <ele>551</ele>
        <time>2021-05-22T11:59:58Z</time>
      </trkpt>
      <trkpt lat="45.82393" lon="3.03623">
        <ele>551</ele>
        <time>2021-05-22T12:00:00Z</time>
      </trkpt>
      <trkpt lat="45.82396" lon="3.03623">
        <ele>551</ele>
        <time>2021-05-22T12:00:02Z</time>
      </trkpt>
      <trkpt lat="45.82408" lon="3.03623">
        <ele>551</ele>
        <time>2021-05-22T12:00:06Z</time>
      </trkpt>
      <trkpt lat="45.82409" lon="3.03623">
        <ele>551</ele>
        <time>2021-05-22T12:00:08Z</time>
      </trkpt>
      <trkpt lat="45.82422" lon="3.03624">
        <ele>551</ele>
        <time>2021-05-22T12:00:16Z</time>
      </trkpt>
      <trkpt lat="45.82423" lon="3.03625">
        <ele>551</ele>
        <time>2021-05-22T12:00:18Z</time>
      </trkpt>
      <trkpt lat="45.8243" lon="3.03627">
        <ele>551</ele>
        <time>2021-05-22T12:00:22Z</time>
      </trkpt>
      <trkpt lat="45.82435" lon="3.0363">
        <ele>551</ele>
        <time>2021-05-22T12:00:25Z</time>
      </trkpt>
      <trkpt lat="45.82436" lon="3.03631">
        <ele>551</ele>
        <time>2021-05-22T12:00:27Z</time>
      </trkpt>
      <trkpt lat="45.82438" lon="3.03633">
        <ele>551</ele>
        <time>2021-05-22T12:00:29Z</time>
      </trkpt>
      <trkpt lat="45.82439" lon="3.03635">
        <ele>551</ele>
        <time>2021-05-22T12:00:31Z</time>
      </trkpt>
      <trkpt lat="45.82449" lon="3.03642">
        <ele>551</ele>
        <time>2021-05-22T12:00:35Z</time>
      </trkpt>
      <trkpt lat="45.8245" lon="3.03642">
        <ele>551</ele>
        <time>2021-05-22T12:00:37Z</time>
      </trkpt>
      <trkpt lat="45.82453" lon="3.03644">
        <ele>551</ele>
        <time>2021-05-22T12:00:39Z</time>
      </trkpt>
      <trkpt lat="45.82455" lon="3.03645">
        <ele>551</ele>
        <time>2021-05-22T12:00:41Z</time>
      </trkpt>
      <trkpt lat="45.82459" lon="3.03647">
        <ele>551</ele>
        <time>2021-05-22T12:00:43Z</time>
      </trkpt>
      <trkpt lat="45.82462" lon="3.0365">
        <ele>551</ele>
        <time>2021-05-22T12:00:46Z</time>
      </trkpt>
      <trkpt lat="45.82466" lon="3.03652">
        <ele>551</ele>
        <time>2021-05-22T12:00:47Z</time>
      </trkpt>
      <trkpt lat="45.82512" lon="3.03688">
        <ele>551</ele>
        <time>2021-05-22T12:01:17Z</time>
      </trkpt>
      <trkpt lat="45.82512" lon="3.03688">
        <ele>551</ele>
        <time>2021-05-22T12:01:18Z</time>
      </trkpt>
      <trkpt lat="45.82513" lon="3.03688">
        <ele>551</ele>
        <time>2021-05-22T12:01:19Z</time>
      </trkpt>
      <trkpt lat="45.82522" lon="3.037">
        <ele>551</ele>
        <time>2021-05-22T12:01:28Z</time>
      </trkpt>
      <trkpt lat="45.82525" lon="3.03702">
        <ele>551</ele>
        <time>2021-05-22T12:01:29Z</time>
      </trkpt>
      <trkpt lat="45.82526" lon="3.03702">
        <ele>551</ele>
        <time>2021-05-22T12:01:30Z</time>
      </trkpt>
      <trkpt lat="45.82526" lon="3.03703">
        <ele>551</ele>
        <time>2021-05-22T12:01:31Z</time>
      </trkpt>
      <trkpt lat="45.82529" lon="3.03705">
        <ele>551</ele>
        <time>2021-05-22T12:01:34Z</time>
      </trkpt>
      <trkpt lat="45.82529" lon="3.03705">
        <ele>551</ele>
        <time>2021-05-22T12:01:35Z</time>
      </trkpt>
      <trkpt lat="45.8253" lon="3.03706">
        <ele>551</ele>
        <time>2021-05-22T12:01:36Z</time>
      </trkpt>
      <trkpt lat="45.82531" lon="3.03707">
        <ele>551</ele>
        <time>2021-05-22T12:01:37Z</time>
      </trkpt>
      <trkpt lat="45.82532" lon="3.03708">
        <ele>551</ele>
        <time>2021-05-22T12:01:38Z</time>
      </trkpt>
      <trkpt lat="45.82533" lon="3.0371">
        <ele>551</ele>
        <time>2021-05-22T12:01:39Z</time>
      </trkpt>
      <trkpt lat="45.82534" lon="3.03712">
        <ele>551</ele>
        <time>2021-05-22T12:01:40Z</time>
      </trkpt>
      <trkpt lat="45.82535" lon="3.03713">
        <ele>551</ele>
        <time>2021-05-22T12:01:41Z</time>
      </trkpt>
      <trkpt lat="45.82536" lon="3.03714">
        <ele>551</ele>
        <time>2021-05-22T12:01:42Z</time>
      </trkpt>
      <trkpt lat="45.82538" lon="3.03716">
        <ele>551</ele>
        <time>2021-05-22T12:01:43Z</time>
      </trkpt>
      <trkpt lat="45.8254" lon="3.03717">
        <ele>551</ele>
        <time>2021-05-22T12:01:44Z</time>
      </trkpt>
      <trkpt lat="45.82541" lon="3.03719">
        <ele>551</ele>
        <time>2021-05-22T12:01:46Z</time>
      </trkpt>
      <trkpt lat="45.82548" lon="3.03727">
        <ele>551</ele>
        <time>2021-05-22T12:01:47Z</time>
      </trkpt>
      <trkpt lat="45.82549" lon="3.03728">
        <ele>551</ele>
        <time>2021-05-22T12:01:48Z</time>
      </trkpt>
      <trkpt lat="45.8255" lon="3.03729">
        <ele>551</ele>
        <time>2021-05-22T12:01:49Z</time>
      </trkpt>
      <trkpt lat="45.82551" lon="3.0373">
        <ele>551</ele>
        <time>2021-05-22T12:01:50Z</time>
      </trkpt>
      <trkpt lat="45.82553" lon="3.03731">
        <ele>551</ele>
        <time>2021-05-22T12:01:51Z</time>
      </trkpt>
      <trkpt lat="45.82554" lon="3.03732">
        <ele>551</ele>
        <time>2021-05-22T12:01:52Z</time>
      </trkpt>
      <trkpt lat="45.82555" lon="3.03734">
        <ele>551</ele>
        <time>2021-05-22T12:01:53Z</time>
      </trkpt>
      <trkpt lat="45.82556" lon="3.03735">
        <ele>551</ele>
        <time>2021-05-22T12:01:54Z</time>
      </trkpt>
      <trkpt lat="45.82557" lon="3.03736">
        <ele>551</ele>
        <time>2021-05-22T12:01:55Z</time>
      </trkpt>
      <trkpt lat="45.82557" lon="3.03738">
        <ele>551</ele>
        <time>2021-05-22T12:01:56Z</time>
      </trkpt>
      <trkpt lat="45.82558" lon="3.03739">
        <ele>551</ele>
        <time>2021-05-22T12:01:57Z</time>
      </trkpt>
      <trkpt lat="45.82559" lon="3.0374">
        <ele>551</ele>
        <time>2021-05-22T12:01:58Z</time>
      </trkpt>
      <trkpt lat="45.8256" lon="3.03741">
        <ele>551</ele>
        <time>2021-05-22T12:01:59Z</time>
      </trkpt>
      <trkpt lat="45.82562" lon="3.03742">
        <ele>551</ele>
        <time>2021-05-22T12:02:00Z</time>
      </trkpt>
      <trkpt lat="45.82563" lon="3.03743">
        <ele>551</ele>
        <time>2021-05-22T12:02:01Z</time>
      </trkpt>
      <trkpt lat="45.82564" lon="3.03744">
        <ele>551</ele>
        <time>2021-05-22T12:02:02Z</time>
      </trkpt>
      <trkpt lat="45.82565" lon="3.03745">
        <ele>551</ele>
        <time>2021-05-22T12:02:03Z</time>
      </trkpt>
      <trkpt lat="45.82567" lon="3.03746">
        <ele>551</ele>
        <time>2021-05-22T12:02:04Z</time>
      </trkpt>
      <trkpt lat="45.82568" lon="3.03747">
        <ele>551</ele>
        <time>2021-05-22T12:02:05Z</time>
      </trkpt>
      <trkpt lat="45.8257" lon="3.03748">
        <ele>551</ele>
        <time>2021-05-22T12:02:06Z</time>
      </trkpt>
      <trkpt lat="45.82571" lon="3.03749">
        <ele>551</ele>
        <time>2021-05-22T12:02:07Z</time>
      </trkpt>
      <trkpt lat="45.82575" lon="3.03751">
        <ele>551</ele>
        <time>2021-05-22T12:02:09Z</time>
      </trkpt>
      <trkpt lat="45.82575" lon="3.03751">
        <ele>551</ele>
        <time>2021-05-22T12:02:10Z</time>
      </trkpt>
      <trkpt lat="45.82576" lon="3.03751">
        <ele>551</ele>
        <time>2021-05-22T12:02:11Z</time>
      </trkpt>
      <trkpt lat="45.82577" lon="3.03751">
        <ele>551</ele>
        <time>2021-05-22T12:02:12Z</time>
      </trkpt>
      <trkpt lat="45.82579" lon="3.03751">
        <ele>551</ele>
        <time>2021-05-22T12:02:13Z</time>
      </trkpt>
      <trkpt lat="45.82584" lon="3.03751">
        <ele>551</ele>
        <time>2021-05-22T12:02:18Z</time>
      </trkpt>
      <trkpt lat="45.82584" lon="3.03751">
        <ele>551</ele>
        <time>2021-05-22T12:02:19Z</time>
      </trkpt>
      <trkpt lat="45.82585" lon="3.03751">
        <ele>551</ele>
        <time>2021-05-22T12:02:20Z</time>
      </trkpt>
      <trkpt lat="45.8259" lon="3.03749">
        <ele>551</ele>
        <time>2021-05-22T12:02:25Z</time>
      </trkpt>
      <trkpt lat="45.82594" lon="3.03751">
        <ele>551</ele>
        <time>2021-05-22T12:02:32Z</time>
      </trkpt>
      <trkpt lat="45.82594" lon="3.03751">
        <ele>551</ele>
        <time>2021-05-22T12:02:33Z</time>
      </trkpt>
      <trkpt lat="45.82594" lon="3.03752">
        <ele>551</ele>
        <time>2021-05-22T12:02:34Z</time>
      </trkpt>
      <trkpt lat="45.82595" lon="3.03753">
        <ele>551</ele>
        <time>2021-05-22T12:02:35Z</time>
      </trkpt>
      <trkpt lat="45.82597" lon="3.03754">
        <ele>551</ele>
        <time>2021-05-22T12:02:36Z</time>
      </trkpt>
      <trkpt lat="45.82598" lon="3.03755">
        <ele>551</ele>
        <time>2021-05-22T12:02:37Z</time>
      </trkpt>
      <trkpt lat="45.826" lon="3.03756">
        <ele>551</ele>
        <time>2021-05-22T12:02:38Z</time>
      </trkpt>
      <trkpt lat="45.82605" lon="3.03762">
        <ele>551</ele>
        <time>2021-05-22T12:02:44Z</time>
      </trkpt>
      <trkpt lat="45.82608" lon="3.03766">
        <ele>551</ele>
        <time>2021-05-22T12:02:48Z</time>
      </trkpt>
      <trkpt lat="45.82608" lon="3.03767">
        <ele>551</ele>
        <time>2021-05-22T12:02:49Z</time>
      </trkpt>
      <trkpt lat="45.82613" lon="3.03775">
        <ele>551</ele>
        <time>2021-05-22T12:02:53Z</time>
      </trkpt>
      <trkpt lat="45.82613" lon="3.03775">
        <ele>551</ele>
        <time>2021-05-22T12:02:54Z</time>
      </trkpt>
      <trkpt lat="45.82616" lon="3.03782">
        <ele>551</ele>
        <time>2021-05-22T12:02:58Z</time>
      </trkpt>
      <trkpt lat="45.82617" lon="3.03783">
        <ele>551</ele>
        <time>2021-05-22T12:02:59Z</time>
      </trkpt>
      <trkpt lat="45.82618" lon="3.03785">
        <ele>551</ele>
        <time>2021-05-22T12:03:00Z</time>
      </trkpt>
      <trkpt lat="45.82619" lon="3.03788">
        <ele>551</ele>
        <time>2021-05-22T12:03:01Z</time>
      </trkpt>
      <trkpt lat="45.8262" lon="3.03791">
        <ele>551</ele>
        <time>2021-05-22T12:03:02Z</time>
      </trkpt>
      <trkpt lat="45.82621" lon="3.03794">
        <ele>551</ele>
        <time>2021-05-22T12:03:03Z</time>
      </trkpt>
      <trkpt lat="45.82622" lon="3.03797">
        <ele>551</ele>
        <time>2021-05-22T12:03:04Z</time>
      </trkpt>
      <trkpt lat="45.82623" lon="3.03799">
        <ele>551</ele>
        <time>2021-05-22T12:03:05Z</time>
      </trkpt>
      <trkpt lat="45.82624" lon="3.03802">
        <ele>551</ele>
        <time>2021-05-22T12:03:06Z</time>
      </trkpt>
      <trkpt lat="45.82624" lon="3.03804">
        <ele>551</ele>
        <time>2021-05-22T12:03:07Z</time>
      </trkpt>
      <trkpt lat="45.82626" lon="3.03808">
        <ele>551</ele>
        <time>2021-05-22T12:03:09Z</time>
      </trkpt>
      <trkpt lat="45.82628" lon="3.03819">
        <ele>551</ele>
        <time>2021-05-22T12:03:13Z</time>
      </trkpt>
      <trkpt lat="45.8263" lon="3.03822">
        <ele>551</ele>
        <time>2021-05-22T12:03:17Z</time>
      </trkpt>
      <trkpt lat="45.8263" lon="3.03824">
        <ele>551</ele>
        <time>2021-05-22T12:03:19Z</time>
      </trkpt>
      <trkpt lat="45.82631" lon="3.03827">
        <ele>551</ele>
        <time>2021-05-22T12:03:21Z</time>
      </trkpt>
      <trkpt lat="45.82632" lon="3.0383">
        <ele>551</ele>
        <time>2021-05-22T12:03:23Z</time>
      </trkpt>
      <trkpt lat="45.82633" lon="3.03834">
        <ele>551</ele>
        <time>2021-05-22T12:03:25Z</time>
      </trkpt>
      <trkpt lat="45.82634" lon="3.03838">
        <ele>551</ele>
        <time>2021-05-22T12:03:27Z</time>
      </trkpt>
      <trkpt lat="45.82636" lon="3.03842">
        <ele>551</ele>
        <time>2021-05-22T12:03:29Z</time>
      </trkpt>
      <trkpt lat="45.82637" lon="3.03847">
        <ele>551</ele>
        <time>2021-05-22T12:03:31Z</time>
      </trkpt>
      <trkpt lat="45.82637" lon="3.03851">
        <ele>551</ele>
        <time>2021-05-22T12:03:33Z</time>
      </trkpt>
      <trkpt lat="45.82641" lon="3.03863">
        <ele>551</ele>
        <time>2021-05-22T12:03:37Z</time>
      </trkpt>
      <trkpt lat="45.82646" lon="3.03865">
        <ele>551</ele>
        <time>2021-05-22T12:03:57Z</time>
      </trkpt>
      <trkpt lat="45.82649" lon="3.03867">
        <ele>551</ele>
        <time>2021-05-22T12:04:05Z</time>
      </trkpt>
      <trkpt lat="45.8265" lon="3.03868">
        <ele>551</ele>
        <time>2021-05-22T12:04:07Z</time>
      </trkpt>
      <trkpt lat="45.82655" lon="3.03872">
        <ele>551</ele>
        <time>2021-05-22T12:04:13Z</time>
      </trkpt>
      <trkpt lat="45.82661" lon="3.03876">
        <ele>551</ele>
        <time>2021-05-22T12:04:21Z</time>
      </trkpt>
      <trkpt lat="45.82662" lon="3.03876">
        <ele>551</ele>
        <time>2021-05-22T12:04:23Z</time>
      </trkpt>
      <trkpt lat="45.8267" lon="3.03884">
        <ele>551</ele>
        <time>2021-05-22T12:04:31Z</time>
      </trkpt>
      <trkpt lat="45.82671" lon="3.03885">
        <ele>551</ele>
        <time>2021-05-22T12:04:33Z</time>
      </trkpt>
      <trkpt lat="45.82678" lon="3.03889">
        <ele>551</ele>
        <time>2021-05-22T12:04:37Z</time>
      </trkpt>
      <trkpt lat="45.82685" lon="3.03895">
        <ele>551</ele>
        <time>2021-05-22T12:04:46Z</time>
      </trkpt>
      <trkpt lat="45.82686" lon="3.03896">
        <ele>551</ele>
        <time>2021-05-22T12:04:48Z</time>
      </trkpt>
      <trkpt lat="45.8269" lon="3.03902">
        <ele>551</ele>
        <time>2021-05-22T12:04:56Z</time>
      </trkpt>
      <trkpt lat="45.82697" lon="3.03912">
        <ele>551</ele>
        <time>2021-05-22T12:05:06Z</time>
      </trkpt>
      <trkpt lat="45.82698" lon="3.03914">
        <ele>551</ele>
        <time>2021-05-22T12:05:08Z</time>
      </trkpt>
      <trkpt lat="45.82706" lon="3.03925">
        <ele>551</ele>
        <time>2021-05-22T12:05:12Z</time>
      </trkpt>
      <trkpt lat="45.8271" lon="3.03927">
        <ele>551</ele>
        <time>2021-05-22T12:05:16Z</time>
      </trkpt>
      <trkpt lat="45.82716" lon="3.03937">
        <ele>551</ele>
        <time>2021-05-22T12:05:24Z</time>
      </trkpt>
      <trkpt lat="45.82716" lon="3.03938">
        <ele>551</ele>
        <time>2021-05-22T12:05:26Z</time>
      </trkpt>
      <trkpt lat="45.82718" lon="3.0394">
        <ele>551</ele>
        <time>2021-05-22T12:05:28Z</time>
      </trkpt>
      <trkpt lat="45.82721" lon="3.03942">
        <ele>551</ele>
        <time>2021-05-22T12:05:30Z</time>
      </trkpt>
      <trkpt lat="45.82724" lon="3.03944">
        <ele>551</ele>
        <time>2021-05-22T12:05:32Z</time>
      </trkpt>
      <trkpt lat="45.82731" lon="3.03952">
        <ele>551</ele>
        <time>2021-05-22T12:05:36Z</time>
      </trkpt>
      <trkpt lat="45.82733" lon="3.03955">
        <ele>551</ele>
        <time>2021-05-22T12:05:40Z</time>
      </trkpt>
      <trkpt lat="45.82734" lon="3.03956">
        <ele>551</ele>
        <time>2021-05-22T12:05:42Z</time>
      </trkpt>
      <trkpt lat="45.82736" lon="3.03957">
        <ele>551</ele>
        <time>2021-05-22T12:05:44Z</time>
      </trkpt>
      <trkpt lat="45.82743" lon="3.03966">
        <ele>551</ele>
        <time>2021-05-22T12:05:50Z</time>
      </trkpt>
      <trkpt lat="45.82743" lon="3.03967">
        <ele>551</ele>
        <time>2021-05-22T12:05:52Z</time>
      </trkpt>
      <trkpt lat="45.82748" lon="3.03972">
        <ele>551</ele>
        <time>2021-05-22T12:05:56Z</time>
      </trkpt>
      <trkpt lat="45.8275" lon="3.03977">
        <ele>551</ele>
        <time>2021-05-22T12:06:04Z</time>
      </trkpt>
      <trkpt lat="45.8275" lon="3.03978">
        <ele>551</ele>
        <time>2021-05-22T12:06:06Z</time>
      </trkpt>
      <trkpt lat="45.82751" lon="3.0398">
        <ele>551</ele>
        <time>2021-05-22T12:06:08Z</time>
      </trkpt>
      <trkpt lat="45.82755" lon="3.03987">
        <ele>551</ele>
        <time>2021-05-22T12:06:12Z</time>
      </trkpt>
      <trkpt lat="45.82757" lon="3.03988">
        <ele>551</ele>
        <time>2021-05-22T12:06:14Z</time>
      </trkpt>
      <trkpt lat="45.82759" lon="3.03989">
        <ele>551</ele>
        <time>2021-05-22T12:06:16Z</time>
      </trkpt>
      <trkpt lat="45.82772" lon="3.04002">
        <ele>551</ele>
        <time>2021-05-22T12:06:26Z</time>
      </trkpt>
      <trkpt lat="45.82773" lon="3.04003">
        <ele>551</ele>
        <time>2021-05-22T12:06:28Z</time>
      </trkpt>
      <trkpt lat="45.82773" lon="3.04005">
        <ele>551</ele>
        <time>2021-05-22T12:06:30Z</time>
      </trkpt>
      <trkpt lat="45.82782" lon="3.04015">
        <ele>551</ele>
        <time>2021-05-22T12:06:38Z</time>
      </trkpt>
      <trkpt lat="45.82788" lon="3.04019">
        <ele>551</ele>
        <time>2021-05-22T12:06:42Z</time>
      </trkpt>
      <trkpt lat="45.82789" lon="3.0402">
        <ele>551</ele>
        <time>2021-05-22T12:06:44Z</time>
      </trkpt>
      <trkpt lat="45.82791" lon="3.04022">
        <ele>551</ele>
        <time>2021-05-22T12:06:46Z</time>
      </trkpt>
      <trkpt lat="45.82802" lon="3.04029">
        <ele>551</ele>
        <time>2021-05-22T12:06:52Z</time>
      </trkpt>
      <trkpt lat="45.82803" lon="3.0403">
        <ele>551</ele>
        <time>2021-05-22T12:06:54Z</time>
      </trkpt>
      <trkpt lat="45.82816" lon="3.04044">
        <ele>551</ele>
        <time>2021-05-22T12:07:18Z</time>
      </trkpt>
      <trkpt lat="45.82816" lon="3.04046">
        <ele>551</ele>
        <time>2021-05-22T12:07:20Z</time>
      </trkpt>
      <trkpt lat="45.82827" lon="3.0406">
        <ele>551</ele>
        <time>2021-05-22T12:07:32Z</time>
      </trkpt>
      <trkpt lat="45.82828" lon="3.04062">
        <ele>551</ele>
        <time>2021-05-22T12:07:34Z</time>
      </trkpt>
      <trkpt lat="45.8283" lon="3.04064">
        <ele>551</ele>
        <time>2021-05-22T12:07:36Z</time>
      </trkpt>
      <trkpt lat="45.82839" lon="3.04074">
        <ele>551</ele>
        <time>2021-05-22T12:07:42Z</time>
      </trkpt>
      <trkpt lat="45.8284" lon="3.04075">
        <ele>551</ele>
        <time>2021-05-22T12:07:44Z</time>
      </trkpt>
      <trkpt lat="45.8284" lon="3.04077">
        <ele>551</ele>
        <time>2021-05-22T12:07:46Z</time>
      </trkpt>
      <trkpt lat="45.82855" lon="3.0409">
        <ele>551</ele>
        <time>2021-05-22T12:08:06Z</time>
      </trkpt>
      <trkpt lat="45.82856" lon="3.0409">
        <ele>551</ele>
        <time>2021-05-22T12:08:08Z</time>
      </trkpt>
      <trkpt lat="45.82866" lon="3.04096">
        <ele>551</ele>
        <time>2021-05-22T12:08:16Z</time>
      </trkpt>
      <trkpt lat="45.82878" lon="3.04106">
        <ele>551</ele>
        <time>2021-05-22T12:08:34Z</time>
      </trkpt>
      <trkpt lat="45.82884" lon="3.04117">
        <ele>551</ele>
        <time>2021-05-22T12:08:38Z</time>
      </trkpt>
      <trkpt lat="45.82886" lon="3.04119">
        <ele>551</ele>
        <time>2021-05-22T12:08:40Z</time>
      </trkpt>
      <trkpt lat="45.82901" lon="3.04134">
        <ele>551</ele>
        <time>2021-05-22T12:08:48Z</time>
      </trkpt>
      <trkpt lat="45.82902" lon="3.04135">
        <ele>551</ele>
        <time>2021-05-22T12:08:50Z</time>
      </trkpt>
      <trkpt lat="45.82911" lon="3.04149">
        <ele>551</ele>
        <time>2021-05-22T12:08:59Z</time>
      </trkpt>
      <trkpt lat="45.82924" lon="3.04171">
        <ele>551</ele>
        <time>2021-05-22T12:09:17Z</time>
      </trkpt>
      <trkpt lat="45.82927" lon="3.04177">
        <ele>551</ele>
        <time>2021-05-22T12:09:23Z</time>
      </trkpt>
      <trkpt lat="45.82929" lon="3.04179">
        <ele>551</ele>
        <time>2021-05-22T12:09:25Z</time>
      </trkpt>
      <trkpt lat="45.8293" lon="3.04183">
        <ele>551</ele>
        <time>2021-05-22T12:09:27Z</time>
      </trkpt>
      <trkpt lat="45.82943" lon="3.04204">
        <ele>551</ele>
        <time>2021-05-22T12:09:37Z</time>
      </trkpt>
      <trkpt lat="45.82952" lon="3.04218">
        <ele>551</ele>
        <time>2021-05-22T12:09:46Z</time>
      </trkpt>
      <trkpt lat="45.82953" lon="3.04219">
        <ele>551</ele>
        <time>2021-05-22T12:09:48Z</time>
      </trkpt>
      <trkpt lat="45.82954" lon="3.04222">
        <ele>551</ele>
        <time>2021-05-22T12:09:50Z</time>
      </trkpt>
      <trkpt lat="45.82962" lon="3.04238">
        <ele>551</ele>
        <time>2021-05-22T12:10:00Z</time>
      </trkpt>
      <trkpt lat="45.82962" lon="3.04241">
        <ele>551</ele>
        <time>2021-05-22T12:10:02Z</time>
      </trkpt>
      <trkpt lat="45.8297" lon="3.04261">
        <ele>551</ele>
        <time>2021-05-22T12:10:08Z</time>
      </trkpt>
      <trkpt lat="45.82972" lon="3.04268">
        <ele>551</ele>
        <time>2021-05-22T12:10:12Z</time>
      </trkpt>
      <trkpt lat="45.82972" lon="3.04269">
        <ele>551</ele>
        <time>2021-05-22T12:10:14Z</time>
      </trkpt>
      <trkpt lat="45.82977" lon="3.04279">
        <ele>551</ele>
        <time>2021-05-22T12:10:18Z</time>
      </trkpt>
      <trkpt lat="45.82982" lon="3.04288">
        <ele>551</ele>
        <time>2021-05-22T12:10:24Z</time>
      </trkpt>
      <trkpt lat="45.82985" lon="3.04297">
        <ele>551</ele>
        <time>2021-05-22T12:10:32Z</time>
      </trkpt>
      <trkpt lat="45.82987" lon="3.04321">
        <ele>551</ele>
        <time>2021-05-22T12:10:48Z</time>
      </trkpt>
      <trkpt lat="45.82987" lon="3.04322">
        <ele>551</ele>
        <time>2021-05-22T12:10:50Z</time>
      </trkpt>
      <trkpt lat="45.82991" lon="3.04345">
        <ele>551</ele>
        <time>2021-05-22T12:10:58Z</time>
      </trkpt>
      <trkpt lat="45.82992" lon="3.04369">
        <ele>551</ele>
        <time>2021-05-22T12:11:08Z</time>
      </trkpt>
      <trkpt lat="45.82993" lon="3.04373">
        <ele>551</ele>
        <time>2021-05-22T12:11:10Z</time>
      </trkpt>
      <trkpt lat="45.82995" lon="3.04379">
        <ele>551</ele>
        <time>2021-05-22T12:11:12Z</time>
      </trkpt>
      <trkpt lat="45.82997" lon="3.04387">
        <ele>551</ele>
        <time>2021-05-22T12:11:14Z</time>
      </trkpt>
      <trkpt lat="45.83007" lon="3.04411">
        <ele>551</ele>
        <time>2021-05-22T12:11:18Z</time>
      </trkpt>
      <trkpt lat="45.83008" lon="3.04418">
        <ele>551</ele>
        <time>2021-05-22T12:11:22Z</time>
      </trkpt>
      <trkpt lat="45.8301" lon="3.04425">
        <ele>551</ele>
        <time>2021-05-22T12:11:26Z</time>
      </trkpt>
      <trkpt lat="45.8301" lon="3.04434">
        <ele>551</ele>
        <time>2021-05-22T12:11:38Z</time>
      </trkpt>
      <trkpt lat="45.83008" lon="3.04441">
        <ele>551</ele>
        <time>2021-05-22T12:11:43Z</time>
      </trkpt>
      <trkpt lat="45.83008" lon="3.04442">
        <ele>551</ele>
        <time>2021-05-22T12:11:44Z</time>
      </trkpt>
      <trkpt lat="45.83007" lon="3.04446">
        <ele>551</ele>
        <time>2021-05-22T12:11:46Z</time>
      </trkpt>
      <trkpt lat="45.83005" lon="3.04449">
        <ele>551</ele>
        <time>2021-05-22T12:11:48Z</time>
      </trkpt>
      <trkpt lat="45.83004" lon="3.04452">
        <ele>551</ele>
        <time>2021-05-22T12:11:50Z</time>
      </trkpt>
      <trkpt lat="45.83002" lon="3.04457">
        <ele>551</ele>
        <time>2021-05-22T12:11:52Z</time>
      </trkpt>
      <trkpt lat="45.82995" lon="3.04474">
        <ele>551</ele>
        <time>2021-05-22T12:12:00Z</time>
      </trkpt>
      <trkpt lat="45.82994" lon="3.04475">
        <ele>551</ele>
        <time>2021-05-22T12:12:02Z</time>
      </trkpt>
      <trkpt lat="45.8299" lon="3.04481">
        <ele>551</ele>
        <time>2021-05-22T12:12:06Z</time>
      </trkpt>
      <trkpt lat="45.82989" lon="3.04482">
        <ele>551</ele>
        <time>2021-05-22T12:12:08Z</time>
      </trkpt>
      <trkpt lat="45.82988" lon="3.04483">
        <ele>551</ele>
        <time>2021-05-22T12:12:10Z</time>
      </trkpt>
      <trkpt lat="45.82985" lon="3.04488">
        <ele>551</ele>
        <time>2021-05-22T12:12:14Z</time>
      </trkpt>
      <trkpt lat="45.82982" lon="3.04491">
        <ele>551</ele>
        <time>2021-05-22T12:12:22Z</time>
      </trkpt>
      <trkpt lat="45.82981" lon="3.04492">
        <ele>551</ele>
        <time>2021-05-22T12:12:24Z</time>
      </trkpt>
      <trkpt lat="45.82978" lon="3.04494">
        <ele>551</ele>
        <time>2021-05-22T12:12:26Z</time>
      </trkpt>
      <trkpt lat="45.82969" lon="3.04502">
        <ele>551</ele>
        <time>2021-05-22T12:12:34Z</time>
      </trkpt>
      <trkpt lat="45.82968" lon="3.04503">
        <ele>551</ele>
        <time>2021-05-22T12:12:36Z</time>
      </trkpt>
      <trkpt lat="45.82966" lon="3.04505">
        <ele>551</ele>
        <time>2021-05-22T12:12:38Z</time>
      </trkpt>
      <trkpt lat="45.82964" lon="3.04507">
        <ele>551</ele>
        <time>2021-05-22T12:12:40Z</time>
      </trkpt>
      <trkpt lat="45.82956" lon="3.04512">
        <ele>551</ele>
        <time>2021-05-22T12:12:48Z</time>
      </trkpt>
      <trkpt lat="45.82951" lon="3.04515">
        <ele>551</ele>
        <time>2021-05-22T12:12:54Z</time>
      </trkpt>
      <trkpt lat="45.82947" lon="3.04517">
        <ele>551</ele>
        <time>2021-05-22T12:12:58Z</time>
      </trkpt>
      <trkpt lat="45.82947" lon="3.04517">
        <ele>551</ele>
        <time>2021-05-22T12:13:00Z</time>
      </trkpt>
      <trkpt lat="45.82942" lon="3.0452">
        <ele>551</ele>
        <time>2021-05-22T12:13:08Z</time>
      </trkpt>
      <trkpt lat="45.8294" lon="3.04521">
        <ele>551</ele>
        <time>2021-05-22T12:13:10Z</time>
      </trkpt>
      <trkpt lat="45.82938" lon="3.04523">
        <ele>551</ele>
        <time>2021-05-22T12:13:11Z</time>
      </trkpt>
      <trkpt lat="45.82936" lon="3.04525">
        <ele>551</ele>
        <time>2021-05-22T12:13:13Z</time>
      </trkpt>
      <trkpt lat="45.82933" lon="3.04527">
        <ele>551</ele>
        <time>2021-05-22T12:13:15Z</time>
      </trkpt>
      <trkpt lat="45.8293" lon="3.04528">
        <ele>551</ele>
        <time>2021-05-22T12:13:17Z</time>
      </trkpt>
      <trkpt lat="45.82921" lon="3.04536">
        <ele>551</ele>
        <time>2021-05-22T12:13:23Z</time>
      </trkpt>
      <trkpt lat="45.8292" lon="3.04537">
        <ele>551</ele>
        <time>2021-05-22T12:13:25Z</time>
      </trkpt>
      <trkpt lat="45.82914" lon="3.04542">
        <ele>551</ele>
        <time>2021-05-22T12:13:33Z</time>
      </trkpt>
      <trkpt lat="45.82912" lon="3.04543">
        <ele>551</ele>
        <time>2021-05-22T12:13:35Z</time>
      </trkpt>
      <trkpt lat="45.82909" lon="3.04546">
        <ele>551</ele>
        <time>2021-05-22T12:13:37Z</time>
      </trkpt>
      <trkpt lat="45.82905" lon="3.0455">
        <ele>551</ele>
        <time>2021-05-22T12:13:39Z</time>
      </trkpt>
      <trkpt lat="45.82888" lon="3.04561">
        <ele>551</ele>
        <time>2021-05-22T12:13:55Z</time>
      </trkpt>
      <trkpt lat="45.82888" lon="3.04561">
        <ele>551</ele>
        <time>2021-05-22T12:13:57Z</time>
      </trkpt>
      <trkpt lat="45.8288" lon="3.04562">
        <ele>551</ele>
        <time>2021-05-22T12:14:07Z</time>
      </trkpt>
      <trkpt lat="45.82871" lon="3.04563">
        <ele>551</ele>
        <time>2021-05-22T12:14:11Z</time>
      </trkpt>
      <trkpt lat="45.8287" lon="3.04563">
        <ele>551</ele>
        <time>2021-05-22T12:14:12Z</time>
      </trkpt>
      <trkpt lat="45.82869" lon="3.04563">
        <ele>551</ele>
        <time>2021-05-22T12:14:13Z</time>
      </trkpt>
      <trkpt lat="45.82867" lon="3.04562">
        <ele>551</ele>
        <time>2021-05-22T12:14:14Z</time>
      </trkpt>
      <trkpt lat="45.82865" lon="3.0456">
        <ele>551</ele>
        <time>2021-05-22T12:14:15Z</time>
      </trkpt>
      <trkpt lat="45.82863" lon="3.04559">
        <ele>551</ele>
        <time>2021-05-22T12:14:16Z</time>
      </trkpt>
      <trkpt lat="45.8286" lon="3.04558">
        <ele>551</ele>
        <time>2021-05-22T12:14:17Z</time>
      </trkpt>
      <trkpt lat="45.82853" lon="3.04554">
        <ele>551</ele>
        <time>2021-05-22T12:14:26Z</time>
      </trkpt>
      <trkpt lat="45.82853" lon="3.04553">
        <ele>551</ele>
        <time>2021-05-22T12:14:27Z</time>
      </trkpt>
      <trkpt lat="45.82851" lon="3.04552">
        <ele>551</ele>
        <time>2021-05-22T12:14:28Z</time>
      </trkpt>
      <trkpt lat="45.8285" lon="3.0455">
        <ele>551</ele>
        <time>2021-05-22T12:14:29Z</time>
      </trkpt>
      <trkpt lat="45.82849" lon="3.04548">
        <ele>551</ele>
        <time>2021-05-22T12:14:30Z</time>
      </trkpt>
      <trkpt lat="45.82848" lon="3.04546">
        <ele>551</ele>
        <time>2021-05-22T12:14:31Z</time>
      </trkpt>
      <trkpt lat="45.82847" lon="3.04543">
        <ele>551</ele>
        <time>2021-05-22T12:14:32Z</time>
      </trkpt>
      <trkpt lat="45.82841" lon="3.04534">
        <ele>551</ele>
        <time>2021-05-22T12:14:39Z</time>
      </trkpt>
      <trkpt lat="45.8284" lon="3.04533">
        <ele>551</ele>
        <time>2021-05-22T12:14:40Z</time>
      </trkpt>
      <trkpt lat="45.82839" lon="3.04532">
        <ele>551</ele>
        <time>2021-05-22T12:14:41Z</time>
      </trkpt>
      <trkpt lat="45.82834" lon="3.04529">
        <ele>551</ele>
        <time>2021-05-22T12:14:44Z</time>
      </trkpt>
      <trkpt lat="45.82833" lon="3.04529">
        <ele>551</ele>
        <time>2021-05-22T12:14:45Z</time>
      </trkpt>
      <trkpt lat="45.82833" lon="3.04529">
        <ele>551</ele>
        <time>2021-05-22T12:14:46Z</time>
      </trkpt>
      <trkpt lat="45.82832" lon="3.0453">
        <ele>551</ele>
        <time>2021-05-22T12:14:47Z</time>
      </trkpt>
      <trkpt lat="45.8283" lon="3.04538">
        <ele>551</ele>
        <time>2021-05-22T12:14:58Z</time>
      </trkpt>
      <trkpt lat="45.8283" lon="3.04539">
        <ele>551</ele>
        <time>2021-05-22T12:14:59Z</time>
      </trkpt>
      <trkpt lat="45.8283" lon="3.04541">
        <ele>551</ele>
        <time>2021-05-22T12:15:00Z</time>
      </trkpt>
      <trkpt lat="45.8283" lon="3.04558">
        <ele>551</ele>
        <time>2021-05-22T12:15:16Z</time>
      </trkpt>
      <trkpt lat="45.8283" lon="3.0456">
        <ele>551</ele>
        <time>2021-05-22T12:15:17Z</time>
      </trkpt>
      <trkpt lat="45.8283" lon="3.0457">
        <ele>551</ele>
        <time>2021-05-22T12:15:21Z</time>
      </trkpt>
      <trkpt lat="45.8283" lon="3.04571">
        <ele>551</ele>
        <time>2021-05-22T12:15:22Z</time>
      </trkpt>
      <trkpt lat="45.8283" lon="3.04573">
        <ele>551</ele>
        <time>2021-05-22T12:15:23Z</time>
      </trkpt>
      <trkpt lat="45.82832" lon="3.04575">
        <ele>551</ele>
        <time>2021-05-22T12:15:24Z</time>
      </trkpt>
      <trkpt lat="45.82834" lon="3.04586">
        <ele>551</ele>
        <time>2021-05-22T12:15:30Z</time>
      </trkpt>
      <trkpt lat="45.82834" lon="3.04587">
        <ele>551</ele>
        <time>2021-05-22T12:15:31Z</time>
      </trkpt>
      <trkpt lat="45.82836" lon="3.04594">
        <ele>551</ele>
        <time>2021-05-22T12:15:34Z</time>
      </trkpt>
      <trkpt lat="45.82836" lon="3.04594">
        <ele>551</ele>
        <time>2021-05-22T12:15:35Z</time>
      </trkpt>
      <trkpt lat="45.82837" lon="3.04596">
        <ele>551</ele>
        <time>2021-05-22T12:15:36Z</time>
      </trkpt>
      <trkpt lat="45.82838" lon="3.04597">
        <ele>551</ele>
        <time>2021-05-22T12:15:37Z</time>
      </trkpt>
      <trkpt lat="45.82839" lon="3.04599">
        <ele>551</ele>
        <time>2021-05-22T12:15:38Z</time>
      </trkpt>
      <trkpt lat="45.82841" lon="3.04602">
        <ele>551</ele>
        <time>2021-05-22T12:15:39Z</time>
      </trkpt>
      <trkpt lat="45.82846" lon="3.0461">
        <ele>551</ele>
        <time>2021-05-22T12:15:46Z</time>
      </trkpt>
      <trkpt lat="45.82855" lon="3.04611">
        <ele>551</ele>
        <time>2021-05-22T12:16:00Z</time>
      </trkpt>
      <trkpt lat="45.82857" lon="3.04611">
        <ele>551</ele>
        <time>2021-05-22T12:16:02Z</time>
      </trkpt>
      <trkpt lat="45.82859" lon="3.04611">
        <ele>551</ele>
        <time>2021-05-22T12:16:04Z</time>
      </trkpt>
      <trkpt lat="45.82861" lon="3.04611">
        <ele>551</ele>
        <time>2021-05-22T12:16:06Z</time>
      </trkpt>
      <trkpt lat="45.82865" lon="3.04612">
        <ele>551</ele>
        <time>2021-05-22T12:16:08Z</time>
      </trkpt>
      <trkpt lat="45.82869" lon="3.04613">
        <ele>551</ele>
        <time>2021-05-22T12:16:10Z</time>
      </trkpt>
      <trkpt lat="45.82873" lon="3.04614">
        <ele>551</ele>
        <time>2021-05-22T12:16:12Z</time>
      </trkpt>
      <trkpt lat="45.82878" lon="3.04614">
        <ele>551</ele>
        <time>2021-05-22T12:16:14Z</time>
      </trkpt>
      <trkpt lat="45.82882" lon="3.04615">
        <ele>551</ele>
        <time>2021-05-22T12:16:16Z</time>
      </trkpt>
      <trkpt lat="45.8288" lon="3.0462">
        <ele>551</ele>
        <time>2021-05-22T12:17:00Z</time>
      </trkpt>
      <trkpt lat="45.8288" lon="3.0462">
        <ele>551</ele>
        <time>2021-05-22T12:17:02Z</time>
      </trkpt>
      <trkpt lat="45.82876" lon="3.04624">
        <ele>551</ele>
        <time>2021-05-22T12:17:06Z</time>
      </trkpt>
      <trkpt lat="45.82874" lon="3.04624">
        <ele>551</ele>
        <time>2021-05-22T12:17:08Z</time>
      </trkpt>
      <trkpt lat="45.82872" lon="3.04625">
        <ele>551</ele>
        <time>2021-05-22T12:17:10Z</time>
      </trkpt>
      <trkpt lat="45.82869" lon="3.04626">
        <ele>551</ele>
        <time>2021-05-22T12:17:12Z</time>
      </trkpt>
      <trkpt lat="45.82866" lon="3.04628">
        <ele>551</ele>
        <time>2021-05-22T12:17:14Z</time>
      </trkpt>
      <trkpt lat="45.82863" lon="3.0463">
        <ele>551</ele>
        <time>2021-05-22T12:17:16Z</time>
      </trkpt>
      <trkpt lat="45.82859" lon="3.04631">
        <ele>551</ele>
        <time>2021-05-22T12:17:18Z</time>
      </trkpt>
      <trkpt lat="45.82856" lon="3.04632">
        <ele>551</ele>
        <time>2021-05-22T12:17:20Z</time>
      </trkpt>
      <trkpt lat="45.82853" lon="3.04633">
        <ele>551</ele>
        <time>2021-05-22T12:17:22Z</time>
      </trkpt>
      <trkpt lat="45.8285" lon="3.04633">
        <ele>551</ele>
        <time>2021-05-22T12:17:24Z</time>
      </trkpt>
      <trkpt lat="45.82847" lon="3.04634">
        <ele>551</ele>
        <time>2021-05-22T12:17:25Z</time>
      </trkpt>
      <trkpt lat="45.82843" lon="3.04635">
        <ele>551</ele>
        <time>2021-05-22T12:17:27Z</time>
      </trkpt>
      <trkpt lat="45.8284" lon="3.04637">
        <ele>551</ele>
        <time>2021-05-22T12:17:29Z</time>
      </trkpt>
      <trkpt lat="45.82839" lon="3.04641">
        <ele>551</ele>
        <time>2021-05-22T12:17:31Z</time>
      </trkpt>
      <trkpt lat="45.82843" lon="3.04653">
        <ele>551</ele>
        <time>2021-05-22T12:17:37Z</time>
      </trkpt>
      <trkpt lat="45.82845" lon="3.04654">
        <ele>551</ele>
        <time>2021-05-22T12:17:39Z</time>
      </trkpt>
      <trkpt lat="45.82848" lon="3.04656">
        <ele>551</ele>
        <time>2021-05-22T12:17:41Z</time>
      </trkpt>
      <trkpt lat="45.82857" lon="3.04659">
        <ele>551</ele>
        <time>2021-05-22T12:17:45Z</time>
      </trkpt>
      <trkpt lat="45.82857" lon="3.04659">
        <ele>551</ele>
        <time>2021-05-22T12:17:47Z</time>
      </trkpt>
      <trkpt lat="45.82869" lon="3.0466">
        <ele>551</ele>
        <time>2021-05-22T12:18:05Z</time>
      </trkpt>
      <trkpt lat="45.82869" lon="3.0466">
        <ele>551</ele>
        <time>2021-05-22T12:18:07Z</time>
      </trkpt>
      <trkpt lat="45.82872" lon="3.0466">
        <ele>551</ele>
        <time>2021-05-22T12:18:09Z</time>
      </trkpt>
      <trkpt lat="45.82884" lon="3.04659">
        <ele>551</ele>
        <time>2021-05-22T12:18:15Z</time>
      </trkpt>
      <trkpt lat="45.82886" lon="3.04659">
        <ele>551</ele>
        <time>2021-05-22T12:18:17Z</time>
      </trkpt>
      <trkpt lat="45.82887" lon="3.04659">
        <ele>551</ele>
        <time>2021-05-22T12:18:19Z</time>
      </trkpt>
      <trkpt lat="45.829" lon="3.04662">
        <ele>551</ele>
        <time>2021-05-22T12:18:23Z</time>
      </trkpt>
      <trkpt lat="45.82908" lon="3.04665">
        <ele>551</ele>
        <time>2021-05-22T12:18:27Z</time>
      </trkpt>
      <trkpt lat="45.82908" lon="3.04665">
        <ele>551</ele>
        <time>2021-05-22T12:18:29Z</time>
      </trkpt>
      <trkpt lat="45.82912" lon="3.04666">
        <ele>551</ele>
        <time>2021-05-22T12:18:31Z</time>
      </trkpt>
      <trkpt lat="45.82928" lon="3.04669">
        <ele>551</ele>
        <time>2021-05-22T12:18:35Z</time>
      </trkpt>
      <trkpt lat="45.8293" lon="3.0467">
        <ele>551</ele>
        <time>2021-05-22T12:18:37Z</time>
      </trkpt>
      <trkpt lat="45.82939" lon="3.04674">
        <ele>551</ele>
        <time>2021-05-22T12:18:41Z</time>
      </trkpt>
      <trkpt lat="45.8294" lon="3.04674">
        <ele>551</ele>
        <time>2021-05-22T12:18:43Z</time>
      </trkpt>
      <trkpt lat="45.82943" lon="3.04676">
        <ele>551</ele>
        <time>2021-05-22T12:18:45Z</time>
      </trkpt>
      <trkpt lat="45.82946" lon="3.04679">
        <ele>551</ele>
        <time>2021-05-22T12:18:47Z</time>
      </trkpt>
      <trkpt lat="45.82957" lon="3.04688">
        <ele>551</ele>
        <time>2021-05-22T12:18:51Z</time>
      </trkpt>
      <trkpt lat="45.82958" lon="3.04689">
        <ele>551</ele>
        <time>2021-05-22T12:18:53Z</time>
      </trkpt>
      <trkpt lat="45.8296" lon="3.04692">
        <ele>551</ele>
        <time>2021-05-22T12:18:55Z</time>
      </trkpt>
      <trkpt lat="45.82963" lon="3.04695">
        <ele>551</ele>
        <time>2021-05-22T12:18:57Z</time>
      </trkpt>
      <trkpt lat="45.82965" lon="3.04697">
        <ele>551</ele>
        <time>2021-05-22T12:18:59Z</time>
      </trkpt>
      <trkpt lat="45.82973" lon="3.04711">
        <ele>551</ele>
        <time>2021-05-22T12:19:05Z</time>
      </trkpt>
      <trkpt lat="45.82974" lon="3.04713">
        <ele>551</ele>
        <time>2021-05-22T12:19:07Z</time>
      </trkpt>
      <trkpt lat="45.82975" lon="3.04717">
        <ele>551</ele>
        <time>2021-05-22T12:19:09Z</time>
      </trkpt>
      <trkpt lat="45.82977" lon="3.04722">
        <ele>551</ele>
        <time>2021-05-22T12:19:11Z</time>
      </trkpt>
      <trkpt lat="45.82979" lon="3.04727">
        <ele>551</ele>
        <time>2021-05-22T12:19:13Z</time>
      </trkpt>
      <trkpt lat="45.82982" lon="3.04732">
        <ele>551</ele>
        <time>2021-05-22T12:19:15Z</time>
      </trkpt>
      <trkpt lat="45.82984" lon="3.04738">
        <ele>551</ele>
        <time>2021-05-22T12:19:17Z</time>
      </trkpt>
      <trkpt lat="45.82987" lon="3.04742">
        <ele>551</ele>
        <time>2021-05-22T12:19:19Z</time>
      </trkpt>
      <trkpt lat="45.8299" lon="3.04745">
        <ele>551</ele>
        <time>2021-05-22T12:19:21Z</time>
      </trkpt>
      <trkpt lat="45.82991" lon="3.04748">
        <ele>551</ele>
        <time>2021-05-22T12:19:23Z</time>
      </trkpt>
      <trkpt lat="45.82993" lon="3.04751">
        <ele>551</ele>
        <time>2021-05-22T12:19:25Z</time>
      </trkpt>
      <trkpt lat="45.82995" lon="3.04754">
        <ele>551</ele>
        <time>2021-05-22T12:19:27Z</time>
      </trkpt>
      <trkpt lat="45.82996" lon="3.04757">
        <ele>551</ele>
        <time>2021-05-22T12:19:29Z</time>
      </trkpt>
      <trkpt lat="45.82998" lon="3.0476">
        <ele>551</ele>
        <time>2021-05-22T12:19:31Z</time>
      </trkpt>
      <trkpt lat="45.82999" lon="3.04763">
        <ele>551</ele>
        <time>2021-05-22T12:19:33Z</time>
      </trkpt>
      <trkpt lat="45.83002" lon="3.04766">
        <ele>551</ele>
        <time>2021-05-22T12:19:35Z</time>
      </trkpt>
      <trkpt lat="45.83004" lon="3.04768">
        <ele>551</ele>
        <time>2021-05-22T12:19:37Z</time>
      </trkpt>
      <trkpt lat="45.83006" lon="3.04771">
        <ele>551</ele>
        <time>2021-05-22T12:19:39Z</time>
      </trkpt>
      <trkpt lat="45.83007" lon="3.04774">
        <ele>551</ele>
        <time>2021-05-22T12:19:41Z</time>
      </trkpt>
      <trkpt lat="45.83009" lon="3.04778">
        <ele>551</ele>
        <time>2021-05-22T12:19:43Z</time>
      </trkpt>
      <trkpt lat="45.83011" lon="3.0478">
        <ele>551</ele>
        <time>2021-05-22T12:19:45Z</time>
      </trkpt>
      <trkpt lat="45.83012" lon="3.04783">
        <ele>551</ele>
        <time>2021-05-22T12:19:47Z</time>
      </trkpt>
      <trkpt lat="45.83014" lon="3.04786">
        <ele>551</ele>
        <time>2021-05-22T12:19:49Z</time>
      </trkpt>
      <trkpt lat="45.83017" lon="3.04789">
        <ele>551</ele>
        <time>2021-05-22T12:19:51Z</time>
      </trkpt>
      <trkpt lat="45.83019" lon="3.04792">
        <ele>551</ele>
        <time>2021-05-22T12:19:53Z</time>
      </trkpt>
      <trkpt lat="45.83022" lon="3.04794">
        <ele>551</ele>
        <time>2021-05-22T12:19:55Z</time>
      </trkpt>
      <trkpt lat="45.83023" lon="3.048">
        <ele>551</ele>
        <time>2021-05-22T12:19:57Z</time>
      </trkpt>
      <trkpt lat="45.83026" lon="3.04804">
        <ele>551</ele>
        <time>2021-05-22T12:19:59Z</time>
      </trkpt>
      <trkpt lat="45.83028" lon="3.04807">
        <ele>551</ele>
        <time>2021-05-22T12:20:01Z</time>
      </trkpt>
      <trkpt lat="45.83031" lon="3.04809">
        <ele>551</ele>
        <time>2021-05-22T12:20:03Z</time>
      </trkpt>
      <trkpt lat="45.83034" lon="3.04813">
        <ele>551</ele>
        <time>2021-05-22T12:20:05Z</time>
      </trkpt>
      <trkpt lat="45.83036" lon="3.04817">
        <ele>551</ele>
        <time>2021-05-22T12:20:07Z</time>
      </trkpt>
      <trkpt lat="45.83043" lon="3.0482">
        <ele>551</ele>
        <time>2021-05-22T12:20:13Z</time>
      </trkpt>
      <trkpt lat="45.83044" lon="3.04818">
        <ele>551</ele>
        <time>2021-05-22T12:20:15Z</time>
      </trkpt>
      <trkpt lat="45.83044" lon="3.04816">
        <ele>551</ele>
        <time>2021-05-22T12:20:17Z</time>
      </trkpt>
      <trkpt lat="45.83046" lon="3.04812">
        <ele>551</ele>
        <time>2021-05-22T12:20:19Z</time>
      </trkpt>
      <trkpt lat="45.83048" lon="3.04809">
        <ele>551</ele>
        <time>2021-05-22T12:20:21Z</time>
      </trkpt>
      <trkpt lat="45.83055" lon="3.04798">
        <ele>551</ele>
        <time>2021-05-22T12:20:25Z</time>
      </trkpt>
      <trkpt lat="45.83055" lon="3.04797">
        <ele>551</ele>
        <time>2021-05-22T12:20:27Z</time>
      </trkpt>
      <trkpt lat="45.83056" lon="3.04794">
        <ele>551</ele>
        <time>2021-05-22T12:20:29Z</time>
      </trkpt>
      <trkpt lat="45.83057" lon="3.04791">
        <ele>551</ele>
        <time>2021-05-22T12:20:31Z</time>
      </trkpt>
      <trkpt lat="45.83059" lon="3.04788">
        <ele>551</ele>
        <time>2021-05-22T12:20:33Z</time>
      </trkpt>
      <trkpt lat="45.83059" lon="3.04785">
        <ele>551</ele>
        <time>2021-05-22T12:20:35Z</time>
      </trkpt>
      <trkpt lat="45.83062" lon="3.04781">
        <ele>551</ele>
        <time>2021-05-22T12:20:37Z</time>
      </trkpt>
      <trkpt lat="45.83062" lon="3.04777">
        <ele>551</ele>
        <time>2021-05-22T12:20:39Z</time>
      </trkpt>
      <trkpt lat="45.83064" lon="3.04773">
        <ele>551</ele>
        <time>2021-05-22T12:20:42Z</time>
      </trkpt>
      <trkpt lat="45.83066" lon="3.04769">
        <ele>551</ele>
        <time>2021-05-22T12:20:43Z</time>
      </trkpt>
      <trkpt lat="45.83068" lon="3.04765">
        <ele>551</ele>
        <time>2021-05-22T12:20:45Z</time>
      </trkpt>
      <trkpt lat="45.83069" lon="3.04762">
        <ele>551</ele>
        <time>2021-05-22T12:20:47Z</time>
      </trkpt>
      <trkpt lat="45.83071" lon="3.0476">
        <ele>551</ele>
        <time>2021-05-22T12:20:49Z</time>
      </trkpt>
      <trkpt lat="45.83077" lon="3.04752">
        <ele>551</ele>
        <time>2021-05-22T12:20:55Z</time>
      </trkpt>
      <trkpt lat="45.83077" lon="3.04752">
        <ele>551</ele>
        <time>2021-05-22T12:20:57Z</time>
      </trkpt>
      <trkpt lat="45.8308" lon="3.04748">
        <ele>551</ele>
        <time>2021-05-22T12:21:03Z</time>
      </trkpt>
      <trkpt lat="45.8308" lon="3.04746">
        <ele>551</ele>
        <time>2021-05-22T12:21:05Z</time>
      </trkpt>
      <trkpt lat="45.83079" lon="3.04742">
        <ele>551</ele>
        <time>2021-05-22T12:21:07Z</time>
      </trkpt>
      <trkpt lat="45.83079" lon="3.04736">
        <ele>551</ele>
        <time>2021-05-22T12:21:09Z</time>
      </trkpt>
      <trkpt lat="45.8308" lon="3.04729">
        <ele>551</ele>
        <time>2021-05-22T12:21:11Z</time>
      </trkpt>
      <trkpt lat="45.83082" lon="3.04724">
        <ele>551</ele>
        <time>2021-05-22T12:21:13Z</time>
      </trkpt>
      <trkpt lat="45.83083" lon="3.04719">
        <ele>551</ele>
        <time>2021-05-22T12:21:15Z</time>
      </trkpt>
      <trkpt lat="45.83086" lon="3.04714">
        <ele>551</ele>
        <time>2021-05-22T12:21:17Z</time>
      </trkpt>
      <trkpt lat="45.83088" lon="3.04709">
        <ele>551</ele>
        <time>2021-05-22T12:21:19Z</time>
      </trkpt>
      <trkpt lat="45.8309" lon="3.04705">
        <ele>551</ele>
        <time>2021-05-22T12:21:21Z</time>
      </trkpt>
      <trkpt lat="45.83092" lon="3.04701">
        <ele>551</ele>
        <time>2021-05-22T12:21:23Z</time>
      </trkpt>
      <trkpt lat="45.83093" lon="3.04698">
        <ele>551</ele>
        <time>2021-05-22T12:21:25Z</time>
      </trkpt>
      <trkpt lat="45.83095" lon="3.04694">
        <ele>551</ele>
        <time>2021-05-22T12:21:27Z</time>
      </trkpt>
      <trkpt lat="45.83098" lon="3.04691">
        <ele>551</ele>
        <time>2021-05-22T12:21:29Z</time>
      </trkpt>
      <trkpt lat="45.83106" lon="3.04682">
        <ele>551</ele>
        <time>2021-05-22T12:21:33Z</time>
      </trkpt>
      <trkpt lat="45.83107" lon="3.04682">
        <ele>551</ele>
        <time>2021-05-22T12:21:35Z</time>
      </trkpt>
      <trkpt lat="45.83108" lon="3.04681">
        <ele>551</ele>
        <time>2021-05-22T12:21:37Z</time>
      </trkpt>
      <trkpt lat="45.83109" lon="3.04681">
        <ele>551</ele>
        <time>2021-05-22T12:21:39Z</time>
      </trkpt>
      <trkpt lat="45.83111" lon="3.0468">
        <ele>551</ele>
        <time>2021-05-22T12:21:40Z</time>
      </trkpt>
      <trkpt lat="45.83114" lon="3.04679">
        <ele>551</ele>
        <time>2021-05-22T12:21:42Z</time>
      </trkpt>
      <trkpt lat="45.83116" lon="3.0468">
        <ele>551</ele>
        <time>2021-05-22T12:21:44Z</time>
      </trkpt>
      <trkpt lat="45.83119" lon="3.04681">
        <ele>551</ele>
        <time>2021-05-22T12:21:46Z</time>
      </trkpt>
      <trkpt lat="45.83122" lon="3.04682">
        <ele>551</ele>
        <time>2021-05-22T12:21:48Z</time>
      </trkpt>
      <trkpt lat="45.83125" lon="3.04683">
        <ele>551</ele>
        <time>2021-05-22T12:21:50Z</time>
      </trkpt>
      <trkpt lat="45.83127" lon="3.04684">
        <ele>551</ele>
        <time>2021-05-22T12:21:52Z</time>
      </trkpt>
      <trkpt lat="45.83133" lon="3.04688">
        <ele>551</ele>
        <time>2021-05-22T12:21:56Z</time>
      </trkpt>
      <trkpt lat="45.83134" lon="3.04689">
        <ele>551</ele>
        <time>2021-05-22T12:21:58Z</time>
      </trkpt>
      <trkpt lat="45.83134" lon="3.0469">
        <ele>551</ele>
        <time>2021-05-22T12:22:00Z</time>
      </trkpt>
      <trkpt lat="45.83135" lon="3.04692">
        <ele>551</ele>
        <time>2021-05-22T12:22:02Z</time>
      </trkpt>
      <trkpt lat="45.83142" lon="3.04696">
        <ele>551</ele>
        <time>2021-05-22T12:22:06Z</time>
      </trkpt>
      <trkpt lat="45.83143" lon="3.04696">
        <ele>551</ele>
        <time>2021-05-22T12:22:08Z</time>
      </trkpt>
      <trkpt lat="45.83145" lon="3.04697">
        <ele>551</ele>
        <time>2021-05-22T12:22:10Z</time>
      </trkpt>
      <trkpt lat="45.83148" lon="3.04698">
        <ele>551</ele>
        <time>2021-05-22T12:22:12Z</time>
      </trkpt>
      <trkpt lat="45.83151" lon="3.04699">
        <ele>551</ele>
        <time>2021-05-22T12:22:14Z</time>
      </trkpt>
      <trkpt lat="45.83154" lon="3.047">
        <ele>551</ele>
        <time>2021-05-22T12:22:16Z</time>
      </trkpt>
      <trkpt lat="45.83157" lon="3.04701">
        <ele>551</ele>
        <time>2021-05-22T12:22:18Z</time>
      </trkpt>
      <trkpt lat="45.83161" lon="3.04702">
        <ele>551</ele>
        <time>2021-05-22T12:22:20Z</time>
      </trkpt>
      <trkpt lat="45.83164" lon="3.04704">
        <ele>551</ele>
        <time>2021-05-22T12:22:22Z</time>
      </trkpt>
      <trkpt lat="45.83167" lon="3.04705">
        <ele>551</ele>
        <time>2021-05-22T12:22:24Z</time>
      </trkpt>
      <trkpt lat="45.8317" lon="3.04706">
        <ele>551</ele>
        <time>2021-05-22T12:22:26Z</time>
      </trkpt>
      <trkpt lat="45.83173" lon="3.04707">
        <ele>551</ele>
        <time>2021-05-22T12:22:28Z</time>
      </trkpt>
      <trkpt lat="45.83176" lon="3.04707">
        <ele>551</ele>
        <time>2021-05-22T12:22:30Z</time>
      </trkpt>
      <trkpt lat="45.8318" lon="3.04708">
        <ele>551</ele>
        <time>2021-05-22T12:22:32Z</time>
      </trkpt>
      <trkpt lat="45.83184" lon="3.04709">
        <ele>551</ele>
        <time>2021-05-22T12:22:34Z</time>
      </trkpt>
      <trkpt lat="45.83186" lon="3.0471">
        <ele>551</ele>
        <time>2021-05-22T12:22:36Z</time>
      </trkpt>
      <trkpt lat="45.83189" lon="3.0471">
        <ele>551</ele>
        <time>2021-05-22T12:22:38Z</time>
      </trkpt>
      <trkpt lat="45.83192" lon="3.04711">
        <ele>551</ele>
        <time>2021-05-22T12:22:40Z</time>
      </trkpt>
      <trkpt lat="45.83205" lon="3.04711">
        <ele>551</ele>
        <time>2021-05-22T12:22:46Z</time>
      </trkpt>
      <trkpt lat="45.83207" lon="3.04711">
        <ele>551</ele>
        <time>2021-05-22T12:22:48Z</time>
      </trkpt>
      <trkpt lat="45.83208" lon="3.04711">
        <ele>551</ele>
        <time>2021-05-22T12:22:49Z</time>
      </trkpt>
      <trkpt lat="45.8321" lon="3.04711">
        <ele>551</ele>
        <time>2021-05-22T12:22:50Z</time>
      </trkpt>
      <trkpt lat="45.83213" lon="3.04712">
        <ele>551</ele>
        <time>2021-05-22T12:22:51Z</time>
      </trkpt>
      <trkpt lat="45.83215" lon="3.04712">
        <ele>551</ele>
        <time>2021-05-22T12:22:52Z</time>
      </trkpt>
      <trkpt lat="45.83218" lon="3.04712">
        <ele>551</ele>
        <time>2021-05-22T12:22:53Z</time>
      </trkpt>
      <trkpt lat="45.83221" lon="3.04712">
        <ele>551</ele>
        <time>2021-05-22T12:22:54Z</time>
      </trkpt>
      <trkpt lat="45.83224" lon="3.04711">
        <ele>551</ele>
        <time>2021-05-22T12:22:55Z</time>
      </trkpt>
      <trkpt lat="45.83226" lon="3.0471">
        <ele>551</ele>
        <time>2021-05-22T12:22:56Z</time>
      </trkpt>
      <trkpt lat="45.83228" lon="3.04709">
        <ele>551</ele>
        <time>2021-05-22T12:22:57Z</time>
      </trkpt>
      <trkpt lat="45.8323" lon="3.04709">
        <ele>551</ele>
        <time>2021-05-22T12:22:58Z</time>
      </trkpt>
      <trkpt lat="45.83231" lon="3.04709">
        <ele>551</ele>
        <time>2021-05-22T12:22:59Z</time>
      </trkpt>
      <trkpt lat="45.83233" lon="3.04709">
        <ele>551</ele>
        <time>2021-05-22T12:23:00Z</time>
      </trkpt>
      <trkpt lat="45.83234" lon="3.04709">
        <ele>551</ele>
        <time>2021-05-22T12:23:01Z</time>
      </trkpt>
      <trkpt lat="45.83236" lon="3.04709">
        <ele>551</ele>
        <time>2021-05-22T12:23:02Z</time>
      </trkpt>
      <trkpt lat="45.83237" lon="3.0471">
        <ele>551</ele>
        <time>2021-05-22T12:23:03Z</time>
      </trkpt>
      <trkpt lat="45.83239" lon="3.0471">
        <ele>551</ele>
        <time>2021-05-22T12:23:04Z</time>
      </trkpt>
      <trkpt lat="45.83241" lon="3.0471">
        <ele>551</ele>
        <time>2021-05-22T12:23:05Z</time>
      </trkpt>
      <trkpt lat="45.83242" lon="3.0471">
        <ele>551</ele>
        <time>2021-05-22T12:23:06Z</time>
      </trkpt>
      <trkpt lat="45.83243" lon="3.0471">
        <ele>551</ele>
        <time>2021-05-22T12:23:07Z</time>
      </trkpt>
      <trkpt lat="45.83245" lon="3.0471">
        <ele>551</ele>
        <time>2021-05-22T12:23:08Z</time>
      </trkpt>
      <trkpt lat="45.83246" lon="3.0471">
        <ele>551</ele>
        <time>2021-05-22T12:23:09Z</time>
      </trkpt>
      <trkpt lat="45.83247" lon="3.0471">
        <ele>551</ele>
        <time>2021-05-22T12:23:10Z</time>
      </trkpt>
      <trkpt lat="45.83249" lon="3.0471">
        <ele>551</ele>
        <time>2021-05-22T12:23:11Z</time>
      </trkpt>
      <trkpt lat="45.83251" lon="3.0471">
        <ele>551</ele>
        <time>2021-05-22T12:23:12Z</time>
      </trkpt>
      <trkpt lat="45.83253" lon="3.0471">
        <ele>551</ele>
        <time>2021-05-22T12:23:13Z</time>
      </trkpt>
      <trkpt lat="45.83255" lon="3.04709">
        <ele>551</ele>
        <time>2021-05-22T12:23:14Z</time>
      </trkpt>
      <trkpt lat="45.83257" lon="3.04709">
        <ele>551</ele>
        <time>2021-05-22T12:23:15Z</time>
      </trkpt>
      <trkpt lat="45.83258" lon="3.04708">
        <ele>551</ele>
        <time>2021-05-22T12:23:16Z</time>
      </trkpt>
      <trkpt lat="45.83264" lon="3.04707">
        <ele>551</ele>
        <time>2021-05-22T12:23:19Z</time>
      </trkpt>
      <trkpt lat="45.83264" lon="3.04707">
        <ele>551</ele>
        <time>2021-05-22T12:23:20Z</time>
      </trkpt>
      <trkpt lat="45.83265" lon="3.04707">
        <ele>551</ele>
        <time>2021-05-22T12:23:21Z</time>
      </trkpt>
      <trkpt lat="45.83267" lon="3.04707">
        <ele>551</ele>
        <time>2021-05-22T12:23:22Z</time>
      </trkpt>
      <trkpt lat="45.83268" lon="3.04707">
        <ele>551</ele>
        <time>2021-05-22T12:23:23Z</time>
      </trkpt>
      <trkpt lat="45.8327" lon="3.04707">
        <ele>551</ele>
        <time>2021-05-22T12:23:24Z</time>
      </trkpt>
      <trkpt lat="45.83271" lon="3.04707">
        <ele>551</ele>
        <time>2021-05-22T12:23:25Z</time>
      </trkpt>
      <trkpt lat="45.83273" lon="3.04707">
        <ele>551</ele>
        <time>2021-05-22T12:23:26Z</time>
      </trkpt>
      <trkpt lat="45.8328" lon="3.04706">
        <ele>551</ele>
        <time>2021-05-22T12:23:30Z</time>
      </trkpt>
      <trkpt lat="45.83281" lon="3.04706">
        <ele>551</ele>
        <time>2021-05-22T12:23:31Z</time>
      </trkpt>
      <trkpt lat="45.83282" lon="3.04706">
        <ele>551</ele>
        <time>2021-05-22T12:23:32Z</time>
      </trkpt>
      <trkpt lat="45.83283" lon="3.04705">
        <ele>551</ele>
        <time>2021-05-22T12:23:33Z</time>
      </trkpt>
      <trkpt lat="45.83285" lon="3.04705">
        <ele>551</ele>
        <time>2021-05-22T12:23:34Z</time>
      </trkpt>
      <trkpt lat="45.83286" lon="3.04705">
        <ele>551</ele>
        <time>2021-05-22T12:23:35Z</time>
      </trkpt>
      <trkpt lat="45.83291" lon="3.04704">
        <ele>551</ele>
        <time>2021-05-22T12:23:38Z</time>
      </trkpt>
      <trkpt lat="45.83291" lon="3.04704">
        <ele>551</ele>
        <time>2021-05-22T12:23:39Z</time>
      </trkpt>
      <trkpt lat="45.83292" lon="3.04703">
        <ele>551</ele>
        <time>2021-05-22T12:23:40Z</time>
      </trkpt>
      <trkpt lat="45.83294" lon="3.04703">
        <ele>551</ele>
        <time>2021-05-22T12:23:41Z</time>
      </trkpt>
      <trkpt lat="45.83294" lon="3.04703">
        <ele>551</ele>
        <time>2021-05-22T12:23:42Z</time>
      </trkpt>
      <trkpt lat="45.83296" lon="3.04702">
        <ele>551</ele>
        <time>2021-05-22T12:23:43Z</time>
      </trkpt>
      <trkpt lat="45.83297" lon="3.04702">
        <ele>551</ele>
        <time>2021-05-22T12:23:44Z</time>
      </trkpt>
      <trkpt lat="45.83299" lon="3.04702">
        <ele>551</ele>
        <time>2021-05-22T12:23:45Z</time>
      </trkpt>
      <trkpt lat="45.83301" lon="3.04702">
        <ele>551</ele>
        <time>2021-05-22T12:23:46Z</time>
      </trkpt>
      <trkpt lat="45.83303" lon="3.04702">
        <ele>551</ele>
        <time>2021-05-22T12:23:47Z</time>
      </trkpt>
      <trkpt lat="45.83305" lon="3.04702">
        <ele>551</ele>
        <time>2021-05-22T12:23:48Z</time>
      </trkpt>
      <trkpt lat="45.83307" lon="3.04702">
        <ele>551</ele>
        <time>2021-05-22T12:23:49Z</time>
      </trkpt>
      <trkpt lat="45.8331" lon="3.04702">
        <ele>551</ele>
        <time>2021-05-22T12:23:50Z</time>
      </trkpt>
      <trkpt lat="45.83312" lon="3.04702">
        <ele>551</ele>
        <time>2021-05-22T12:23:51Z</time>
      </trkpt>
      <trkpt lat="45.83315" lon="3.04703">
        <ele>551</ele>
        <time>2021-05-22T12:23:52Z</time>
      </trkpt>
      <trkpt lat="45.83316" lon="3.04703">
        <ele>551</ele>
        <time>2021-05-22T12:23:53Z</time>
      </trkpt>
      <trkpt lat="45.83318" lon="3.04703">
        <ele>551</ele>
        <time>2021-05-22T12:23:54Z</time>
      </trkpt>
      <trkpt lat="45.8332" lon="3.04703">
        <ele>551</ele>
        <time>2021-05-22T12:23:55Z</time>
      </trkpt>
      <trkpt lat="45.83322" lon="3.04703">
        <ele>551</ele>
        <time>2021-05-22T12:23:56Z</time>
      </trkpt>
      <trkpt lat="45.83325" lon="3.04702">
        <ele>551</ele>
        <time>2021-05-22T12:23:57Z</time>
      </trkpt>
      <trkpt lat="45.83326" lon="3.04702">
        <ele>551</ele>
        <time>2021-05-22T12:23:58Z</time>
      </trkpt>
      <trkpt lat="45.83328" lon="3.04702">
        <ele>551</ele>
        <time>2021-05-22T12:23:59Z</time>
      </trkpt>
      <trkpt lat="45.83329" lon="3.04702">
        <ele>551</ele>
        <time>2021-05-22T12:24:00Z</time>
      </trkpt>
      <trkpt lat="45.83331" lon="3.04702">
        <ele>551</ele>
        <time>2021-05-22T12:24:01Z</time>
      </trkpt>
      <trkpt lat="45.83332" lon="3.04702">
        <ele>551</ele>
        <time>2021-05-22T12:24:02Z</time>
      </trkpt>
      <trkpt lat="45.83334" lon="3.04702">
        <ele>551</ele>
        <time>2021-05-22T12:24:03Z</time>
      </trkpt>
      <trkpt lat="45.83336" lon="3.04702">
        <ele>551</ele>
        <time>2021-05-22T12:24:04Z</time>
      </trkpt>
      <trkpt lat="45.83338" lon="3.04702">
        <ele>551</ele>
        <time>2021-05-22T12:24:05Z</time>
      </trkpt>
      <trkpt lat="45.8334" lon="3.04702">
        <ele>551</ele>
        <time>2021-05-22T12:24:06Z</time>
      </trkpt>
      <trkpt lat="45.83341" lon="3.04703">
        <ele>551</ele>
        <time>2021-05-22T12:24:07Z</time>
      </trkpt>
      <trkpt lat="45.83343" lon="3.04703">
        <ele>551</ele>
        <time>2021-05-22T12:24:08Z</time>
      </trkpt>
      <trkpt lat="45.83347" lon="3.04704">
        <ele>551</ele>
        <time>2021-05-22T12:24:11Z</time>
      </trkpt>
      <trkpt lat="45.83348" lon="3.04704">
        <ele>551</ele>
        <time>2021-05-22T12:24:12Z</time>
      </trkpt>
      <trkpt lat="45.83348" lon="3.04704">
        <ele>551</ele>
        <time>2021-05-22T12:24:13Z</time>
      </trkpt>
      <trkpt lat="45.83349" lon="3.04704">
        <ele>551</ele>
        <time>2021-05-22T12:24:14Z</time>
      </trkpt>
      <trkpt lat="45.8335" lon="3.04704">
        <ele>551</ele>
        <time>2021-05-22T12:24:15Z</time>
      </trkpt>
      <trkpt lat="45.83351" lon="3.04703">
        <ele>551</ele>
        <time>2021-05-22T12:24:16Z</time>
      </trkpt>
      <trkpt lat="45.83353" lon="3.04703">
        <ele>551</ele>
        <time>2021-05-22T12:24:17Z</time>
      </trkpt>
      <trkpt lat="45.83354" lon="3.04703">
        <ele>551</ele>
        <time>2021-05-22T12:24:18Z</time>
      </trkpt>
      <trkpt lat="45.83356" lon="3.04703">
        <ele>551</ele>
        <time>2021-05-22T12:24:19Z</time>
      </trkpt>
      <trkpt lat="45.83358" lon="3.04703">
        <ele>551</ele>
        <time>2021-05-22T12:24:20Z</time>
      </trkpt>
      <trkpt lat="45.83359" lon="3.04702">
        <ele>551</ele>
        <time>2021-05-22T12:24:21Z</time>
      </trkpt>
      <trkpt lat="45.83361" lon="3.04702">
        <ele>551</ele>
        <time>2021-05-22T12:24:22Z</time>
      </trkpt>
      <trkpt lat="45.83362" lon="3.04702">
        <ele>551</ele>
        <time>2021-05-22T12:24:23Z</time>
      </trkpt>
      <trkpt lat="45.83364" lon="3.04702">
        <ele>551</ele>
        <time>2021-05-22T12:24:24Z</time>
      </trkpt>
      <trkpt lat="45.83366" lon="3.04701">
        <ele>551</ele>
        <time>2021-05-22T12:24:25Z</time>
      </trkpt>
      <trkpt lat="45.83367" lon="3.047">
        <ele>551</ele>
        <time>2021-05-22T12:24:26Z</time>
      </trkpt>
      <trkpt lat="45.83369" lon="3.047">
        <ele>551</ele>
        <time>2021-05-22T12:24:27Z</time>
      </trkpt>
      <trkpt lat="45.83371" lon="3.04699">
        <ele>551</ele>
        <time>2021-05-22T12:24:28Z</time>
      </trkpt>
      <trkpt lat="45.83373" lon="3.04698">
        <ele>551</ele>
        <time>2021-05-22T12:24:29Z</time>
      </trkpt>
      <trkpt lat="45.83376" lon="3.04698">
        <ele>551</ele>
        <time>2021-05-22T12:24:30Z</time>
      </trkpt>
      <trkpt lat="45.83378" lon="3.04697">
        <ele>551</ele>
        <time>2021-05-22T12:24:31Z</time>
      </trkpt>
      <trkpt lat="45.8338" lon="3.04696">
        <ele>551</ele>
        <time>2021-05-22T12:24:32Z</time>
      </trkpt>
      <trkpt lat="45.83382" lon="3.04696">
        <ele>551</ele>
        <time>2021-05-22T12:24:33Z</time>
      </trkpt>
      <trkpt lat="45.83385" lon="3.04695">
        <ele>551</ele>
        <time>2021-05-22T12:24:34Z</time>
      </trkpt>
      <trkpt lat="45.83387" lon="3.04694">
        <ele>551</ele>
        <time>2021-05-22T12:24:35Z</time>
      </trkpt>
      <trkpt lat="45.83389" lon="3.04694">
        <ele>551</ele>
        <time>2021-05-22T12:24:36Z</time>
      </trkpt>
      <trkpt lat="45.83391" lon="3.04693">
        <ele>551</ele>
        <time>2021-05-22T12:24:38Z</time>
      </trkpt>
      <trkpt lat="45.83395" lon="3.04691">
        <ele>551</ele>
        <time>2021-05-22T12:24:40Z</time>
      </trkpt>
      <trkpt lat="45.83398" lon="3.0469">
        <ele>551</ele>
        <time>2021-05-22T12:24:42Z</time>
      </trkpt>
      <trkpt lat="45.83402" lon="3.04688">
        <ele>551</ele>
        <time>2021-05-22T12:24:44Z</time>
      </trkpt>
      <trkpt lat="45.83405" lon="3.04687">
        <ele>551</ele>
        <time>2021-05-22T12:24:46Z</time>
      </trkpt>
      <trkpt lat="45.83408" lon="3.04685">
        <ele>551</ele>
        <time>2021-05-22T12:24:48Z</time>
      </trkpt>
      <trkpt lat="45.83411" lon="3.04684">
        <ele>551</ele>
        <time>2021-05-22T12:24:50Z</time>
      </trkpt>
      <trkpt lat="45.83414" lon="3.04682">
        <ele>551</ele>
        <time>2021-05-22T12:24:52Z</time>
      </trkpt>
      <trkpt lat="45.83417" lon="3.0468">
        <ele>551</ele>
        <time>2021-05-22T12:24:54Z</time>
      </trkpt>
      <trkpt lat="45.83421" lon="3.04679">
        <ele>551</ele>
        <time>2021-05-22T12:24:56Z</time>
      </trkpt>
      <trkpt lat="45.83424" lon="3.04678">
        <ele>551</ele>
        <time>2021-05-22T12:24:58Z</time>
      </trkpt>
      <trkpt lat="45.83427" lon="3.04678">
        <ele>551</ele>
        <time>2021-05-22T12:25:00Z</time>
      </trkpt>
      <trkpt lat="45.83431" lon="3.04679">
        <ele>551</ele>
        <time>2021-05-22T12:25:02Z</time>
      </trkpt>
      <trkpt lat="45.83433" lon="3.0468">
        <ele>551</ele>
        <time>2021-05-22T12:25:04Z</time>
      </trkpt>
      <trkpt lat="45.83434" lon="3.04684">
        <ele>551</ele>
        <time>2021-05-22T12:25:06Z</time>
      </trkpt>
      <trkpt lat="45.83434" lon="3.04688">
        <ele>551</ele>
        <time>2021-05-22T12:25:08Z</time>
      </trkpt>
      <trkpt lat="45.83434" lon="3.04692">
        <ele>551</ele>
        <time>2021-05-22T12:25:10Z</time>
      </trkpt>
      <trkpt lat="45.83432" lon="3.04696">
        <ele>551</ele>
        <time>2021-05-22T12:25:12Z</time>
      </trkpt>
      <trkpt lat="45.83431" lon="3.04701">
        <ele>551</ele>
        <time>2021-05-22T12:25:13Z</time>
      </trkpt>
      <trkpt lat="45.83431" lon="3.04704">
        <ele>551</ele>
        <time>2021-05-22T12:25:15Z</time>
      </trkpt>
      <trkpt lat="45.83429" lon="3.04708">
        <ele>551</ele>
        <time>2021-05-22T12:25:17Z</time>
      </trkpt>
      <trkpt lat="45.83424" lon="3.04723">
        <ele>551</ele>
        <time>2021-05-22T12:25:21Z</time>
      </trkpt>
      <trkpt lat="45.83424" lon="3.04725">
        <ele>551</ele>
        <time>2021-05-22T12:25:23Z</time>
      </trkpt>
      <trkpt lat="45.83423" lon="3.04728">
        <ele>551</ele>
        <time>2021-05-22T12:25:25Z</time>
      </trkpt>
      <trkpt lat="45.83418" lon="3.04744">
        <ele>551</ele>
        <time>2021-05-22T12:25:29Z</time>
      </trkpt>
      <trkpt lat="45.83417" lon="3.04752">
        <ele>551</ele>
        <time>2021-05-22T12:25:33Z</time>
      </trkpt>
      <trkpt lat="45.83416" lon="3.04753">
        <ele>551</ele>
        <time>2021-05-22T12:25:35Z</time>
      </trkpt>
      <trkpt lat="45.83415" lon="3.04756">
        <ele>551</ele>
        <time>2021-05-22T12:25:37Z</time>
      </trkpt>
      <trkpt lat="45.83415" lon="3.0476">
        <ele>551</ele>
        <time>2021-05-22T12:25:39Z</time>
      </trkpt>
      <trkpt lat="45.83413" lon="3.04765">
        <ele>551</ele>
        <time>2021-05-22T12:25:41Z</time>
      </trkpt>
      <trkpt lat="45.83412" lon="3.04769">
        <ele>551</ele>
        <time>2021-05-22T12:25:43Z</time>
      </trkpt>
      <trkpt lat="45.8341" lon="3.04773">
        <ele>551</ele>
        <time>2021-05-22T12:25:45Z</time>
      </trkpt>
      <trkpt lat="45.83409" lon="3.04777">
        <ele>551</ele>
        <time>2021-05-22T12:25:47Z</time>
      </trkpt>
      <trkpt lat="45.83408" lon="3.04782">
        <ele>551</ele>
        <time>2021-05-22T12:25:49Z</time>
      </trkpt>
      <trkpt lat="45.83406" lon="3.04786">
        <ele>551</ele>
        <time>2021-05-22T12:25:51Z</time>
      </trkpt>
      <trkpt lat="45.83405" lon="3.04791">
        <ele>551</ele>
        <time>2021-05-22T12:25:53Z</time>
      </trkpt>
      <trkpt lat="45.83404" lon="3.04795">
        <ele>551</ele>
        <time>2021-05-22T12:25:55Z</time>
      </trkpt>
      <trkpt lat="45.83403" lon="3.04799">
        <ele>551</ele>
        <time>2021-05-22T12:25:56Z</time>
      </trkpt>
      <trkpt lat="45.83402" lon="3.04803">
        <ele>551</ele>
        <time>2021-05-22T12:25:58Z</time>
      </trkpt>
      <trkpt lat="45.834" lon="3.04807">
        <ele>551</ele>
        <time>2021-05-22T12:26:00Z</time>
      </trkpt>
      <trkpt lat="45.834" lon="3.04812">
        <ele>551</ele>
        <time>2021-05-22T12:26:02Z</time>
      </trkpt>
      <trkpt lat="45.83398" lon="3.04817">
        <ele>551</ele>
        <time>2021-05-22T12:26:04Z</time>
      </trkpt>
      <trkpt lat="45.83397" lon="3.04821">
        <ele>551</ele>
        <time>2021-05-22T12:26:06Z</time>
      </trkpt>
      <trkpt lat="45.83396" lon="3.04826">
        <ele>551</ele>
        <time>2021-05-22T12:26:08Z</time>
      </trkpt>
      <trkpt lat="45.83395" lon="3.04831">
        <ele>551</ele>
        <time>2021-05-22T12:26:10Z</time>
      </trkpt>
      <trkpt lat="45.83393" lon="3.04835">
        <ele>551</ele>
        <time>2021-05-22T12:26:12Z</time>
      </trkpt>
      <trkpt lat="45.83392" lon="3.0484">
        <ele>551</ele>
        <time>2021-05-22T12:26:14Z</time>
      </trkpt>
      <trkpt lat="45.83391" lon="3.04845">
        <ele>551</ele>
        <time>2021-05-22T12:26:16Z</time>
      </trkpt>
      <trkpt lat="45.8339" lon="3.0485">
        <ele>551</ele>
        <time>2021-05-22T12:26:18Z</time>
      </trkpt>
      <trkpt lat="45.8339" lon="3.04855">
        <ele>551</ele>
        <time>2021-05-22T12:26:20Z</time>
      </trkpt>
      <trkpt lat="45.8339" lon="3.0486">
        <ele>551</ele>
        <time>2021-05-22T12:26:22Z</time>
      </trkpt>
      <trkpt lat="45.83389" lon="3.04865">
        <ele>551</ele>
        <time>2021-05-22T12:26:24Z</time>
      </trkpt>
      <trkpt lat="45.83389" lon="3.04869">
        <ele>551</ele>
        <time>2021-05-22T12:26:26Z</time>
      </trkpt>
      <trkpt lat="45.83389" lon="3.04874">
        <ele>551</ele>
        <time>2021-05-22T12:26:28Z</time>
      </trkpt>
      <trkpt lat="45.83388" lon="3.04878">
        <ele>551</ele>
        <time>2021-05-22T12:26:30Z</time>
      </trkpt>
      <trkpt lat="45.83387" lon="3.04882">
        <ele>551</ele>
        <time>2021-05-22T12:26:32Z</time>
      </trkpt>
      <trkpt lat="45.83386" lon="3.04887">
        <ele>551</ele>
        <time>2021-05-22T12:26:34Z</time>
      </trkpt>
      <trkpt lat="45.83385" lon="3.04891">
        <ele>551</ele>
        <time>2021-05-22T12:26:36Z</time>
      </trkpt>
      <trkpt lat="45.83384" lon="3.04896">
        <ele>551</ele>
        <time>2021-05-22T12:26:38Z</time>
      </trkpt>
      <trkpt lat="45.83382" lon="3.04901">
        <ele>551</ele>
        <time>2021-05-22T12:26:40Z</time>
      </trkpt>
      <trkpt lat="45.83382" lon="3.04905">
        <ele>551</ele>
        <time>2021-05-22T12:26:42Z</time>
      </trkpt>
      <trkpt lat="45.83381" lon="3.0491">
        <ele>551</ele>
        <time>2021-05-22T12:26:44Z</time>
      </trkpt>
      <trkpt lat="45.8338" lon="3.04915">
        <ele>551</ele>
        <time>2021-05-22T12:26:46Z</time>
      </trkpt>
      <trkpt lat="45.83379" lon="3.04919">
        <ele>551</ele>
        <time>2021-05-22T12:26:48Z</time>
      </trkpt>
      <trkpt lat="45.83378" lon="3.04924">
        <ele>551</ele>
        <time>2021-05-22T12:26:50Z</time>
      </trkpt>
      <trkpt lat="45.83376" lon="3.04928">
        <ele>551</ele>
        <time>2021-05-22T12:26:52Z</time>
      </trkpt>
      <trkpt lat="45.83374" lon="3.04932">
        <ele>551</ele>
        <time>2021-05-22T12:26:54Z</time>
      </trkpt>
      <trkpt lat="45.83373" lon="3.04935">
        <ele>551</ele>
        <time>2021-05-22T12:26:56Z</time>
      </trkpt>
      <trkpt lat="45.83371" lon="3.0494">
        <ele>551</ele>
        <time>2021-05-22T12:26:58Z</time>
      </trkpt>
      <trkpt lat="45.8337" lon="3.04943">
        <ele>551</ele>
        <time>2021-05-22T12:27:00Z</time>
      </trkpt>
      <trkpt lat="45.83369" lon="3.04948">
        <ele>551</ele>
        <time>2021-05-22T12:27:02Z</time>
      </trkpt>
      <trkpt lat="45.83368" lon="3.04952">
        <ele>551</ele>
        <time>2021-05-22T12:27:04Z</time>
      </trkpt>
      <trkpt lat="45.83366" lon="3.04956">
        <ele>551</ele>
        <time>2021-05-22T12:27:06Z</time>
      </trkpt>
      <trkpt lat="45.83365" lon="3.04961">
        <ele>551</ele>
        <time>2021-05-22T12:27:08Z</time>
      </trkpt>
      <trkpt lat="45.83364" lon="3.04965">
        <ele>551</ele>
        <time>2021-05-22T12:27:10Z</time>
      </trkpt>
      <trkpt lat="45.83362" lon="3.0497">
        <ele>551</ele>
        <time>2021-05-22T12:27:12Z</time>
      </trkpt>
      <trkpt lat="45.83361" lon="3.04975">
        <ele>551</ele>
        <time>2021-05-22T12:27:14Z</time>
      </trkpt>
      <trkpt lat="45.83359" lon="3.0498">
        <ele>551</ele>
        <time>2021-05-22T12:27:16Z</time>
      </trkpt>
      <trkpt lat="45.83358" lon="3.04985">
        <ele>551</ele>
        <time>2021-05-22T12:27:18Z</time>
      </trkpt>
      <trkpt lat="45.83357" lon="3.0499">
        <ele>551</ele>
        <time>2021-05-22T12:27:20Z</time>
      </trkpt>
      <trkpt lat="45.83355" lon="3.04994">
        <ele>551</ele>
        <time>2021-05-22T12:27:22Z</time>
      </trkpt>
      <trkpt lat="45.83354" lon="3.04999">
        <ele>551</ele>
        <time>2021-05-22T12:27:24Z</time>
      </trkpt>
      <trkpt lat="45.83352" lon="3.05003">
        <ele>551</ele>
        <time>2021-05-22T12:27:26Z</time>
      </trkpt>
      <trkpt lat="45.83351" lon="3.05008">
        <ele>551</ele>
        <time>2021-05-22T12:27:28Z</time>
      </trkpt>
      <trkpt lat="45.8335" lon="3.05012">
        <ele>551</ele>
        <time>2021-05-22T12:27:30Z</time>
      </trkpt>
      <trkpt lat="45.83349" lon="3.05016">
        <ele>551</ele>
        <time>2021-05-22T12:27:32Z</time>
      </trkpt>
      <trkpt lat="45.83348" lon="3.0502">
        <ele>551</ele>
        <time>2021-05-22T12:27:34Z</time>
      </trkpt>
      <trkpt lat="45.83346" lon="3.05024">
        <ele>551</ele>
        <time>2021-05-22T12:27:36Z</time>
      </trkpt>
      <trkpt lat="45.83345" lon="3.05027">
        <ele>551</ele>
        <time>2021-05-22T12:27:38Z</time>
      </trkpt>
      <trkpt lat="45.83344" lon="3.05031">
        <ele>551</ele>
        <time>2021-05-22T12:27:40Z</time>
      </trkpt>
      <trkpt lat="45.83343" lon="3.05035">
        <ele>551</ele>
        <time>2021-05-22T12:27:42Z</time>
      </trkpt>
      <trkpt lat="45.83342" lon="3.0504">
        <ele>551</ele>
        <time>2021-05-22T12:27:44Z</time>
      </trkpt>
      <trkpt lat="45.8334" lon="3.05044">
        <ele>551</ele>
        <time>2021-05-22T12:27:46Z</time>
      </trkpt>
      <trkpt lat="45.83337" lon="3.05059">
        <ele>551</ele>
        <time>2021-05-22T12:27:50Z</time>
      </trkpt>
      <trkpt lat="45.83336" lon="3.0506">
        <ele>551</ele>
        <time>2021-05-22T12:27:52Z</time>
      </trkpt>
      <trkpt lat="45.83336" lon="3.05062">
        <ele>551</ele>
        <time>2021-05-22T12:27:54Z</time>
      </trkpt>
      <trkpt lat="45.83334" lon="3.05065">
        <ele>551</ele>
        <time>2021-05-22T12:27:56Z</time>
      </trkpt>
      <trkpt lat="45.83333" lon="3.05071">
        <ele>551</ele>
        <time>2021-05-22T12:27:58Z</time>
      </trkpt>
      <trkpt lat="45.83332" lon="3.05075">
        <ele>551</ele>
        <time>2021-05-22T12:28:00Z</time>
      </trkpt>
      <trkpt lat="45.83331" lon="3.0508">
        <ele>551</ele>
        <time>2021-05-22T12:28:02Z</time>
      </trkpt>
      <trkpt lat="45.8333" lon="3.05084">
        <ele>551</ele>
        <time>2021-05-22T12:28:04Z</time>
      </trkpt>
      <trkpt lat="45.83328" lon="3.05089">
        <ele>551</ele>
        <time>2021-05-22T12:28:06Z</time>
      </trkpt>
      <trkpt lat="45.83327" lon="3.05093">
        <ele>551</ele>
        <time>2021-05-22T12:28:08Z</time>
      </trkpt>
      <trkpt lat="45.83326" lon="3.05097">
        <ele>551</ele>
        <time>2021-05-22T12:28:10Z</time>
      </trkpt>
      <trkpt lat="45.83325" lon="3.051">
        <ele>551</ele>
        <time>2021-05-22T12:28:12Z</time>
      </trkpt>
      <trkpt lat="45.83323" lon="3.05104">
        <ele>551</ele>
        <time>2021-05-22T12:28:14Z</time>
      </trkpt>
      <trkpt lat="45.83322" lon="3.05108">
        <ele>551</ele>
        <time>2021-05-22T12:28:16Z</time>
      </trkpt>
      <trkpt lat="45.8332" lon="3.05111">
        <ele>551</ele>
        <time>2021-05-22T12:28:18Z</time>
      </trkpt>
      <trkpt lat="45.83319" lon="3.05114">
        <ele>551</ele>
        <time>2021-05-22T12:28:20Z</time>
      </trkpt>
      <trkpt lat="45.83317" lon="3.05118">
        <ele>551</ele>
        <time>2021-05-22T12:28:22Z</time>
      </trkpt>
      <trkpt lat="45.83315" lon="3.05122">
        <ele>551</ele>
        <time>2021-05-22T12:28:24Z</time>
      </trkpt>
      <trkpt lat="45.83311" lon="3.0514">
        <ele>551</ele>
        <time>2021-05-22T12:28:28Z</time>
      </trkpt>
      <trkpt lat="45.8331" lon="3.0514">
        <ele>551</ele>
        <time>2021-05-22T12:28:30Z</time>
      </trkpt>
      <trkpt lat="45.8331" lon="3.05142">
        <ele>551</ele>
        <time>2021-05-22T12:28:32Z</time>
      </trkpt>
      <trkpt lat="45.83309" lon="3.05145">
        <ele>551</ele>
        <time>2021-05-22T12:28:34Z</time>
      </trkpt>
      <trkpt lat="45.83308" lon="3.05148">
        <ele>551</ele>
        <time>2021-05-22T12:28:36Z</time>
      </trkpt>
      <trkpt lat="45.83307" lon="3.0515">
        <ele>551</ele>
        <time>2021-05-22T12:28:38Z</time>
      </trkpt>
      <trkpt lat="45.83306" lon="3.05154">
        <ele>551</ele>
        <time>2021-05-22T12:28:40Z</time>
      </trkpt>
      <trkpt lat="45.83304" lon="3.05157">
        <ele>551</ele>
        <time>2021-05-22T12:28:42Z</time>
      </trkpt>
      <trkpt lat="45.83303" lon="3.05161">
        <ele>551</ele>
        <time>2021-05-22T12:28:44Z</time>
      </trkpt>
      <trkpt lat="45.83301" lon="3.05166">
        <ele>551</ele>
        <time>2021-05-22T12:28:46Z</time>
      </trkpt>
      <trkpt lat="45.83299" lon="3.0517">
        <ele>551</ele>
        <time>2021-05-22T12:28:48Z</time>
      </trkpt>
      <trkpt lat="45.83297" lon="3.05174">
        <ele>551</ele>
        <time>2021-05-22T12:28:50Z</time>
      </trkpt>
      <trkpt lat="45.83289" lon="3.05187">
        <ele>551</ele>
        <time>2021-05-22T12:28:54Z</time>
      </trkpt>
      <trkpt lat="45.83288" lon="3.05188">
        <ele>551</ele>
        <time>2021-05-22T12:28:56Z</time>
      </trkpt>
      <trkpt lat="45.83287" lon="3.0519">
        <ele>551</ele>
        <time>2021-05-22T12:28:58Z</time>
      </trkpt>
      <trkpt lat="45.83285" lon="3.05193">
        <ele>551</ele>
        <time>2021-05-22T12:29:00Z</time>
      </trkpt>
      <trkpt lat="45.83283" lon="3.05198">
        <ele>551</ele>
        <time>2021-05-22T12:29:02Z</time>
      </trkpt>
      <trkpt lat="45.8328" lon="3.05202">
        <ele>551</ele>
        <time>2021-05-22T12:29:04Z</time>
      </trkpt>
      <trkpt lat="45.83278" lon="3.05207">
        <ele>551</ele>
        <time>2021-05-22T12:29:06Z</time>
      </trkpt>
      <trkpt lat="45.83276" lon="3.05212">
        <ele>551</ele>
        <time>2021-05-22T12:29:08Z</time>
      </trkpt>
      <trkpt lat="45.83274" lon="3.05216">
        <ele>551</ele>
        <time>2021-05-22T12:29:10Z</time>
      </trkpt>
      <trkpt lat="45.83272" lon="3.05219">
        <ele>551</ele>
        <time>2021-05-22T12:29:12Z</time>
      </trkpt>
      <trkpt lat="45.8327" lon="3.05222">
        <ele>551</ele>
        <time>2021-05-22T12:29:14Z</time>
      </trkpt>
      <trkpt lat="45.83267" lon="3.05225">
        <ele>551</ele>
        <time>2021-05-22T12:29:16Z</time>
      </trkpt>
      <trkpt lat="45.83265" lon="3.05227">
        <ele>551</ele>
        <time>2021-05-22T12:29:18Z</time>
      </trkpt>
      <trkpt lat="45.83263" lon="3.0523">
        <ele>551</ele>
        <time>2021-05-22T12:29:20Z</time>
      </trkpt>
      <trkpt lat="45.83261" lon="3.05233">
        <ele>551</ele>
        <time>2021-05-22T12:29:22Z</time>
      </trkpt>
      <trkpt lat="45.83259" lon="3.05235">
        <ele>551</ele>
        <time>2021-05-22T12:29:24Z</time>
      </trkpt>
      <trkpt lat="45.83257" lon="3.0524">
        <ele>551</ele>
        <time>2021-05-22T12:29:26Z</time>
      </trkpt>
      <trkpt lat="45.83255" lon="3.05244">
        <ele>551</ele>
        <time>2021-05-22T12:29:28Z</time>
      </trkpt>
      <trkpt lat="45.83253" lon="3.05248">
        <ele>551</ele>
        <time>2021-05-22T12:29:30Z</time>
      </trkpt>
      <trkpt lat="45.8325" lon="3.05251">
        <ele>551</ele>
        <time>2021-05-22T12:29:32Z</time>
      </trkpt>
      <trkpt lat="45.83249" lon="3.05255">
        <ele>551</ele>
        <time>2021-05-22T12:29:34Z</time>
      </trkpt>
      <trkpt lat="45.83247" lon="3.05259">
        <ele>551</ele>
        <time>2021-05-22T12:29:36Z</time>
      </trkpt>
      <trkpt lat="45.83245" lon="3.05262">
        <ele>551</ele>
        <time>2021-05-22T12:29:38Z</time>
      </trkpt>
      <trkpt lat="45.83243" lon="3.05265">
        <ele>551</ele>
        <time>2021-05-22T12:29:40Z</time>
      </trkpt>
      <trkpt lat="45.83241" lon="3.05267">
        <ele>551</ele>
        <time>2021-05-22T12:29:42Z</time>
      </trkpt>
      <trkpt lat="45.83233" lon="3.05276">
        <ele>551</ele>
        <time>2021-05-22T12:29:46Z</time>
      </trkpt>
      <trkpt lat="45.83233" lon="3.05276">
        <ele>551</ele>
        <time>2021-05-22T12:29:47Z</time>
      </trkpt>
      <trkpt lat="45.83231" lon="3.0528">
        <ele>551</ele>
        <time>2021-05-22T12:29:49Z</time>
      </trkpt>
      <trkpt lat="45.83229" lon="3.05283">
        <ele>551</ele>
        <time>2021-05-22T12:29:51Z</time>
      </trkpt>
      <trkpt lat="45.83228" lon="3.05288">
        <ele>551</ele>
        <time>2021-05-22T12:29:53Z</time>
      </trkpt>
      <trkpt lat="45.83225" lon="3.05292">
        <ele>551</ele>
        <time>2021-05-22T12:29:55Z</time>
      </trkpt>
      <trkpt lat="45.8322" lon="3.05306">
        <ele>551</ele>
        <time>2021-05-22T12:29:59Z</time>
      </trkpt>
      <trkpt lat="45.83219" lon="3.05307">
        <ele>551</ele>
        <time>2021-05-22T12:30:01Z</time>
      </trkpt>
      <trkpt lat="45.83219" lon="3.0531">
        <ele>551</ele>
        <time>2021-05-22T12:30:03Z</time>
      </trkpt>
      <trkpt lat="45.8322" lon="3.05313">
        <ele>551</ele>
        <time>2021-05-22T12:30:04Z</time>
      </trkpt>
      <trkpt lat="45.8322" lon="3.05316">
        <ele>551</ele>
        <time>2021-05-22T12:30:05Z</time>
      </trkpt>
      <trkpt lat="45.83221" lon="3.05319">
        <ele>551</ele>
        <time>2021-05-22T12:30:06Z</time>
      </trkpt>
      <trkpt lat="45.83221" lon="3.05322">
        <ele>551</ele>
        <time>2021-05-22T12:30:07Z</time>
      </trkpt>
      <trkpt lat="45.83222" lon="3.05324">
        <ele>551</ele>
        <time>2021-05-22T12:30:08Z</time>
      </trkpt>
      <trkpt lat="45.83223" lon="3.05327">
        <ele>551</ele>
        <time>2021-05-22T12:30:09Z</time>
      </trkpt>
      <trkpt lat="45.83224" lon="3.05329">
        <ele>551</ele>
        <time>2021-05-22T12:30:10Z</time>
      </trkpt>
      <trkpt lat="45.83225" lon="3.05331">
        <ele>551</ele>
        <time>2021-05-22T12:30:10Z</time>
      </trkpt>
      <trkpt lat="45.83225" lon="3.05333">
        <ele>551</ele>
        <time>2021-05-22T12:30:11Z</time>
      </trkpt>
      <trkpt lat="45.83226" lon="3.05335">
        <ele>551</ele>
        <time>2021-05-22T12:30:12Z</time>
      </trkpt>
      <trkpt lat="45.83228" lon="3.05337">
        <ele>551</ele>
        <time>2021-05-22T12:30:13Z</time>
      </trkpt>
      <trkpt lat="45.83228" lon="3.05339">
        <ele>551</ele>
        <time>2021-05-22T12:30:14Z</time>
      </trkpt>
    </trkseg>
  </trk>
</gpx>